[[{"header":{"parameterUnit":"m.s-1","parameterCategory":1,"la1":30.6,"la2":29.2853,"lo1":-89.7004,"lo2":-87.6739,"dy":0.0162,"dx":0.0183,"nx":112,"ny":82,"refTime":"2023-05-26T12:00:00:Z","depth":0,"parameterNumber":2,"parameterNumberName":"U-component_of_WINDS"},"data":[0.0,0.0,0.0,0.0,0.0,0.0,0.0,0.0,0.0,0.0,0.0,0.0,0.0,0.0,0.0,0.0,0.0,0.0,0.0,0.0,0.0,0.0,0.0,0.0,0.0,0.0,0.0,0.0,0.0,0.0,0.0,0.0,0.0,0.0,0.0,0.0,0.0,0.0,0.0,0.0,0.0,0.0,0.0,0.0,0.0,0.0,0.0,0.0,0.0,0.0,0.0,0.0,0.0,0.0,0.0,0.0,0.0,0.0,0.0,0.0,0.0,0.0,0.0,0.0,0.0,0.0,0.0,0.0,0.0,0.0,0.0,0.0,0.0,0.0,0.0,0.0,0.0,0.0,0.0,0.0,0.0,0.0,0.0,0.0,0.0,0.0,0.0,0.0,0.0,0.0,2.3244,2.4775,2.6182,2.6942,2.6893,2.5963,2.5152,2.4557,0.0,0.0,0.0,0.0,0.0,0.0,0.0,0.0,0.0,0.0,0.0,0.0,0.0,0.0,0.0,0.0,0.0,0.0,0.0,0.0,0.0,0.0,0.0,0.0,0.0,0.0,0.0,0.0,0.0,0.0,0.0,0.0,0.0,0.0,0.0,0.0,0.0,0.0,0.0,0.0,0.0,0.0,0.0,0.0,0.0,0.0,0.0,0.0,0.0,0.0,0.0,0.0,0.0,0.0,0.0,0.0,0.0,0.0,0.0,0.0,0.0,0.0,0.0,0.0,0.0,0.0,0.0,0.0,0.0,0.0,0.0,0.0,0.0,0.0,0.0,0.0,0.0,0.0,0.0,0.0,0.0,0.0,0.0,0.0,0.0,0.0,0.0,0.0,0.0,0.0,0.0,0.0,0.0,0.0,0.0,0.0,0.0,0.0,0.0,0.0,0.0,0.0,0.0,0.0,2.3039,2.4582,2.6056,2.6876,2.6742,2.5471,2.4611,2.4523,0.0,0.0,0.0,0.0,0.0,0.0,0.0,0.0,0.0,0.0,0.0,0.0,0.0,0.0,0.0,0.0,0.0,0.0,0.0,0.0,0.0,0.0,0.0,0.0,0.0,0.0,0.0,0.0,0.0,0.0,0.0,0.0,0.0,0.0,0.0,0.0,0.0,0.0,0.0,0.0,0.0,0.0,0.0,0.0,0.0,0.0,0.0,0.0,0.0,0.0,0.0,0.0,0.0,0.0,0.0,0.0,0.0,0.0,0.0,0.0,0.0,0.0,0.0,0.0,0.0,0.0,0.0,0.0,0.0,0.0,0.0,0.0,0.0,0.0,0.0,0.0,0.0,0.0,0.0,0.0,0.0,0.0,0.0,0.0,0.0,0.0,0.0,0.0,0.0,0.0,0.0,0.0,0.0,0.0,0.0,0.0,0.0,0.0,0.0,0.0,0.0,0.0,0.0,2.2912,2.3778,2.4773,2.6038,2.6656,2.6345,2.5227,2.4306,2.3718,2.3148,0.0,0.0,0.0,0.0,0.0,0.0,0.0,0.0,0.0,0.0,0.0,0.0,0.0,0.0,0.0,0.0,0.0,0.0,0.0,0.0,0.0,0.0,0.0,0.0,0.0,0.0,0.0,0.0,0.0,0.0,0.0,0.0,0.0,0.0,0.0,0.0,0.0,0.0,0.0,0.0,0.0,0.0,0.0,0.0,0.0,0.0,0.0,0.0,0.0,0.0,0.0,0.0,0.0,0.0,0.0,0.0,0.0,0.0,0.0,0.0,0.0,0.0,0.0,0.0,0.0,0.0,0.0,0.0,0.0,0.0,0.0,0.0,0.0,0.0,0.0,0.0,0.0,0.0,0.0,0.0,0.0,0.0,0.0,0.0,0.0,0.0,0.0,0.0,0.0,0.0,0.0,0.0,0.0,0.0,0.0,0.0,0.0,0.0,0.0,0.0,0.0,0.0,2.2998,2.3988,2.4432,2.5421,2.593,2.561,2.4706,2.3846,2.314,2.245,0.0,0.0,0.0,0.0,0.0,0.0,0.0,0.0,0.0,0.0,0.0,0.0,0.0,0.0,0.0,0.0,0.0,0.0,0.0,0.0,0.0,0.0,0.0,0.0,0.0,0.0,0.0,0.0,0.0,0.0,0.0,0.0,0.0,0.0,0.0,0.0,0.0,0.0,0.0,0.0,0.0,0.0,0.0,0.0,0.0,0.0,0.0,0.0,0.0,0.0,0.0,0.0,0.0,0.0,0.0,0.0,0.0,0.0,0.0,0.0,0.0,0.0,0.0,0.0,0.0,0.0,0.0,0.0,0.0,0.0,0.0,0.0,0.0,0.0,0.0,0.0,0.0,0.0,0.0,0.0,0.0,0.0,0.0,0.0,0.0,0.0,0.0,0.0,0.0,0.0,0.0,0.0,0.0,0.0,0.0,0.0,0.0,0.0,0.0,0.0,0.0,0.0,2.2051,2.2781,2.294,2.3636,2.4181,2.4389,2.3451,2.3003,2.3363,2.2118,0.0,0.0,0.0,0.0,0.0,0.0,0.0,0.0,0.0,0.0,0.0,0.0,0.0,0.0,0.0,0.0,0.0,0.0,0.0,0.0,0.0,0.0,0.0,0.0,0.0,0.0,0.0,0.0,0.0,0.0,0.0,0.0,0.0,0.0,0.0,0.0,0.0,0.0,0.0,0.0,0.0,0.0,0.0,0.0,0.0,0.0,0.0,0.0,0.0,0.0,0.0,0.0,0.0,0.0,0.0,0.0,0.0,0.0,0.0,0.0,0.0,0.0,0.0,0.0,0.0,0.0,0.0,0.0,0.0,0.0,0.0,0.0,0.0,0.0,0.0,0.0,0.0,0.0,0.0,0.0,0.0,0.0,0.0,0.0,0.0,0.0,0.0,0.0,0.0,0.0,0.0,0.0,0.0,0.0,0.0,0.0,0.0,0.0,0.0,0.0,0.0,0.0,2.1729,2.2443,2.2826,2.3374,2.3638,2.3448,2.2897,2.2376,2.1856,0.0,0.0,0.0,0.0,0.0,0.0,0.0,0.0,0.0,0.0,0.0,0.0,0.0,0.0,0.0,0.0,0.0,0.0,0.0,0.0,0.0,0.0,0.0,0.0,0.0,0.0,0.0,0.0,0.0,0.0,0.0,0.0,0.0,0.0,0.0,0.0,0.0,0.0,0.0,0.0,0.0,0.0,0.0,0.0,0.0,0.0,0.0,0.0,0.0,0.0,0.0,0.0,0.0,0.0,0.0,0.0,0.0,0.0,0.0,0.0,0.0,0.0,0.0,0.0,0.0,0.0,0.0,0.0,0.0,0.0,0.0,0.0,0.0,0.0,0.0,0.0,0.0,0.0,0.0,0.0,0.0,0.0,0.0,0.0,0.0,0.0,0.0,0.0,0.0,0.0,0.0,0.0,0.0,0.0,0.0,0.0,0.0,0.0,0.0,0.0,0.0,0.0,2.073,2.1205,2.1692,2.2197,2.2459,2.2523,2.2325,2.2021,2.1633,2.1055,0.0,0.0,0.0,0.0,0.0,0.0,0.0,0.0,0.0,0.0,0.0,0.0,0.0,0.0,0.0,0.0,0.0,0.0,0.0,0.0,0.0,0.0,0.0,0.0,0.0,0.0,0.0,0.0,0.0,0.0,0.0,0.0,0.0,0.0,0.0,0.0,0.0,0.0,0.0,0.0,0.0,0.0,0.0,0.0,0.0,0.0,0.0,0.0,0.0,0.0,0.0,0.0,0.0,0.0,0.0,0.0,0.0,0.0,0.0,0.0,0.0,0.0,0.0,0.0,0.0,0.0,0.0,0.0,0.0,0.0,0.0,0.0,0.0,0.0,0.0,0.0,0.0,0.0,0.0,0.0,0.0,0.0,0.0,0.0,0.0,0.0,0.0,0.0,0.0,0.0,0.0,0.0,0.0,0.0,0.0,0.0,0.0,0.0,0.0,0.0,0.0,0.0,2.0494,2.0392,2.0441,2.0761,2.0628,2.0646,2.0975,2.0697,2.0697,0.0,0.0,0.0,0.0,0.0,0.0,0.0,0.0,0.0,0.0,0.0,0.0,0.0,0.0,0.0,0.0,0.0,0.0,0.0,0.0,0.0,0.0,0.0,0.0,0.0,0.0,0.0,0.0,0.0,0.0,0.0,0.0,0.0,0.0,0.0,0.0,0.0,0.0,0.0,0.0,0.0,0.0,0.0,0.0,0.0,0.0,0.0,0.0,0.0,0.0,0.0,0.0,0.0,0.0,0.0,0.0,0.0,0.0,0.0,0.0,0.0,0.0,0.0,0.0,0.0,0.0,0.0,0.0,0.0,0.0,0.0,0.0,0.0,0.0,0.0,0.0,0.0,0.0,0.0,0.0,0.0,0.0,0.0,0.0,0.0,0.0,0.0,0.0,0.0,0.0,0.0,0.0,0.0,0.0,0.0,0.0,0.0,0.0,0.0,0.0,0.0,0.0,0.0,2.0494,2.046,2.0527,2.0761,2.0628,2.0561,2.0646,2.046,2.0426,2.0579,0.0,0.0,0.0,0.0,0.0,0.0,0.0,0.0,0.0,0.0,0.0,0.0,0.0,0.0,0.0,0.0,0.0,0.0,0.0,0.0,0.0,0.0,0.0,0.0,0.0,0.0,0.0,0.0,0.0,0.0,0.0,0.0,0.0,0.0,0.0,0.0,0.0,0.0,0.0,0.0,0.0,0.0,0.0,0.0,0.0,0.0,0.0,0.0,0.0,0.0,0.0,0.0,0.0,0.0,0.0,0.0,0.0,0.0,0.0,0.0,0.0,0.0,0.0,0.0,0.0,0.0,0.0,0.0,0.0,0.0,0.0,0.0,0.0,0.0,0.0,0.0,0.0,0.0,0.0,0.0,0.0,0.0,0.0,0.0,0.0,0.0,0.0,0.0,0.0,0.0,0.0,0.0,0.0,0.0,0.0,0.0,0.0,0.0,0.0,0.0,0.0,0.0,2.0595,2.0561,2.0561,2.0662,2.0527,2.0426,2.0426,2.0339,2.0304,2.0304,0.0,0.0,0.0,0.0,0.0,0.0,0.0,0.0,0.0,0.0,0.0,0.0,0.0,0.0,0.0,0.0,0.0,0.0,0.0,0.0,0.0,0.0,0.0,0.0,0.0,0.0,0.0,0.0,0.0,0.0,0.0,0.0,0.0,0.0,0.0,0.0,0.0,0.0,0.0,0.0,0.0,0.0,0.0,0.0,0.0,0.0,0.0,0.0,0.0,0.0,0.0,0.0,0.0,0.0,0.0,0.0,0.0,0.0,0.0,0.0,0.0,0.0,0.0,0.0,0.0,0.0,0.0,0.0,0.0,0.0,0.0,0.0,0.0,0.0,0.0,0.0,0.0,0.0,0.0,0.0,0.0,0.0,0.0,0.0,0.0,0.0,0.0,0.0,0.0,0.0,0.0,0.0,0.0,0.0,0.0,0.0,0.0,0.0,0.0,0.0,0.0,0.0,2.0807,2.0689,2.0618,2.068,2.0559,2.0489,2.0489,2.0489,2.0489,2.0489,0.0,0.0,0.0,0.0,0.0,0.0,0.0,0.0,0.0,0.0,0.0,0.0,0.0,0.0,0.0,0.0,0.0,0.0,0.0,0.0,0.0,0.0,0.0,0.0,0.0,0.0,0.0,0.0,0.0,0.0,0.0,0.0,0.0,0.0,0.0,0.0,0.0,0.0,0.0,0.0,0.0,0.0,0.0,0.0,0.0,0.0,0.0,0.0,0.0,0.0,0.0,0.0,0.0,0.0,0.0,0.0,0.0,0.0,0.0,0.0,2.2384,2.2712,0.0,0.0,0.0,0.0,0.0,0.0,0.0,0.0,0.0,0.0,0.0,0.0,0.0,0.0,0.0,0.0,0.0,0.0,0.0,0.0,0.0,0.0,0.0,0.0,0.0,0.0,0.0,0.0,0.0,0.0,0.0,0.0,0.0,0.0,0.0,0.0,0.0,0.0,0.0,0.0,2.126,2.1233,2.1378,2.2082,2.1982,2.1855,2.1855,2.1855,2.1855,2.1855,2.1399,0.0,0.0,0.0,0.0,0.0,0.0,0.0,0.0,0.0,0.0,0.0,0.0,0.0,0.0,0.0,0.0,0.0,0.0,0.0,0.0,0.0,0.0,0.0,0.0,0.0,0.0,0.0,0.0,0.0,0.0,0.0,0.0,0.0,0.0,0.0,0.0,0.0,0.0,0.0,0.0,0.0,0.0,0.0,0.0,0.0,0.0,0.0,0.0,0.0,0.0,0.0,0.0,0.0,0.0,0.0,0.0,0.0,0.0,0.0,2.3042,2.2712,0.0,0.0,0.0,0.0,0.0,0.0,0.0,0.0,0.0,0.0,0.0,0.0,0.0,0.0,0.0,0.0,0.0,0.0,0.0,0.0,0.0,0.0,0.0,0.0,0.0,0.0,0.0,0.0,0.0,0.0,0.0,0.0,0.0,0.0,0.0,0.0,0.0,0.0,0.0,0.0,2.1989,2.1962,2.2065,2.2421,2.2377,2.2286,2.2286,2.2286,2.2286,2.2286,2.1963,0.0,0.0,0.0,0.0,0.0,0.0,0.0,0.0,0.0,0.0,0.0,0.0,0.0,0.0,0.0,0.0,0.0,0.0,0.0,0.0,0.0,0.0,0.0,0.0,0.0,0.0,0.0,0.0,0.0,0.0,0.0,0.0,0.0,0.0,0.0,0.0,0.0,0.0,0.0,0.0,0.0,0.0,0.0,0.0,0.0,0.0,0.0,0.0,0.0,0.0,0.0,0.0,0.0,2.5113,2.5696,2.6295,2.6295,2.6295,2.6197,2.4194,2.3185,2.2973,2.2973,0.0,0.0,0.0,0.0,0.0,0.0,0.0,0.0,0.0,0.0,0.0,0.0,0.0,0.0,0.0,0.0,0.0,0.0,0.0,0.0,0.0,0.0,2.1778,2.2332,2.2978,2.3471,2.3471,0.0,0.0,0.0,0.0,0.0,0.0,0.0,0.0,0.0,0.0,0.0,2.2509,2.2524,2.2532,2.2469,2.2524,2.2562,2.2562,2.2601,2.264,2.264,2.2532,2.2517,0.0,0.0,0.0,0.0,0.0,0.0,0.0,0.0,0.0,0.0,0.0,0.0,0.0,0.0,0.0,0.0,0.0,0.0,0.0,0.0,0.0,0.0,0.0,0.0,0.0,0.0,0.0,0.0,0.0,0.0,0.0,0.0,2.1738,2.1784,0.0,0.0,0.0,0.0,0.0,0.0,0.0,0.0,0.0,0.0,0.0,0.0,0.0,2.4243,2.4812,2.553,2.5912,2.5995,2.6095,2.6195,2.6295,2.6295,2.6295,2.6262,2.5948,0.0,2.4005,2.4005,0.0,0.0,0.0,0.0,0.0,0.0,0.0,0.0,0.0,0.0,0.0,0.0,0.0,0.0,0.0,0.0,0.0,0.0,0.0,0.0,0.0,0.0,2.3055,2.3148,2.3686,2.4179,2.4179,2.4179,2.4194,2.4287,2.4051,2.3852,0.0,0.0,0.0,0.0,0.0,0.0,2.2233,2.228,2.256,2.3124,2.3441,2.361,2.361,2.3876,2.404,2.404,2.3486,2.3425,2.401,2.3471,0.0,0.0,0.0,0.0,0.0,0.0,0.0,0.0,0.0,0.0,0.0,0.0,0.0,0.0,0.0,0.0,0.0,0.0,0.0,0.0,0.0,0.0,0.0,0.0,0.0,0.0,0.0,0.0,0.0,2.19,2.2,2.1744,2.2024,2.2181,0.0,0.0,0.0,0.0,0.0,0.0,0.0,0.0,0.0,2.4261,2.4846,2.5307,2.5587,2.62,2.6721,2.7077,2.7486,2.7896,2.8305,2.8305,2.8305,2.8312,2.7863,2.7093,2.6081,2.5144,2.4362,2.3727,0.0,0.0,0.0,0.0,2.3835,2.3628,2.3913,2.3864,2.3585,2.3196,0.0,0.0,0.0,0.0,0.0,0.0,0.0,2.2455,2.3225,2.3363,2.3394,2.3779,2.4212,2.4407,2.4085,2.4126,2.419,2.4043,2.3925,2.3754,2.3538,2.3299,0.0,0.0,0.0,2.2693,2.2789,2.2833,2.2951,2.329,2.3451,2.3538,2.3538,2.3839,2.3925,2.3754,2.3819,2.3871,2.3894,2.3819,2.386,0.0,0.0,0.0,0.0,0.0,0.0,0.0,0.0,0.0,0.0,0.0,0.0,0.0,0.0,0.0,0.0,0.0,0.0,0.0,0.0,0.0,0.0,0.0,0.0,0.0,0.0,0.0,0.0,2.194,2.2183,2.1655,2.221,2.2486,0.0,0.0,0.0,0.0,0.0,0.0,2.3113,2.385,2.4656,2.5572,2.6102,2.6449,2.6646,2.7241,2.7753,2.8271,2.8806,2.9383,2.9918,3.0097,3.0134,3.0117,2.9567,2.8935,2.8151,2.6496,2.544,2.4828,2.4804,2.4694,2.458,2.4814,2.4752,2.4538,2.4906,2.4967,2.4764,2.4256,2.4302,2.4348,2.3163,0.0,0.0,0.0,0.0,2.3293,2.4376,2.4273,2.4013,2.4389,2.4671,2.4657,2.4223,2.4193,2.4087,2.3744,2.3566,2.3436,2.3172,2.3127,0.0,2.3038,2.3229,2.3391,2.3241,2.3387,2.3504,2.3504,2.3434,2.3391,2.3391,2.3584,2.3625,2.3451,2.3925,2.4051,2.3782,2.4192,2.4326,2.4053,0.0,0.0,0.0,0.0,0.0,0.0,0.0,0.0,0.0,0.0,0.0,0.0,0.0,0.0,0.0,0.0,0.0,0.0,0.0,0.0,0.0,0.0,0.0,0.0,0.0,0.0,0.0,0.0,0.0,2.1406,2.1989,0.0,0.0,0.0,0.0,2.3351,2.4,2.4353,2.4421,2.5098,2.5826,2.6594,2.7291,2.7931,2.867,2.9399,2.9772,2.9805,2.9837,2.987,2.9935,3.0571,3.0833,3.0833,3.083,3.0409,2.9691,2.8199,2.7194,2.6643,2.7275,2.7494,2.7454,2.6999,2.6846,2.6761,2.6419,2.6287,2.6287,2.6241,2.5795,2.5133,2.4425,2.421,0.0,0.0,2.5195,2.5231,2.5576,2.5589,2.5467,2.5136,2.507,2.5085,2.5055,2.4584,2.4042,2.3437,2.3038,2.2754,2.274,0.0,2.2618,2.231,2.3069,2.3536,2.3152,2.3688,2.4069,2.4069,2.3812,2.3692,2.3692,2.3449,2.3451,2.3754,2.3797,2.394,2.4166,2.4747,2.4952,2.4732,2.4762,0.0,0.0,0.0,0.0,0.0,0.0,0.0,0.0,0.0,0.0,0.0,0.0,0.0,0.0,0.0,0.0,0.0,0.0,0.0,0.0,0.0,0.0,0.0,0.0,0.0,0.0,0.0,0.0,2.3381,2.4434,0.0,2.4515,2.4466,2.458,2.4839,2.5082,2.5422,2.5891,2.6571,2.73,2.8029,2.9162,2.968,2.9529,3.0198,3.0328,2.9918,2.9918,2.9918,2.9918,3.0134,3.0247,3.0263,3.0733,3.0781,3.0538,3.049,2.9243,2.7381,2.7608,2.7623,2.7483,2.7316,2.7063,2.6761,2.666,2.6483,2.6349,2.638,2.6211,2.592,2.5363,2.5197,2.5198,2.5197,2.5179,2.5178,2.5275,2.5334,2.5287,2.5143,2.5209,2.5264,2.4858,2.4718,2.4526,2.3946,2.3191,2.2618,2.2402,2.2682,2.2904,2.2822,2.3455,2.3929,2.3766,2.3977,2.4118,2.4118,2.4006,2.3978,2.3978,2.4091,2.409,2.4009,2.442,2.4467,2.4105,2.4484,2.4696,2.4758,2.4814,2.5092,0.0,0.0,0.0,0.0,0.0,0.0,0.0,0.0,0.0,0.0,0.0,0.0,0.0,0.0,0.0,0.0,0.0,0.0,0.0,0.0,0.0,0.0,0.0,0.0,0.0,0.0,2.4908,2.4944,2.6189,2.6766,2.6059,2.6393,2.6685,2.6685,2.7138,2.7608,2.8093,2.8773,2.9372,2.9858,3.0797,3.1073,3.0587,3.0814,3.0684,3.0214,3.0032,2.9814,2.9637,3.0119,3.0236,3.0067,3.0736,3.1038,3.1054,3.1277,3.0259,2.8558,2.8699,2.8705,2.8544,2.8115,2.7775,2.748,2.7148,2.6857,2.6531,2.6334,2.632,2.6181,2.5644,2.5476,2.5473,2.5457,2.558,2.5756,2.5608,2.5704,2.577,2.5452,2.5537,2.5531,2.5103,2.5034,2.4854,2.4498,2.3716,2.3075,2.2865,2.3154,2.3421,2.3421,2.3969,2.4413,2.4413,2.461,2.4737,2.4737,2.4554,2.4413,2.4413,2.4418,2.4391,2.4305,2.4673,2.4722,2.419,2.459,2.4826,2.4762,2.5237,2.556,2.5627,0.0,0.0,0.0,0.0,0.0,0.0,0.0,0.0,0.0,0.0,0.0,0.0,0.0,0.0,0.0,0.0,0.0,0.0,0.0,0.0,0.0,0.0,0.0,2.4567,2.5211,2.5751,2.5896,2.7071,2.7599,2.702,2.8143,2.8887,2.8887,3.015,3.0898,3.0914,3.1607,3.1979,3.2012,3.1981,3.1965,3.1916,3.1253,3.0836,3.0787,3.017,2.9608,2.9153,3.0479,3.0779,3.0351,3.1006,3.1313,3.1267,3.0538,3.0262,3.0304,3.0736,3.0868,3.0725,2.9577,2.9138,2.8998,2.8118,2.7488,2.6997,2.635,2.6129,2.6026,2.5345,2.5154,2.5286,2.5903,2.6564,2.6959,2.6592,2.6931,2.7138,2.6172,2.5921,2.5921,2.5893,2.543,2.5008,2.5008,2.4582,2.416,2.4118,2.4132,2.4146,2.4146,2.4667,0.0,2.5008,2.5528,2.5893,2.5893,2.5359,2.5008,2.5008,2.4512,2.4311,2.4646,2.4632,2.4583,2.4533,2.512,2.528,2.4899,2.6036,2.635,2.5662,0.0,0.0,0.0,0.0,0.0,0.0,0.0,0.0,0.0,0.0,0.0,0.0,0.0,0.0,0.0,0.0,0.0,0.0,0.0,0.0,0.0,0.0,2.5907,2.5389,2.6893,2.8258,2.8804,3.0114,3.0884,3.0733,3.0985,3.1121,3.1121,3.1008,3.1108,3.1688,3.1396,3.1461,3.1996,3.2078,3.1626,3.0624,3.0539,2.9998,2.9014,2.9309,2.9368,2.9286,3.0088,3.0356,3.0299,3.1006,3.1313,3.1344,3.1636,3.1828,3.169,3.0763,3.0382,3.0367,3.003,2.9715,2.9295,2.8338,2.7912,2.7689,2.7027,2.6806,2.6725,2.6242,2.6147,2.6073,2.5997,2.6076,2.6318,2.6649,2.6834,2.6877,2.6596,2.6554,2.6427,2.5992,2.5767,2.564,2.564,2.5514,2.5107,2.4272,2.4484,2.4727,2.4727,2.5247,2.564,2.564,2.5795,2.5893,2.5893,2.5739,2.564,2.564,2.5486,2.5441,2.5547,2.5533,2.532,2.4888,2.5039,2.4859,2.4309,2.5439,2.5767,0.0,0.0,0.0,0.0,0.0,0.0,0.0,0.0,0.0,0.0,0.0,0.0,0.0,0.0,0.0,0.0,0.0,0.0,0.0,0.0,0.0,0.0,2.6981,2.8046,2.7989,2.9072,3.0158,3.0975,3.1952,3.2555,3.2324,3.2642,3.266,3.2095,3.2176,3.2241,3.2196,3.1964,3.1981,3.2146,3.1986,3.1487,3.0657,3.0412,2.992,2.9135,2.95,2.9546,2.9355,3.0023,3.0165,2.9978,3.0724,3.1024,3.1054,3.1501,3.1652,3.1603,0.0,0.0,0.0,0.0,2.9582,2.898,2.8115,2.7694,2.7429,2.6818,2.6616,2.6606,2.6612,2.6643,2.6645,2.6652,2.6877,2.7088,2.7186,2.7411,2.7537,2.7284,2.7214,2.7116,2.6764,2.6469,2.6287,2.6287,2.6062,0.0,2.4952,2.5121,2.5359,2.5359,2.5669,2.5893,2.5893,2.5893,2.5893,2.5893,2.5893,2.5893,2.5893,2.5893,0.0,0.0,0.0,2.5467,2.4821,2.4664,0.0,0.0,0.0,2.5314,2.5005,2.5005,0.0,0.0,2.4249,2.3935,0.0,0.0,0.0,0.0,0.0,0.0,0.0,0.0,0.0,0.0,0.0,0.0,0.0,0.0,0.0,0.0,2.8902,3.0565,3.1442,3.1557,3.1798,3.2504,3.3059,3.3176,3.2586,3.3356,3.3473,3.2325,3.3179,3.3375,3.2437,3.2763,0.0,0.0,0.0,3.1359,3.1282,3.0578,3.0188,3.0112,3.0121,2.9887,2.9446,3.0131,3.0159,2.9769,3.0321,3.0568,3.0568,3.0568,3.0568,3.0629,3.1061,3.1219,3.1089,3.0033,2.9234,2.8498,2.7837,0.0,0.0,2.6356,2.6104,2.6202,2.675,2.6919,2.7045,2.7607,2.8169,2.8478,2.8001,2.8282,2.8563,2.8015,2.7874,2.786,2.779,2.7326,2.6919,2.6919,2.6483,2.6076,2.6006,2.595,2.5893,2.5893,2.5893,2.5893,2.5893,2.5893,2.5893,2.5893,2.5893,0.0,2.5992,2.5936,2.5921,2.5992,2.5633,2.5188,2.4523,2.4261,2.4332,2.4892,2.4892,2.4892,2.4892,2.4892,2.4563,2.3891,2.3688,2.3569,0.0,0.0,0.0,0.0,0.0,0.0,0.0,0.0,0.0,0.0,0.0,0.0,0.0,0.0,0.0,2.8364,3.0489,3.2262,3.3193,3.3713,3.3853,3.3439,3.4006,3.4137,3.343,3.2951,3.261,3.2362,3.2013,3.2013,3.2367,3.1913,3.1867,3.2367,3.1799,3.1242,3.0684,3.0021,2.9501,2.9002,2.9516,0.0,2.9551,3.0265,3.0498,3.0393,3.051,3.0568,3.0568,3.0568,3.0568,3.0613,3.0719,3.0734,3.072,3.0279,3.0057,2.9806,2.907,2.8665,2.8361,2.7811,2.7512,2.7425,2.7551,2.7593,0.0,2.7748,2.786,2.8043,2.8422,2.8605,2.8661,2.8535,2.8521,2.838,2.7888,2.7678,2.7593,2.7593,2.7495,2.7242,2.6722,2.6217,2.5893,2.5893,2.5893,2.5893,2.5893,2.5893,2.5893,2.5893,2.5893,2.6104,2.6582,2.6174,2.6104,2.661,2.5673,2.4948,2.4523,2.4261,2.4171,2.4287,2.4287,2.4287,2.4287,2.4287,2.4229,2.4054,2.3747,2.3509,0.0,0.0,0.0,0.0,0.0,0.0,0.0,0.0,0.0,0.0,0.0,2.5131,0.0,0.0,2.8667,3.0558,3.2109,3.3435,3.4351,3.4808,3.4743,3.3982,3.4121,3.403,3.3282,3.2803,3.2327,3.1992,3.191,3.1753,3.1522,3.1449,3.1419,3.148,3.0878,3.038,3.0041,2.9726,2.9464,2.916,2.9798,3.0103,3.0103,3.0437,3.0568,3.0568,3.0568,3.0568,3.0568,3.0568,3.0568,3.0568,3.0568,3.0507,3.0447,3.0326,3.0266,3.0133,2.9457,2.9109,2.8936,2.8295,2.831,2.8521,2.8477,2.863,2.8941,2.9191,2.9214,2.9223,2.9532,2.9602,2.9532,2.9223,2.9153,2.9069,2.8759,2.845,2.824,2.824,2.7987,2.7664,2.7355,2.7045,2.6624,2.5992,2.616,2.6357,2.6357,2.6638,2.6835,2.6835,2.654,2.661,2.7242,2.6722,2.6498,2.6765,2.5666,2.5047,2.5163,2.4472,2.4387,2.4962,2.4687,2.4543,2.4543,2.4831,2.4697,2.4245,2.4394,2.4246,0.0,0.0,0.0,0.0,0.0,0.0,0.0,0.0,2.4661,2.5802,2.6349,2.7174,2.8957,2.9614,3.0529,3.2586,3.3563,3.4303,3.4917,3.5061,3.4762,3.3951,3.3783,3.3493,3.2749,3.2422,3.1977,3.1437,3.1766,3.161,3.0628,3.1087,3.1087,3.0642,3.0074,2.9813,2.9813,2.9813,2.9813,2.9813,3.0321,3.0568,3.0568,3.0568,3.0568,3.0568,3.0568,3.0568,3.0568,3.0568,3.0568,3.0568,3.0568,3.0507,3.0387,3.0387,3.0266,3.0162,2.966,2.95,2.9514,2.8926,2.9097,2.9511,2.948,2.9629,2.9992,3.0552,3.0594,3.053,3.053,3.053,3.0375,2.9757,2.9602,2.9602,2.9602,2.9223,2.8797,2.8675,2.839,2.8026,2.7649,2.7767,2.7579,2.6427,2.668,2.6989,2.6989,2.7453,2.7776,2.7776,2.7312,2.72,2.7734,2.7353,2.6979,2.6816,2.5828,2.544,2.5785,2.4936,2.4883,2.5798,2.5367,2.5132,2.5145,2.5602,2.5389,2.4702,2.5204,2.5103,2.1487,2.1309,2.1616,2.2912,2.3335,2.3886,0.0,0.0,2.7324,2.7612,2.8709,2.9746,3.0183,3.1381,3.2634,3.3583,3.4455,3.4886,3.4454,3.4373,3.3926,3.2792,3.302,3.2998,3.2247,3.148,3.0999,3.0881,3.0807,3.0747,3.0628,3.0687,3.0687,3.0568,3.051,3.0466,3.0466,3.0466,3.0466,3.0466,3.0539,3.0568,3.0568,3.0568,3.0568,3.0568,3.0568,3.0568,3.0568,3.0568,3.0568,3.0568,3.0568,3.0568,3.0568,3.0568,3.0582,3.0507,3.0495,3.0736,3.1027,3.0754,3.0643,3.0573,3.0383,2.9996,2.9729,3.0347,3.053,3.053,3.053,3.053,3.0375,2.9757,2.9602,2.9602,2.9602,2.956,2.9303,2.8666,2.9032,2.8823,2.6966,2.7728,2.8352,2.7664,2.7621,2.7664,2.7664,2.7734,2.7776,2.7776,2.7706,2.7706,2.7762,2.7973,2.7713,2.687,2.6405,2.6038,2.5811,2.5694,2.5694,2.5824,2.5759,2.5733,2.5733,2.5785,2.5722,2.5683,2.5923,2.5561,2.0809,2.175,2.3023,0.0,2.4611,2.5759,2.7105,2.7671,2.8295,2.9681,3.0487,3.1389,3.2843,3.3325,3.3752,0.0,3.5035,3.5043,3.4516,3.3724,3.2764,3.1492,3.1227,3.1222,3.1607,3.1219,3.0955,3.0821,3.0702,3.0568,3.0568,3.0568,3.0568,3.0568,3.0568,3.0568,3.0568,3.0568,3.0568,3.0568,3.0568,3.0568,3.0568,3.0568,3.0568,3.0568,3.0568,3.0568,3.0568,3.0568,3.0568,3.0568,3.0568,3.0568,3.0568,3.0568,3.0568,3.0568,3.0568,3.0756,3.0866,3.0791,3.0927,3.0982,3.0534,3.001,2.9688,2.9965,2.9886,2.974,2.974,3.0419,3.073,2.9212,2.9244,2.9408,2.8549,2.8417,2.8274,2.7986,2.8208,2.8128,2.721,2.7575,2.7894,2.7651,2.8022,2.8176,2.774,2.7968,2.8098,2.7707,2.8377,2.8703,2.8338,2.8428,2.8304,2.789,2.7053,2.6663,2.6778,2.6177,2.6138,2.6804,2.6491,2.6321,2.6321,2.6661,2.6518,2.6,2.6503,2.6458,2.0936,2.2356,0.0,2.4641,2.6182,2.7701,2.8451,2.9007,2.9838,3.1513,3.1916,3.2527,3.421,3.4186,3.4147,3.4973,3.5049,3.4805,3.4055,3.2961,3.1749,3.0402,2.9699,2.9764,3.0949,3.0967,3.0881,3.0881,3.0762,3.0702,3.0568,3.0642,3.0642,3.0568,3.0568,3.0568,3.0568,3.0568,3.0568,3.0568,3.0568,3.0568,3.0568,3.0568,3.0568,3.0568,3.0568,3.0568,3.0568,3.0568,3.0568,3.0568,3.0568,3.0568,3.0568,3.0387,3.0447,3.0568,3.0568,3.0684,3.0829,3.0783,3.0917,3.0891,3.0344,2.9742,2.925,2.9454,2.9334,2.921,2.9298,3.0161,3.0548,2.8986,2.9105,2.9201,2.7958,2.7719,2.76,2.7242,2.7351,2.7338,2.6934,2.7204,2.7417,2.7217,2.7846,2.8173,2.7642,2.7927,2.8085,2.7618,2.8416,2.8892,2.8649,2.8546,2.8553,2.8638,2.7696,2.7287,2.7497,2.6739,2.6687,2.751,2.7118,2.6909,2.6909,2.7327,2.7181,2.6515,2.678,2.6701,2.2485,2.3065,2.3738,2.6291,2.8082,2.9443,3.0238,3.1502,3.2594,3.2825,3.2909,3.3044,3.3321,3.3379,3.3643,3.4388,3.4535,3.4085,3.2751,3.1988,3.1076,2.9759,2.9026,2.9131,0.0,3.0383,3.0552,3.1029,3.1087,3.0955,3.0642,3.0702,3.0702,3.0568,3.0568,3.0568,3.0568,3.0568,3.0568,3.0568,3.0568,3.0568,3.0568,3.0568,3.0568,3.0568,3.0568,3.0568,3.0568,3.0568,3.0568,3.0568,3.0568,3.0568,3.0507,2.987,3.0068,3.0568,3.0568,3.0974,3.1435,3.1339,3.0835,3.0322,3.0034,2.91,2.8186,2.8852,2.9026,2.9105,2.9638,2.9658,2.9517,2.9421,2.9254,2.893,2.8438,2.8307,2.7945,2.6653,2.7015,2.7069,2.5581,2.6526,2.7284,2.6552,2.7069,2.7524,2.7524,2.7537,2.7537,2.7524,2.7537,2.7789,2.8465,2.822,2.8195,2.8587,2.8235,2.7908,2.7523,2.7497,2.7497,2.7523,2.751,2.751,2.751,2.7523,2.7523,2.743,2.6377,2.5824,2.2566,2.4194,2.5831,2.7595,2.9056,3.0337,3.1693,3.204,3.2198,3.2467,3.2191,3.1766,3.1524,3.1444,3.1694,3.2377,3.2886,3.3021,3.2572,3.1943,3.0881,2.9146,2.9116,0.0,0.0,0.0,0.0,3.0999,3.0689,3.0499,3.0747,3.0895,3.0895,3.0762,3.0702,3.0702,3.0568,3.0568,3.0568,3.0568,3.0568,3.0568,3.0568,3.0568,3.08,3.1177,3.0756,3.0814,3.1206,3.1206,3.0945,3.0611,3.1032,3.0945,3.0507,2.987,2.9747,2.987,2.9407,2.9344,2.9511,2.9462,2.9219,2.9056,2.9333,2.8691,2.7997,2.8568,2.8651,2.8545,2.8561,2.9323,2.9738,2.8562,2.8747,2.8804,2.7617,2.7359,2.7237,2.6773,2.6955,2.6955,2.6456,2.6504,2.6337,2.577,2.6264,2.6744,2.6744,2.6744,2.6744,2.6744,2.7217,2.7604,2.7802,2.8117,2.8051,2.7351,2.8052,2.8,2.6985,2.7323,2.7523,2.7523,2.7523,2.7523,2.7523,2.7523,2.7255,2.6769,2.6483,2.5918,2.3833,2.5604,2.738,2.8922,3.0122,3.1086,3.1871,3.1797,3.1558,3.1516,3.0804,3.0104,2.9784,2.957,2.9645,3.0372,3.0851,3.1195,3.1435,3.0896,3.0193,2.937,2.946,2.943,0.0,0.0,0.0,3.0776,3.0894,3.094,3.0881,3.1294,3.1323,3.0895,3.0821,3.0762,3.0702,3.0642,3.0568,3.0568,3.0568,3.0684,3.0916,3.0916,3.1264,3.1859,3.1453,3.1496,3.1874,3.1874,3.144,3.0879,3.1065,3.0882,3.0383,2.943,2.9227,2.9351,2.8706,2.8492,2.8492,2.8492,2.8395,2.8332,2.8704,2.8365,2.7977,2.8201,2.8213,2.8086,2.8118,2.8783,2.9224,2.8329,2.85,2.8659,2.7472,2.7224,2.7164,2.6971,2.6935,2.6935,2.6935,2.6466,2.5973,2.5636,2.5844,2.6,2.6,2.6,2.6,2.6,2.6402,2.6799,2.7082,2.7458,2.7378,2.6731,2.7564,2.7577,2.6427,2.6918,2.7188,2.7188,2.7188,2.7188,2.7188,2.7188,2.6837,2.6208,2.6,2.5346,2.6199,2.7345,2.8274,3.0118,3.1154,3.1567,3.0953,3.0925,3.0837,3.0172,2.9005,2.8142,0.0,0.0,2.7571,2.8442,2.8607,2.8906,2.9624,2.919,2.925,0.0,0.0,0.0,0.0,0.0,0.0,3.0416,3.1662,3.2094,3.122,3.1901,3.1946,3.1102,3.0895,3.0821,3.0762,3.0642,3.0568,3.0568,3.0611,3.0916,3.1482,3.154,3.1917,3.2513,3.2513,3.2542,3.2571,3.2571,3.2062,3.1331,3.0783,3.0436,3.0105,2.8776,2.8656,2.9026,2.8651,2.8457,2.8457,2.8457,2.8385,2.8317,2.8343,2.8196,2.8086,2.7903,2.7841,2.7965,2.8233,2.8203,2.8171,2.8682,2.8657,2.8366,2.7873,2.7765,2.7609,2.7115,2.7007,2.7007,2.6983,2.6514,2.6129,2.6105,2.5648,2.5312,2.5312,2.5336,2.5348,2.5348,2.5348,2.563,2.6327,2.6208,2.6252,2.6595,2.6947,2.6744,2.5861,2.6358,2.6645,2.6645,2.6645,2.6645,2.6645,2.6645,2.6358,2.5861,2.485,2.4192,2.7621,2.8666,2.9377,3.0335,3.0758,3.0891,3.0836,3.05,2.9912,2.8862,2.7632,2.6435,0.0,0.0,0.0,2.7649,2.8614,0.0,3.1539,3.1614,0.0,3.1958,0.0,3.163,3.1541,3.1309,0.0,0.0,3.181,3.1811,3.1975,3.2213,3.1946,3.1102,3.0895,3.0762,3.0642,3.0642,3.0568,3.0582,3.1061,3.1119,3.0843,3.1816,3.2353,3.2513,3.2513,3.2788,3.3224,3.3224,3.2804,3.2191,3.1938,3.152,3.0825,2.9432,2.8995,2.9002,2.8376,2.8216,2.8216,2.8216,2.8188,2.8248,2.8654,2.8586,2.8562,2.8897,2.8867,2.8762,2.8885,2.8844,2.879,2.8767,2.8724,2.8609,2.8342,2.8318,2.827,2.8138,2.8114,2.7981,2.7584,2.7067,2.6574,2.6154,2.5648,2.5312,2.5312,2.5661,2.5901,2.5901,2.5901,2.5961,2.6177,2.6153,2.5861,2.5336,2.6126,2.6171,2.5288,2.5791,2.607,2.607,2.607,2.607,2.607,2.607,2.5791,2.5217,2.5004,2.4432,2.8893,2.9493,2.9939,3.048,3.023,2.9882,2.9842,2.9199,2.8192,2.6982,2.5898,0.0,2.4042,2.4381,0.0,0.0,0.0,0.0,3.0884,3.0981,3.1338,0.0,3.2629,0.0,3.237,3.2046,3.2145,0.0,3.2318,3.2064,3.2393,3.2001,3.1511,3.0895,3.0251,2.987,2.967,2.967,2.967,2.967,3.0291,3.0481,3.0517,3.1439,3.2231,3.2782,3.25,3.2698,3.3364,3.3024,3.2456,3.1792,3.1445,3.1081,3.0503,2.9391,2.9177,2.9333,2.8987,2.885,2.8762,2.826,2.8273,2.8524,2.8837,2.9025,2.9123,2.9344,2.9341,2.9197,2.9131,2.904,2.8961,2.8803,2.8724,2.8657,2.851,2.851,2.851,2.851,2.851,2.8414,2.8114,2.7633,2.7176,2.6851,2.6358,2.6021,2.6021,2.6069,2.619,2.6442,2.6466,2.637,2.6117,2.5973,2.5576,2.4885,2.5441,2.5417,2.4671,2.5229,2.5511,2.5511,2.5754,2.5875,2.5875,2.5875,2.5589,2.4915,2.4765,2.4238,2.9941,3.0147,3.0312,3.0568,2.9779,2.8898,2.8695,2.7544,2.6236,2.4965,0.0,2.3647,2.3184,2.3745,2.4589,2.5545,0.0,2.6686,2.9491,2.9241,2.9973,3.3017,3.2718,3.2544,3.3289,3.2551,3.2357,3.3223,3.2603,3.2333,3.2497,3.1681,3.0931,3.0413,2.9408,2.877,2.8614,2.8614,2.8573,2.8505,2.9037,2.9605,3.0215,3.0823,3.176,3.2891,3.2335,3.2434,3.3003,3.2362,3.1709,3.0992,3.0446,3.007,2.9871,2.9227,2.9365,2.9792,2.9792,2.9792,2.9628,2.8649,2.8649,2.9038,2.9038,2.939,2.9702,2.9509,2.9419,2.9341,2.9131,2.8961,2.8803,2.8803,2.8657,2.851,2.851,2.851,2.851,2.851,2.851,2.851,2.851,2.8077,2.7717,2.7717,2.7272,2.6959,2.7031,2.661,2.6502,2.6983,2.7043,2.6839,2.6346,2.5846,2.5401,2.5013,2.4956,2.48,2.4395,2.4882,2.5075,2.5075,2.5548,2.576,2.5689,2.5689,2.5421,2.4809,2.4395,2.4043,3.0734,3.0925,3.0955,3.1014,3.0044,2.8931,2.8341,2.6681,0.0,0.0,2.3695,2.3214,2.3111,2.373,2.4855,2.6713,0.0,0.0,0.0,0.0,3.0811,0.0,3.1956,3.1915,3.3266,3.1288,0.0,0.0,3.1527,3.1331,3.246,3.171,3.0799,2.979,2.937,2.9224,2.9158,2.9158,2.8915,2.8505,2.9182,2.9455,2.951,3.069,3.133,3.1523,3.1928,3.2146,3.229,3.2146,3.2015,3.1842,3.1088,3.0742,3.0594,2.9884,2.9704,2.9792,2.9792,2.9792,2.9767,2.9566,2.9566,2.9641,2.9641,2.9537,2.9431,2.9419,2.9275,2.9131,2.9131,2.9052,2.9052,2.8882,2.8803,2.8724,2.851,2.851,2.851,2.851,2.851,2.851,2.851,2.8077,2.7717,2.7717,2.7272,2.7091,2.7524,2.75,2.7476,2.7572,2.7584,2.7536,2.7452,2.6273,2.5706,2.6024,2.5315,2.5056,2.5429,2.5516,2.5593,2.5593,2.5685,2.5512,2.5073,2.5073,2.4791,2.4315,2.4235,2.4189,3.1056,3.0984,3.0866,3.1073,2.965,2.8134,2.7733,0.0,0.0,0.0,2.3422,2.3201,2.3201,0.0,0.0,0.0,0.0,0.0,0.0,0.0,0.0,0.0,0.0,3.0788,0.0,3.0526,3.0174,3.211,3.0819,3.0568,3.184,3.1106,3.0145,2.9,2.8572,2.8347,2.8265,2.7965,2.7691,2.7497,2.8373,2.8721,2.8747,2.992,3.065,3.1017,3.0952,3.1145,3.1415,3.1071,3.0872,3.0859,3.0495,3.0343,3.0266,2.9934,2.9792,2.9792,2.9792,2.9792,2.9792,2.9792,2.9792,2.9792,2.9792,2.9702,2.9611,2.9611,2.9534,2.9456,2.9275,2.9197,2.9052,2.8882,2.8724,2.8657,2.851,2.851,2.851,2.851,2.851,2.851,2.851,2.8294,2.8138,2.8138,2.7921,2.7849,2.8102,2.8138,2.8138,2.8138,2.8138,2.8017,2.7741,2.7031,2.6493,2.6306,2.5756,2.5505,2.5704,2.5716,2.5716,2.5716,2.5968,2.598,2.5716,2.5451,2.521,2.4981,2.4441,2.4326,3.1036,3.0925,3.0777,3.1132,2.9298,2.7399,2.7284,2.5593,0.0,0.0,2.3319,2.3319,2.3319,0.0,2.4414,0.0,2.4976,0.0,0.0,0.0,0.0,0.0,0.0,0.0,3.092,2.9808,0.0,3.137,3.0103,2.9753,3.087,3.0174,2.9345,2.8626,2.8088,2.7788,2.7632,2.7205,2.6866,2.6653,2.7632,2.8109,2.8134,2.9151,3.0025,3.062,3.0075,3.0139,3.062,3.0075,2.9792,2.9792,2.9792,2.9792,2.9792,2.9792,2.9792,2.9792,2.9792,2.9792,2.9792,2.9792,2.9792,2.9792,2.9792,2.9792,2.9792,2.9792,2.9792,2.9702,2.9431,2.9197,2.8973,2.8803,2.8657,2.851,2.851,2.851,2.851,2.851,2.851,2.851,2.851,2.851,2.851,2.851,2.851,2.851,2.851,2.851,2.851,2.851,2.851,2.8342,2.7933,2.7544,2.7186,2.6658,2.6375,2.6132,2.6037,2.6037,2.6037,2.6037,2.6427,2.6577,2.6462,2.6071,2.5819,2.5693,2.49,2.4728,3.0582,3.0989,3.1409,3.1467,2.9525,2.7599,2.759,0.0,0.0,2.348,2.3466,2.3466,2.3319,2.3495,2.4074,0.0,0.0,2.4278,0.0,0.0,0.0,0.0,0.0,0.0,3.024,2.8758,2.8179,2.9469,2.8921,2.8743,2.9309,2.9018,2.8908,2.9111,2.8875,2.8775,2.8775,2.8725,2.8197,2.7218,2.7821,2.8109,2.8122,2.8737,2.9289,2.9934,2.9869,2.9869,2.9856,2.9869,2.9792,2.9792,2.9792,2.9792,2.9792,2.9792,2.9792,2.9792,2.9792,2.9792,2.9792,2.9792,2.9792,2.9792,2.9792,2.9792,2.9792,2.9792,2.9611,2.9431,2.9197,2.8961,2.8803,2.859,2.851,2.851,2.851,2.851,2.851,2.851,2.851,2.851,2.851,2.851,2.851,2.851,2.851,2.851,2.851,2.851,2.851,2.851,2.851,2.8498,2.8438,2.7837,2.7506,2.7716,2.7135,2.685,2.707,2.7093,2.7093,2.7093,2.7139,2.6932,2.6462,2.6416,2.6163,2.5716,2.5624,2.5601,3.0178,3.1001,3.1377,3.1016,2.9235,2.747,2.7066,0.0,2.3566,2.3566,2.3566,2.348,2.3127,2.3113,2.3229,2.3403,0.0,0.0,2.5149,0.0,0.0,0.0,2.7407,0.0,0.0,0.0,2.7719,2.819,2.8974,2.9261,2.8812,2.9014,2.9385,2.9934,2.9252,2.8925,2.8925,2.8599,2.821,2.7783,2.8335,2.8599,2.8612,2.9189,2.9578,2.9792,2.9792,2.9792,2.9792,2.9792,2.9792,2.9792,2.9792,2.9792,2.9792,2.9792,2.9792,2.9792,2.9792,2.9792,2.9792,2.9792,2.9792,2.9792,2.9792,2.9792,2.9792,2.9599,2.9509,2.9341,2.904,2.8736,2.8578,2.851,2.851,2.851,2.851,2.851,2.851,2.851,2.851,2.851,2.851,2.851,2.851,2.851,2.851,2.851,2.851,2.851,2.851,2.851,2.851,2.851,2.851,2.8227,2.8056,2.7881,2.7613,2.7348,2.7219,2.7231,2.7231,2.7231,2.7231,2.7128,2.6921,2.6622,2.6358,2.6152,2.5853,2.5876,2.9205,3.0283,3.0836,3.0357,2.8742,2.7111,0.0,0.0,2.3595,2.3595,2.3595,2.3508,2.3157,2.2979,2.2799,2.242,0.0,2.2791,2.3838,2.4177,0.0,0.0,0.0,2.7288,0.0,2.8582,2.8229,2.8059,2.9183,2.9626,2.9065,2.9305,2.9717,3.0203,2.9542,2.9189,2.9189,2.88,2.8511,2.8348,2.8913,2.9089,2.895,2.9528,2.9792,2.9792,2.9792,2.9792,2.9792,2.9792,2.9792,2.9792,2.9792,2.9792,2.9792,2.9792,2.9792,2.9792,2.9792,2.9792,2.9792,2.9792,2.9792,2.9792,2.9702,2.9702,2.9702,2.9509,2.9341,2.9106,2.8803,2.8578,2.851,2.851,2.851,2.851,2.851,2.851,2.851,2.851,2.851,2.851,2.851,2.851,2.851,2.851,2.851,2.851,2.851,2.851,2.851,2.851,2.851,2.851,2.851,2.851,2.8351,2.8042,2.7962,2.7719,2.7301,2.7231,2.7231,2.7231,2.7231,2.7231,2.7231,2.6864,2.6691,2.668,2.6324,2.6347,2.7425,2.8577,2.9609,2.9594,2.8083,2.6422,0.0,0.0,2.3595,2.3595,2.3595,2.3595,2.3595,2.3201,2.2889,2.2889,2.2979,0.0,2.3906,2.4542,0.0,0.0,0.0,2.7118,2.8281,2.9431,2.9862,2.9301,2.9274,2.9536,3.0025,2.9683,2.9579,2.9779,2.9792,2.9779,2.9779,2.9779,2.949,2.8925,2.9503,2.9478,2.895,2.9528,2.9792,2.9792,2.9792,2.9792,2.9792,2.9792,2.9792,2.9792,2.9792,2.9792,2.9792,2.9792,2.9792,2.9792,2.9792,2.9792,2.9792,2.9792,2.9792,2.9779,2.9509,2.9611,2.9702,2.9509,2.9106,2.8724,2.8578,2.851,2.851,2.851,2.851,2.851,2.851,2.851,2.851,2.851,2.851,2.851,2.851,2.851,2.851,2.851,2.851,2.851,2.851,2.851,2.851,2.851,2.851,2.851,2.851,2.851,2.8431,2.8179,2.8042,2.7788,2.7522,2.7301,2.7231,2.7231,2.7231,2.7231,2.7231,2.7219,2.7219,2.7219,2.7219,2.7219,2.5255,2.6527,2.7425,2.6976,2.6393,2.5749,2.5091,0.0,2.3595,2.3595,2.3595,2.3508,2.3201,2.2979,2.3035,2.3516,2.3312,0.0,0.0,0.0,0.0,2.6894,2.8224,2.8869,0.0,0.0,2.9902,2.9327,2.964,2.9868,2.9878,3.0044,3.0113,3.0216,2.9934,2.9792,2.9792,2.9792,2.9691,2.9528,2.9704,2.9691,2.9528,2.9704,2.9792,2.9792,2.9792,2.9792,2.9792,2.9792,2.9792,2.9792,2.9792,2.9792,2.9792,2.9792,2.9792,2.9792,2.9792,2.9792,2.9792,2.9792,2.9702,2.9509,2.9419,2.9431,2.9431,2.9118,2.8803,2.8578,2.851,2.851,2.851,2.851,2.851,2.851,2.851,2.851,2.851,2.851,2.851,2.851,2.851,2.851,2.851,2.851,2.851,2.851,2.851,2.851,2.851,2.851,2.851,2.851,2.851,2.851,2.8431,2.8179,2.8099,2.803,2.7788,2.7534,2.7452,2.7452,2.7301,2.7231,2.7231,2.7231,2.7231,2.7231,2.7231,2.7231,0.0,2.5031,2.5809,2.5644,2.542,0.0,0.0,0.0,2.3595,2.3595,2.3595,2.3508,2.3201,2.3024,2.3107,2.3778,2.3846,0.0,0.0,0.0,0.0,2.7786,0.0,0.0,0.0,2.9902,3.0307,2.9954,3.0255,3.0377,3.029,3.0327,3.0368,3.0368,3.0011,2.9792,2.9792,2.9792,2.9792,2.9792,2.9792,2.9792,2.9792,2.9792,2.9792,2.9792,2.9792,2.9792,0.0,2.9792,2.9792,2.9792,2.9792,2.9792,2.9792,2.9792,2.9792,2.9792,2.9792,2.9792,2.9792,2.9702,2.9443,2.9184,2.9184,2.9184,2.9106,2.887,2.8657,2.851,2.851,2.851,2.851,2.851,2.851,2.851,2.851,2.851,2.851,2.851,2.851,2.851,2.851,2.851,2.851,2.851,2.851,2.851,2.851,2.851,2.851,2.851,2.851,2.851,2.851,2.851,2.8431,2.8339,2.8259,2.8099,2.803,2.7696,2.7522,2.7522,2.7301,2.7231,2.7231,2.7231,2.7231,2.7231,2.7231,2.7231,0.0,0.0,0.0,0.0,0.0,0.0,0.0,0.0,0.0,0.0,0.0,2.361,2.367,2.3319,2.3285,2.397,2.4597,0.0,0.0,2.6691,0.0,0.0,2.8968,0.0,2.9967,3.0568,3.0934,3.0986,3.0986,3.0986,3.0986,3.0596,3.0444,3.0368,3.0011,2.9792,2.9792,2.9792,2.9792,2.9792,2.9792,2.9792,2.9792,2.9792,2.9792,2.9792,2.9792,2.9792,2.9792,2.9792,2.9792,2.9792,2.9792,2.9792,2.9792,2.9792,2.9792,2.9792,2.9792,2.9792,2.9702,2.9431,2.9106,2.8791,2.8803,2.8803,2.8803,2.8803,2.8657,2.851,2.851,2.851,2.851,2.851,2.851,2.851,2.851,2.851,2.851,2.851,2.851,2.851,2.851,2.851,2.851,2.851,2.851,2.851,2.851,2.851,2.851,2.851,2.851,2.851,2.851,2.851,2.851,2.851,2.8339,2.8179,2.8179,2.7765,2.7522,2.7522,2.7301,2.7231,2.7231,2.7231,2.7231,2.7231,2.7231,2.7231,2.3001,0.0,2.2547,2.3191,2.361,0.0,0.0,0.0,0.0,0.0,0.0,0.0,0.0,0.0,0.0,0.0,0.0,0.0,2.6929,0.0,0.0,2.7993,2.9088,2.9627,2.8869,2.9732,3.0516,3.096,3.0986,3.0986,3.0986,3.0761,3.0533,3.0368,3.0152,2.9934,2.9792,2.9792,2.9792,2.9792,2.9792,2.9792,2.9792,2.9792,2.9792,2.9792,2.9792,2.9792,2.9792,2.9792,2.9792,2.9792,2.9792,2.9792,2.9792,2.9792,2.9792,2.9792,2.9792,2.9702,2.9431,2.9028,2.8882,2.8803,2.8657,2.8578,2.8578,2.8578,2.851,2.851,2.851,2.851,2.851,2.851,2.851,2.851,2.851,2.851,2.851,2.851,2.851,2.851,2.851,2.851,2.851,2.851,2.851,2.851,2.851,2.851,2.851,2.851,2.851,2.851,2.851,2.851,2.851,2.851,2.8431,2.8339,2.8179,2.795,2.7708,2.7522,2.7301,2.7231,2.7231,2.7231,2.7231,2.7231,2.7231,2.7231,2.2842,2.2763,2.2546,2.302,2.3355,2.3595,0.0,0.0,0.0,0.0,0.0,0.0,0.0,0.0,0.0,0.0,2.6587,0.0,0.0,0.0,2.8886,2.8919,2.9591,2.9953,0.0,3.015,3.066,3.096,3.0986,3.0986,3.0986,3.0849,3.0609,3.0444,3.0228,3.0011,2.9792,2.9792,2.9792,2.9792,2.9792,2.9792,2.9792,2.9792,2.9792,2.9792,2.9792,2.9792,2.9792,2.9792,2.9792,2.9792,2.9792,2.9792,2.9792,2.9792,2.9792,2.9792,2.9792,2.9534,2.9197,2.887,2.8724,2.8657,2.851,2.851,2.851,2.851,2.851,2.851,2.851,2.851,2.851,2.851,2.851,2.851,2.851,2.851,2.851,2.851,2.851,2.851,2.851,2.851,2.851,2.851,2.851,2.851,2.851,2.851,2.851,2.851,2.851,2.851,2.851,2.851,2.851,2.851,2.8431,2.8339,2.8179,2.7857,2.7615,2.7371,2.7219,2.7231,2.7231,2.7231,2.7231,2.7231,2.7231,2.7231,2.302,2.3409,2.3652,2.3785,2.3809,2.3752,0.0,0.0,0.0,0.0,0.0,0.0,0.0,0.0,0.0,0.0,0.0,0.0,2.8861,2.9049,2.9356,3.0355,3.0496,0.0,3.0916,3.1074,3.1167,3.1185,3.1198,3.1198,3.1198,3.0911,3.0609,3.0444,3.0139,2.9872,2.9731,2.9741,2.9792,2.9792,2.9792,2.9792,2.9792,2.9792,2.9792,2.9792,2.9792,2.9792,2.9792,2.9792,2.9792,2.9792,2.9792,2.9792,2.9792,2.9792,2.9792,2.9792,2.9714,2.9378,2.904,2.8803,2.8657,2.851,2.851,2.851,2.851,2.851,2.851,2.851,2.851,2.851,2.851,2.851,2.851,2.851,2.851,2.851,2.851,2.851,2.851,2.851,2.851,2.851,2.851,2.851,2.851,2.851,2.851,2.851,2.851,2.851,2.851,2.851,2.851,2.851,2.851,2.851,2.8339,2.8179,2.8087,2.7684,2.7371,2.7231,2.7231,2.7231,2.7231,2.7231,2.7231,2.7231,2.7231,2.7231,2.4839,2.5132,2.5093,2.4792,2.4704,2.4623,0.0,0.0,0.0,0.0,0.0,0.0,0.0,0.0,0.0,0.0,0.0,2.9579,0.0,0.0,3.171,3.1449,0.0,3.1625,3.0622,3.153,3.211,3.1974,3.1942,3.1942,3.1942,3.1334,3.0836,3.0698,2.9995,2.9502,2.9264,2.9617,2.9792,2.9792,2.9792,2.9792,2.9792,2.9792,2.9792,2.9792,2.9792,2.9792,2.9792,2.9792,2.9792,2.9792,2.9792,2.9792,2.9792,2.9792,2.9792,2.9714,2.9378,2.9052,2.8803,2.8578,2.851,2.851,2.851,2.851,2.851,2.851,2.851,2.851,2.851,2.851,2.851,2.851,2.851,2.851,2.851,2.851,2.851,2.851,2.851,2.851,2.851,2.851,2.851,2.851,2.851,2.851,2.851,2.851,2.851,2.851,2.851,2.851,2.851,2.851,2.851,2.851,2.8339,2.8007,2.7603,2.7371,2.7231,2.7231,2.7231,2.7231,2.7231,2.7231,2.7231,2.7231,2.7231,2.7231,2.4574,2.5258,2.5811,2.5642,2.523,0.0,0.0,0.0,0.0,0.0,0.0,0.0,0.0,0.0,2.6183,2.7934,0.0,3.0417,3.1405,3.1753,3.1953,0.0,0.0,3.2298,3.1931,3.2499,3.2639,3.2165,3.2469,3.2368,3.1612,3.1267,3.0857,3.0219,2.9442,2.9001,2.8781,2.8824,2.9026,2.9327,2.9327,2.949,2.9779,2.9465,2.9503,2.9792,2.9792,2.9792,2.9792,2.9792,2.9792,2.9792,2.9792,2.9792,2.9792,2.9792,2.9792,2.9714,2.9287,2.9052,2.8895,2.859,2.851,2.851,2.851,2.851,2.851,2.851,2.851,2.851,2.851,2.851,2.851,2.851,2.851,2.851,2.851,2.851,2.851,2.851,2.851,2.851,2.851,2.851,2.851,2.851,2.851,2.851,2.851,2.851,2.851,2.851,2.851,2.851,2.851,2.851,2.8431,2.8339,2.8259,2.8007,2.7522,2.7452,2.7301,2.7231,2.7231,2.7231,2.7231,2.7231,2.7231,2.7231,2.7231,2.7231,2.4,2.4961,2.5955,2.5955,0.0,0.0,0.0,0.0,0.0,0.0,0.0,0.0,0.0,2.5591,0.0,2.9175,3.0238,3.1091,3.2078,3.2213,3.2406,3.3045,3.3127,3.3158,3.3208,3.3559,3.3331,3.2348,3.2871,3.2736,3.1502,3.1267,3.0918,3.0164,2.9385,2.8956,2.877,2.84,2.8391,2.8737,2.8737,2.8963,2.939,2.9063,2.9164,2.9591,2.9729,2.9792,2.9792,2.9792,2.9716,2.9603,2.9741,2.9792,2.9792,2.9792,2.9792,2.9624,2.9209,2.9052,2.8973,2.859,2.851,2.851,2.851,2.851,2.851,2.851,2.851,2.851,2.851,2.851,2.851,2.851,2.851,2.851,2.851,2.851,2.851,2.851,2.851,2.851,2.851,2.851,2.851,2.851,2.851,2.851,2.851,2.851,2.851,2.851,2.851,2.851,2.851,2.851,2.8431,2.8179,2.8179,2.7938,2.7522,2.7441,2.7371,2.7231,2.7231,2.7231,2.7231,2.7231,2.7231,2.7231,2.7231,2.7231,2.4,2.458,2.5193,2.5193,0.0,0.0,0.0,0.0,0.0,0.0,0.0,0.0,0.0,2.6031,2.7186,2.925,3.0642,3.2123,3.3993,0.0,3.4532,3.52,3.529,3.4807,3.3529,3.4581,3.4484,3.255,3.2992,3.3064,3.2364,3.1655,3.1258,3.1191,3.0432,2.9917,2.9813,2.8905,2.8394,2.816,2.816,2.8185,2.8247,2.8712,2.895,2.9026,2.9566,2.9792,2.9792,2.9792,2.9478,2.9038,2.9578,2.9792,2.9792,2.9792,2.9611,2.9431,2.9209,2.8961,2.8803,2.8578,2.851,2.851,2.851,2.851,2.851,2.851,2.851,2.851,2.851,2.851,2.851,2.851,2.851,2.851,2.851,2.851,2.851,2.851,2.851,2.851,2.851,2.851,2.851,2.851,2.851,2.851,2.851,2.851,2.851,2.851,2.851,2.851,2.851,2.851,2.8431,2.8179,2.803,2.7788,2.751,2.7301,2.7231,2.7231,2.7231,2.7231,2.7231,2.7231,2.7231,2.7231,2.7231,2.7231,2.4066,2.4878,2.5789,2.5789,0.0,0.0,0.0,0.0,0.0,0.0,0.0,0.0,0.0,0.0,2.8179,2.9705,3.0824,3.2078,3.3649,3.3858,3.3963,3.4233,3.4262,3.4017,3.3499,3.3973,3.3749,3.2566,3.3099,3.2985,3.1811,3.1579,3.0998,3.0171,2.9366,2.8921,2.8732,2.8275,2.8183,2.8328,2.7831,2.777,2.8097,2.7959,2.8097,2.8436,2.8649,2.875,2.875,2.875,2.8612,2.8436,2.8662,2.875,2.8787,2.9126,2.9176,2.9124,2.9098,2.9052,2.8961,2.859,2.851,2.851,2.851,2.851,2.851,2.851,2.851,2.851,2.851,2.851,2.851,2.851,2.851,2.851,2.851,2.851,2.851,2.851,2.851,2.851,2.851,2.851,2.851,2.851,2.851,2.851,2.851,2.851,2.851,2.851,2.851,2.851,2.851,2.851,2.8431,2.8179,2.8099,2.7938,2.7522,2.7441,2.729,2.7231,2.7231,2.7231,2.7231,2.7231,2.7231,2.7231,2.7231,2.7231,2.4114,2.4929,2.5891,0.0,0.0,0.0,0.0,0.0,0.0,0.0,0.0,0.0,0.0,0.0,0.0,0.0,3.1086,3.2206,3.3366,3.332,3.326,3.3469,3.3499,3.341,3.32,3.338,3.314,3.2273,3.2617,3.2392,3.1203,3.0998,3.0438,2.95,2.8952,2.8606,2.8415,2.8056,2.8022,2.8249,2.7274,2.7214,2.7914,2.7908,2.7882,2.7858,2.8227,2.8303,2.8109,2.8109,2.8109,2.8084,2.7908,2.7873,2.8074,2.8449,2.85,2.8487,2.8479,2.8537,2.846,2.8083,2.8017,2.8041,2.821,2.8258,2.8294,2.8462,2.851,2.851,2.851,2.851,2.851,2.851,2.851,2.851,2.851,2.851,2.851,2.851,2.851,2.851,2.851,2.851,2.851,2.851,2.851,2.851,2.851,2.851,2.851,2.851,2.851,2.851,2.851,2.851,2.8431,2.8179,2.8179,2.8007,2.7522,2.7441,2.7371,2.7231,2.7231,2.7231,2.7231,2.7231,2.7231,2.7231,2.7231,2.7231,2.421,2.4647,0.0,0.0,0.0,0.0,0.0,0.0,0.0,0.0,0.0,0.0,2.8842,0.0,0.0,3.0186,3.1505,3.2634,3.3412,3.2916,3.2751,3.3395,3.3469,3.3215,3.2557,3.308,3.2916,3.1556,3.1452,3.121,3.0537,2.9909,2.9579,2.9564,2.9564,2.951,2.9277,2.8495,2.8025,2.7794,2.6377,2.6373,2.755,2.8705,2.8512,2.7364,2.8511,2.8697,2.8084,2.8084,2.8084,2.8034,2.7494,2.7535,2.7779,2.7779,2.7693,2.7471,2.7273,2.7198,2.7211,2.6998,2.6935,2.7031,2.756,2.7717,2.7837,2.8354,2.851,2.851,2.851,2.851,2.851,2.851,2.851,2.851,2.851,2.851,2.851,2.851,2.851,2.851,2.851,2.851,2.851,2.851,2.851,2.851,2.851,2.851,2.851,2.851,2.851,2.851,2.851,2.851,2.8431,2.8179,2.8179,2.8007,2.751,2.7301,2.7231,2.7231,2.7231,2.7231,2.7231,2.7231,2.7231,2.7231,2.7231,2.7231,2.5678,0.0,0.0,0.0,0.0,0.0,0.0,0.0,0.0,0.0,0.0,3.0744,3.0744,0.0,0.0,3.0833,3.13,3.1778,3.2047,3.1943,3.1898,3.2093,3.2108,3.1854,3.1165,3.127,3.1046,3.0223,3.0163,3.0073,2.9864,2.9684,2.937,2.8906,2.8891,2.8823,2.8619,2.8297,2.8257,2.8539,2.8068,2.7234,2.6231,2.6543,2.648,2.6126,2.6955,2.7139,2.6942,2.6942,2.6942,2.6929,2.6766,2.6804,2.6909,2.7155,2.7207,2.7125,2.7213,2.7198,2.7211,2.6998,2.6935,2.6959,2.7128,2.7428,2.7753,2.7909,2.8222,2.851,2.851,2.851,2.851,2.851,2.851,2.851,2.851,2.851,2.851,2.851,2.851,2.851,2.851,2.851,2.851,2.851,2.851,2.851,2.851,2.851,2.851,2.851,2.851,2.851,2.851,2.851,2.8431,2.8179,2.8179,2.8099,2.7788,2.7534,2.7452,2.7452,2.7301,2.7231,2.7231,2.7231,2.7231,2.7231,2.7231,2.7231,2.6656,0.0,0.0,0.0,0.0,0.0,0.0,0.0,0.0,0.0,0.0,3.1719,3.1984,3.1945,0.0,3.139,3.1291,3.1288,3.141,3.1234,3.112,3.112,3.112,3.0866,3.0193,3.0133,2.9983,2.9609,2.934,2.919,2.919,2.8936,2.8607,2.8203,2.8188,2.8136,2.7951,2.7809,2.7856,2.8159,2.7746,2.6932,2.5781,2.6524,2.6641,2.6401,2.7037,2.7162,2.6905,2.7162,2.7284,2.7284,2.7284,2.7095,2.6845,2.724,2.7101,2.6734,2.6846,2.6954,2.7037,2.6671,2.6755,2.6971,2.7188,2.7464,2.7717,2.7717,2.8102,2.8462,2.8246,2.8354,2.851,2.851,2.851,2.851,2.851,2.851,2.851,2.851,2.851,2.851,2.851,2.851,2.851,2.851,2.851,2.851,2.851,2.851,2.851,2.851,2.851,2.851,2.851,2.851,2.8431,2.8351,2.8259,2.8179,2.803,2.7696,2.7441,2.7371,2.7219,2.7231,2.7231,2.7231,2.7231,2.7231,2.7231,2.7231,2.7285,0.0,0.0,0.0,0.0,0.0,0.0,0.0,0.0,3.2348,0.0,3.1918,3.2564,3.215,3.1742,3.188,3.147,3.1184,3.1182,3.0788,3.0473,3.0417,3.0417,3.0178,2.9549,2.949,2.946,2.94,2.8846,2.8502,2.8502,2.7919,2.7625,2.7625,2.7625,2.7524,2.7401,2.7284,2.713,2.7003,2.6326,2.603,2.6129,2.7709,2.809,2.7547,2.8166,2.8101,2.7538,2.822,2.8492,2.8492,2.8492,2.7959,2.7284,2.7867,2.7392,2.642,2.6589,2.6797,2.6914,2.6346,2.6514,2.7095,2.7577,2.7758,2.7794,2.7794,2.8144,2.8397,2.7849,2.8041,2.8366,2.8366,2.8438,2.851,2.851,2.851,2.851,2.851,2.851,2.851,2.851,2.851,2.851,2.851,2.851,2.851,2.851,2.851,2.851,2.851,2.851,2.851,2.851,2.851,2.851,2.851,2.8339,2.8179,2.8179,2.7765,2.7452,2.7231,2.7231,2.7231,2.7231,2.7231,2.7231,2.7313,2.7231,2.7231,0.0,2.7971,0.0,0.0,0.0,0.0,0.0,0.0,0.0,3.0957,3.1769,3.2497,3.2646,3.2564,3.2319,3.1962,3.1789,3.1437,3.0603,3.0424,3.0228,2.9828,2.9774,2.952,2.8876,2.8816,2.8592,2.809,2.7874,2.785,2.785,2.77,2.7625,2.7625,2.7625,2.7575,2.7575,2.7321,2.7181,2.713,2.6765,2.6866,2.7302,2.6692,2.654,2.6837,2.752,2.7714,2.7628,2.8251,2.8492,2.8492,2.8492,2.8106,2.7659,2.8598,2.802,2.6829,2.7713,2.7886,2.7693,2.7003,2.725,2.7865,2.7989,2.8325,2.8662,2.8662,2.8749,2.8672,2.7895,2.75,2.7272,2.7272,2.7909,2.851,2.851,2.851,2.851,2.851,2.851,2.851,2.851,2.851,2.851,2.851,2.851,2.851,2.851,2.851,2.851,2.851,2.851,2.851,2.851,2.851,2.851,2.851,2.8431,2.8271,2.7962,2.7696,2.7522,2.7441,2.7301,2.7231,2.7231,2.7231,2.7464,2.7938,2.7464,2.7464,0.0,0.0,0.0,0.0,0.0,0.0,0.0,0.0,3.079,3.0692,3.149,3.2166,3.2166,3.2166,3.2078,3.181,3.1274,3.0794,3.0542,3.0111,2.9735,2.9492,2.926,2.8846,2.8173,2.8113,2.7964,2.7655,2.7625,2.7625,2.7625,2.7625,2.7625,2.7625,2.7625,2.7575,2.7473,2.7386,2.7233,2.7093,2.6937,2.7021,2.7248,2.7187,2.6998,2.6717,2.7396,2.7639,2.7678,2.8339,2.8588,2.8553,2.8906,2.8415,2.7762,2.8793,2.8544,2.7884,2.8685,2.9117,2.9308,2.8684,2.8921,2.9346,2.8987,2.9038,2.9151,2.8521,2.8307,2.8169,2.7481,2.714,2.6995,2.7248,2.7536,2.7825,2.8077,2.8138,2.821,2.8462,2.851,2.851,2.851,2.851,2.851,2.851,2.851,2.851,2.851,2.851,2.851,2.851,2.851,2.851,2.851,2.851,2.851,2.851,2.8351,2.8122,2.7893,2.7545,2.7371,2.7371,2.7219,2.7383,2.7708,2.7708,2.8007,2.8633,2.8235,2.8315,0.0,0.0,0.0,0.0,0.0,0.0,0.0,0.0,3.1015,3.0912,3.1191,3.1437,3.1437,3.1437,3.1394,3.1394,3.0549,3.0092,3.0542,2.9927,2.9314,2.9166,2.8794,2.8291,2.767,2.7625,2.7625,2.7625,2.7625,2.7625,2.7625,2.7625,2.7625,2.7625,2.7625,2.7524,2.7452,2.7401,2.7358,2.7217,2.7267,2.7156,2.6823,2.7984,2.788,2.675,2.747,2.7743,2.7673,2.8489,2.8771,2.8669,2.9228,2.8693,2.7734,2.8684,2.8865,2.8772,2.9283,3.0092,3.0673,3.0012,3.0206,3.0594,3.0075,2.9781,2.9539,2.8565,2.8013,2.7629,2.7043,2.6791,2.6767,2.72,2.6971,2.6851,2.756,2.7789,2.7957,2.8306,2.845,2.851,2.851,2.851,2.851,2.851,2.851,2.851,2.851,2.851,2.851,2.851,2.851,2.851,2.851,2.851,2.851,2.851,2.8283,2.8122,2.8042,2.7788,2.7534,2.7534,2.7464,2.7708,2.8327,2.8327,2.8633,2.9238,2.916,2.916,0.0,0.0,0.0,0.0,0.0,0.0,0.0,0.0,3.1411,0.0,3.0857,3.0842,3.0842,3.0717,3.0659,3.0659,3.0492,3.029,2.9983,2.9806,2.943,2.8539,2.8394,2.8134,2.7625,2.7625,2.7625,2.7625,2.7625,2.7625,2.7625,2.7625,2.7625,2.7625,2.7625,2.7575,2.7575,2.7437,2.7683,2.8195,2.8527,2.7988,2.6808,2.7534,2.7451,2.6833,2.7469,2.7677,2.7779,2.8987,2.9175,2.8684,2.8774,2.8367,2.7777,2.8468,2.858,2.8365,2.9226,2.9874,3.0142,2.9093,2.9188,2.9999,3.0594,3.0215,2.9833,3.0353,2.9262,2.7866,2.7097,2.6226,2.554,2.5612,2.5576,2.5937,2.7404,2.8089,2.8294,2.7897,2.8198,2.851,2.851,2.851,2.851,2.851,2.851,2.851,2.851,2.851,2.851,2.851,2.851,2.851,2.851,2.851,2.851,2.851,2.8749,2.8895,2.8724,2.8949,2.9028,2.8846,2.8315,2.8407,2.9015,2.9015,2.9328,2.9883,2.9316,2.9394,0.0,0.0,0.0,0.0,0.0,0.0,0.0,0.0,3.0819,3.1027,3.0935,3.0855,3.0831,3.0773,3.0692,3.0609,3.0609,3.051,3.0241,2.9984,2.9528,2.8826,2.8496,2.811,2.766,2.7625,2.7625,2.7625,2.7625,2.7625,2.7625,2.7625,2.7625,2.7625,2.7625,2.7625,2.7625,2.7524,2.7637,2.7832,2.7851,2.753,2.6913,2.7447,2.7389,2.6794,2.6734,2.6885,2.72,2.7783,2.7855,2.7613,2.7933,2.7926,2.7729,2.7921,2.8563,2.9445,3.0137,3.095,3.1638,3.1449,3.1576,3.1882,3.1636,3.1341,3.097,3.0367,2.92,2.7913,2.7148,2.6129,2.5384,2.5685,2.5745,2.5949,2.6659,2.7236,2.7729,2.8089,2.8354,2.851,2.851,2.851,2.851,2.851,2.851,2.851,2.851,2.851,2.851,2.851,2.851,2.851,2.851,2.851,2.851,2.851,2.8949,2.9238,2.916,2.9614,2.9922,2.9922,2.916,2.9015,2.9639,2.9639,2.996,3.0508,3.0266,3.0279,0.0,0.0,0.0,0.0,0.0,0.0,0.0,0.0,3.0231,0.0,3.0842,3.0796,3.0958,3.0952,3.0871,3.079,3.0733,3.0651,3.0551,3.0199,2.9793,2.9348,2.8919,2.8432,2.7845,2.776,2.771,2.7625,2.7625,2.7625,2.7625,2.7625,2.7625,2.7625,2.7625,2.7625,2.7625,2.779,2.7793,2.7654,2.7394,2.7217,2.7018,2.7326,2.7229,2.6794,2.6512,2.6521,2.6763,2.7116,2.7159,2.7004,2.7636,2.7911,2.7917,2.7609,2.8587,3.0197,3.0628,3.1466,3.2433,3.2891,3.2931,3.2775,3.2232,3.1928,3.1563,3.0594,2.941,2.8265,2.7631,2.6685,2.5947,2.6353,2.6451,2.6466,2.6323,2.6635,2.7212,2.8126,2.8414,2.851,2.851,2.851,2.851,2.851,2.851,2.851,2.851,2.851,2.851,2.851,2.851,2.851,2.851,2.851,2.851,2.851,2.9238,2.9601,2.9601,3.0291,3.067,3.0846,3.0012,2.9793,3.0279,3.0279,3.0508,3.0986,3.0986,3.0986,0.0,0.0,0.0,0.0,0.0,0.0,0.0,0.0,3.0019,3.0139,3.0159,3.0378,3.1072,3.1032,3.0912,3.0912,3.0773,3.0692,3.0692,3.0568,3.03,2.9793,2.975,2.9332,2.8352,2.824,2.8076,2.761,2.7625,2.7625,2.7625,2.7625,2.7625,2.7625,2.7625,2.7625,2.7625,2.8218,2.8495,2.8322,2.8201,2.7733,2.7018,2.6875,2.6823,2.6823,2.7364,2.7306,2.6871,2.8074,2.8204,2.7729,2.8363,2.8639,2.8581,2.801,2.8567,2.9665,3.0066,3.0408,3.0842,3.1235,3.118,3.1193,3.1856,3.1563,3.1106,3.1783,3.0578,2.9112,2.9112,2.8265,2.7417,2.7443,2.7456,2.7349,2.6955,2.6911,2.7103,2.7657,2.8174,2.851,2.851,2.851,2.851,2.851,2.851,2.851,2.851,2.851,2.851,2.851,2.851,2.851,2.851,2.851,2.851,2.851,2.9561,3.0241,3.0241,3.1097,3.1556,3.1556,3.1123,3.0911,3.0986,3.0986,3.0986,3.0986,3.0986,3.0986,0.0,0.0,0.0,0.0,0.0,2.8563,2.8928,2.9194,2.9521,2.9993,3.048,3.0886,3.114,3.1151,3.1072,3.0992,3.0935,3.0855,3.0831,3.0692,3.0468,2.9968,2.9572,2.9058,2.8384,2.8027,2.7795,2.761,2.7625,2.7625,2.7625,2.7625,2.7625,2.7625,2.7625,2.7625,2.7625,2.7814,2.7934,2.7882,2.7728,2.7469,2.7159,2.7398,2.7263,2.6823,2.7461,2.7374,2.6823,2.7273,2.7331,2.72,2.7779,2.8338,2.8681,2.844,2.916,3.0232,3.0377,3.0941,3.174,3.2165,3.2429,3.269,3.2846,3.2704,3.2321,3.1697,3.078,2.9734,2.8878,2.8059,2.7484,2.7484,2.7484,2.7455,2.7334,2.7701,2.8149,2.8334,2.8451,2.851,2.851,2.851,2.851,2.851,2.851,2.851,2.851,2.851,2.851,2.851,2.851,2.851,2.851,2.8961,2.925,2.925,3.0683,3.1502,3.1502,3.2273,3.2574,3.2345,3.2128,3.1703,3.0986,3.0986,3.0986,3.0986,3.0986,3.0986,0.0,0.0,0.0,0.0,0.0,2.8096,2.8405,0.0,2.8767,2.9553,3.0108,3.0598,3.1106,3.119,3.119,3.1072,3.1015,3.0975,3.0952,3.0831,3.0651,3.0326,2.9924,2.9422,2.8904,2.8543,2.8222,2.7845,2.7845,2.776,2.7625,2.7625,2.7625,2.7625,2.7799,2.8023,2.8248,2.8248,2.8248,2.8248,2.7935,2.7558,2.7299,2.7556,2.7369,2.6861,2.7283,2.7224,2.6808,2.7012,2.7099,2.7186,2.8028,2.8623,2.9015,2.9232,2.9987,3.0916,3.1148,3.1806,3.2594,3.3159,3.3457,3.3675,3.3536,3.3466,3.3185,3.2041,3.1282,3.0473,2.9309,2.8651,2.8208,2.8208,2.8208,2.8208,2.8208,2.8604,2.8821,2.8612,2.8986,2.9106,2.8578,2.8736,2.8803,2.851,2.8736,2.8882,2.8882,2.9106,2.9328,2.9328,2.9328,2.9328,2.9328,2.9781,3.0075,3.0075,3.1341,3.2074,3.2074,3.2775,3.3002,3.2704,3.2561,3.2055,3.1198,3.1198,3.1198,3.1198,3.1061,3.0986,0.0,0.0,0.0,0.0,0.0,0.0,2.7954,0.0,2.7975,2.8815,2.9011,2.9485,3.0903,3.119,3.119,3.119,3.1095,3.1015,3.1015,3.0952,3.0912,3.0912,3.0773,3.051,3.007,2.9881,2.9377,2.8384,2.8288,2.8125,2.7625,2.7625,2.7625,2.7625,2.8218,2.8876,2.9505,2.952,2.952,2.952,2.8755,2.801,2.7401,2.7284,2.713,2.7003,2.7003,2.6951,2.6837,2.7447,2.7639,2.777,2.9073,2.9566,2.9653,3.0306,3.0945,3.1584,3.2237,3.2746,3.3264,3.3869,3.3962,3.3868,3.3882,3.373,3.3449,3.2826,3.2069,3.1316,3.067,3.0052,2.9602,2.9602,2.9602,2.9602,2.9602,2.9402,2.9028,2.8192,2.9584,3.0342,2.8803,2.9263,2.9484,2.8657,2.9263,2.9704,2.9704,3.0443,3.0895,3.0895,3.0895,3.0895,3.0895,3.0895,3.097,3.097,3.1709,3.216,3.216,3.2547,3.2704,3.2704,3.2345,3.1982,3.1629,3.1629,3.1556,3.1556,3.1198,3.0986,2.9166,0.0,0.0,0.0,0.0,0.0,0.0,0.0,2.8539,2.8491,2.935,3.015,3.0349,3.0835,3.119,3.119,3.1151,3.1151,3.1151,3.1072,3.0975,3.0975,3.0535,3.0225,3.0081,2.9613,2.9118,2.8511,2.8352,2.8125,2.7625,2.7625,2.7625,2.7625,2.7754,2.7949,2.8128,2.8128,2.8128,2.8128,2.7949,2.7652,2.7401,2.735,2.7284,2.713,2.7055,2.7003,2.6966,2.7035,2.7041,2.7128,2.794,2.826,2.839,2.9479,3.0292,3.0858,3.1047,3.1719,3.2464,3.2651,3.2944,3.3268,3.3754,3.3485,3.2986,3.2359,3.1602,3.0849,3.0024,2.9743,2.9602,2.9602,2.9602,2.9602,2.9602,2.9887,3.0023,2.9704,3.0013,3.0264,3.0227,3.0443,3.0519,3.0304,3.0443,3.0594,3.0594,3.0745,3.0895,3.0895,3.0895,3.0895,3.0895,3.1415,3.1783,3.1783,3.2547,3.2945,3.2945,3.3086,3.3157,3.3157,3.3016,3.2803,3.2417,3.185,3.1408,3.1123,3.1061,3.0986,0.0,0.0,0.0,0.0,0.0,0.0,2.8316,2.8469,2.8641,0.0,2.9238,2.9833,2.9845,3.0162,3.0496,3.0722,3.0734,3.0852,3.1157,3.1151,3.1095,3.1095,3.0699,3.0393,3.0208,2.9848,2.9406,2.8919,2.8638,2.8271,2.779,2.7675,2.7625,2.7675,2.791,2.8008,2.8008,2.8278,2.8278,2.8008,2.8008,2.7808,2.7488,2.7488,2.7386,2.7284,2.7196,2.7144,2.7093,2.6951,2.6846,2.6852,2.7476,2.7668,2.7857,2.945,3.0422,3.1047,3.1598,3.2376,3.3056,3.2796,3.2955,3.314,3.3269,3.2958,3.2462,3.1897,3.1062,3.0241,2.9763,2.9602,2.9602,2.9602,2.9602,2.9602,2.9602,2.9897,3.0062,2.9916,3.0308,3.0525,3.0197,3.0665,3.0897,3.0616,3.1035,3.1415,3.1415,3.1723,3.1869,3.1869,3.1869,3.1869,3.1869,3.2318,3.2618,3.2618,3.3016,3.3326,3.3326,3.3326,3.3326,3.3326,3.3326,3.3086,3.2704,3.2273,3.185,3.1408,3.1123,3.1061,0.0,0.0,0.0,0.0,2.8975,0.0,2.854,2.842,2.847,2.8823,2.8906,2.9004,2.928,2.9369,2.9504,2.9909,3.0057,3.0362,3.1089,3.119,3.119,3.119,3.1095,3.0871,3.0534,3.0458,3.0234,2.9781,2.9279,2.8793,2.8293,2.7981,2.7836,2.789,2.8276,2.8487,2.8487,2.9071,2.9071,2.8487,2.8524,2.821,2.7625,2.766,2.7575,2.7401,2.7401,2.7335,2.7181,2.7055,2.6951,2.689,2.7403,2.7665,2.794,2.9711,3.0814,3.1584,3.2832,3.3674,3.4109,3.3543,3.3369,3.3253,3.2687,3.2327,3.2011,3.1377,3.0525,2.9822,2.9665,2.9665,2.9602,2.9602,2.9602,2.9602,2.9602,2.9602,2.9568,2.937,3.0463,3.0973,2.9605,3.0395,3.0956,3.0243,3.1312,3.2136,3.2136,3.2818,3.3326,3.3326,3.3326,3.3326,3.3326,3.3326,3.3326,3.3326,3.3326,3.3326,3.3326,3.3326,3.3326,3.3326,3.3255,3.3086,3.2775,3.2704,3.2417,3.2055,3.1421,3.1347,0.0,0.0,0.0,0.0,2.9115,0.0,2.8839,2.8773,2.8662,2.8205,2.8564,2.8846,2.8373,2.8748,2.9153,2.9214,2.9702,3.0362,3.1089,3.119,3.119,3.119,3.119,3.1371,3.1864,3.1808,3.1774,3.19,3.1368,3.0752,3.0037,2.9609,2.9133,2.8527,2.8145,2.7936,2.7936,2.7955,2.7904,2.782,2.8191,2.8115,2.761,2.7978,2.7929,2.7524,2.7437,2.7335,2.7181,2.7055,2.7003,2.6966,2.6977,2.7273,2.7839,2.8724,2.9769,3.0872,3.1642,3.2338,3.2861,3.2745,3.2701,3.2687,3.2556,3.2086,3.1459,3.0686,3.0352,3.019,3.005,2.9898,2.9761,2.9761,2.9651,2.9602,2.9602,2.9602,2.9582,2.9568,3.0149,3.0737,3.0973,3.1235,3.1372,3.1237,3.1819,3.236,3.236,3.2863,3.3326,3.3326,3.3326,3.3326,3.3326,3.3326,3.3326,3.3326,3.3326,3.3326,3.3326,3.3326,3.3326,3.3326,3.3002,3.2931,3.3171,3.2489,3.22,3.2128,3.1909,3.1909,0.0,0.0,0.0,2.9427,2.916,0.0,0.0,2.8952,2.8839,2.8507,2.8711,2.8792,2.827,2.8376,2.857,2.8699,2.89,2.9454,3.0497,3.097,3.119,3.119,3.1512,3.1786,3.1934,3.2202,3.2337,3.2253,3.1614,3.1262,3.1225,3.0,2.9363,2.9611,2.8633,2.8286,2.8496,2.8432,2.8304,2.8042,2.8207,2.8076,2.7625,2.8076,2.8158,2.7978,2.814,2.7993,2.7645,2.7494,2.7408,2.7321,2.7203,2.7343,2.7733,2.9042,2.9982,3.0719,3.1678,3.2411,3.2867,3.2184,3.2019,3.1961,3.1642,3.1308,3.0913,3.0473,3.0312,3.0266,3.0111,3.0036,2.996,2.996,2.9913,2.9865,2.9865,2.9865,2.9789,2.9713,2.9953,3.0214,3.0488,3.0797,3.1007,3.1007,3.1541,3.1949,3.1949,3.2483,3.2862,3.2862,3.3143,3.3326,3.3326,3.3326,3.3326,3.3326,3.3326,3.3326,3.3326,3.3326,3.3326,3.3326,3.3086,3.3086,3.3326,3.2874,3.2731,3.2731,3.2286,3.22,3.0174,3.0445,3.0716,2.968,2.9379,2.9269,0.0,0.0,0.0,2.8929,2.8881,2.8725,2.8394,2.8047,2.7936,2.8149,2.8082,2.8405,2.9536,3.0349,3.0908,3.1157,3.1715,3.1999,3.1741,3.2523,3.2956,3.2725,3.2128,3.2015,3.2452,3.0747,3.0029,3.0585,2.9407,2.8826,2.898,2.9011,2.8841,2.8463,2.8543,2.8352,2.7894,2.8352,2.848,2.8336,2.8889,2.8748,2.8125,2.811,2.8061,2.7978,2.7615,2.7715,2.8237,2.9808,3.0614,3.1024,3.2254,3.2954,3.3201,3.221,3.1655,3.1419,3.0908,3.0687,3.0568,3.0553,3.0433,3.0326,3.0219,3.0172,3.0172,3.0172,3.0111,3.0111,3.0111,3.0111,3.0036,2.9884,2.9884,2.9822,2.9602,3.001,3.0347,3.0333,3.0895,3.1345,3.1537,3.2019,3.244,3.2567,3.3031,3.3326,3.3326,3.3326,3.3326,3.3326,3.3326,3.3326,3.3326,3.3326,3.3326,3.3326,3.3326,3.3326,3.3326,3.3326,3.3326,3.3241,3.2646,3.2503,3.0209,3.0662,3.0949,3.0047,3.0114,3.0222,2.9439,0.0,2.8929,2.8694,0.0,2.8507,2.812,0.0,0.0,2.7456,2.7805,2.81,2.8218,2.8846,2.9793,3.1038,3.1258,3.1562,3.2165,3.3499,3.4536,3.5166,3.511,3.4824,3.4257,3.357,3.2515,3.0907,3.007,2.9131,2.8137,2.8319,2.8384,2.8336,2.9196,2.9393,2.8935,2.9438,2.9134,2.8336,2.8889,2.8748,2.8125,2.8622,2.8904,2.8997,2.7898,2.8525,3.0017,3.0232,3.1106,3.2272,3.2955,3.323,3.3272,3.3138,3.2382,3.1468,3.1394,3.1029,3.0687,3.1204,3.097,3.0568,3.0582,3.0387,3.0266,3.0266,3.0158,3.0111,3.0111,3.0111,3.0111,3.005,3.005,2.9988,2.9665,2.9673,2.9763,2.986,3.0284,3.089,3.1584,3.2072,3.2609,3.3157,3.3283,3.3326,3.3326,3.3326,3.3326,3.3326,3.3326,3.3326,3.3326,3.3326,3.3326,3.3326,3.3326,3.3326,3.3326,3.3326,3.3326,3.3326,3.3185,3.3171,3.0949,3.1435,3.1817,3.144,3.1412,3.1345,3.0863,3.0327,2.9839,2.9582,0.0,0.0,0.0,0.0,0.0,0.0,2.8018,2.8101,2.8265,2.8559,2.9213,3.0459,3.0959,3.1478,3.2246,3.2966,3.3477,3.3694,3.3906,3.4193,3.4462,3.3677,3.2922,3.2309,3.1283,3.04,2.9677,2.9777,2.9629,2.9271,2.9661,2.9572,2.9136,2.9572,2.9572,2.9196,2.9705,2.9556,2.8996,2.9225,2.9348,2.9303,2.8795,2.9013,2.9701,3.0498,3.117,3.1789,3.2539,3.2989,3.3193,3.2894,3.2446,3.1992,3.1992,3.1823,3.1709,3.1936,3.1823,3.1652,3.1652,3.1595,3.1422,3.1073,3.097,3.0807,3.0462,3.0401,3.0341,3.0219,3.0219,3.0158,2.9927,2.9865,2.9927,2.9974,3.014,3.0537,3.129,3.1735,3.2224,3.2859,3.3185,3.3326,3.3326,3.3326,3.3326,3.3326,3.3326,3.3326,3.3326,3.3326,3.3326,3.3326,3.3326,3.3326,3.3326,3.3326,3.3326,3.3326,3.3326,3.3326,3.1408,3.1965,3.2473,3.2473,3.2522,3.2448,3.2042,3.1453,3.0958,3.0742,3.0042,0.0,0.0,0.0,2.8576,0.0,0.0,2.812,2.8325,2.8351,2.8737,2.9787,3.0506,3.119,3.1918,3.211,3.2168,3.2019,3.2475,3.3082,3.3837,3.3491,3.311,3.2856,3.2094,3.1318,3.0551,3.0634,3.0452,3.0011,3.0027,2.9853,2.9483,2.9853,2.9941,2.9853,3.03,3.0199,2.9673,2.9777,2.9777,2.9689,2.9689,2.9572,2.9569,3.0895,3.1548,3.1833,3.2625,3.3124,3.3371,3.2803,3.2641,3.2641,3.2641,3.2492,3.2437,3.2602,3.2492,3.2398,3.2398,3.2398,3.2272,3.1823,3.1766,3.1595,3.097,3.097,3.097,3.0493,3.0493,3.0568,3.028,3.0172,3.0111,3.0172,3.0111,3.0411,3.1274,3.1632,3.2085,3.2922,3.3267,3.3466,3.3396,3.3396,3.3396,3.3326,3.3326,3.3326,3.3326,3.3326,3.3326,3.3326,3.3326,3.3382,3.3507,3.3507,3.3507,3.3507,3.3382,3.3326,3.1197,3.2023,3.2691,3.2691,3.317,3.3429,3.2558,3.2204,3.205,3.205,3.1231,3.0541,3.0541,2.9475,0.0,0.0,0.0,0.0,0.0,2.8035,2.828,2.9038,2.9722,3.0429,3.1157,3.1258,3.1258,3.1241,3.1918,3.2341,3.2381,3.3711,3.3597,3.1696,3.2161,3.1548,2.9673,2.9935,3.0081,3.0027,3.0468,3.0609,3.0468,3.0468,3.0258,2.9853,3.03,3.0241,2.9853,3.03,3.0443,3.0359,3.0359,3.0274,3.0326,3.1662,3.2544,3.3145,3.3808,3.405,3.3984,3.3371,3.3182,3.3182,3.3182,3.2788,3.2492,3.3039,3.2788,3.2398,3.2398,3.2398,3.2398,3.2398,3.2398,3.2231,3.1595,3.1936,3.1992,3.0807,3.1087,3.1248,3.0687,3.028,3.0158,3.0266,3.0158,3.063,3.199,3.2033,3.2454,3.3725,3.3882,3.3827,3.3605,3.3605,3.3536,3.3326,3.3326,3.3326,3.3326,3.3326,3.3326,3.3326,3.3326,3.3577,3.407,3.407,3.407,3.4085,3.3507,3.3326,3.1335,3.2179,3.2957,3.3444,3.4129,3.4577,3.4149,3.3582,3.311,3.2935,3.1764,3.0806,3.0806,0.0,0.0,0.0,0.0,0.0,0.0,2.8165,2.8287,2.9008,3.0122,3.0647,3.0195,3.0606,3.0431,2.9204,3.0658,3.1642,3.1562,3.3423,3.3769,3.2101,3.2731,3.2269,3.0535,3.0658,3.0675,3.0609,3.0773,3.0773,3.0651,3.0651,3.0526,3.0258,3.0426,3.0426,3.03,3.0426,3.0485,3.0485,3.0485,3.0401,3.0497,3.1843,3.2439,3.2784,3.3844,3.4151,3.405,3.3866,3.3815,3.3815,3.3815,3.3662,3.3559,3.3764,3.3662,3.3523,3.3523,3.3523,3.3403,3.3002,3.2949,3.2788,3.2216,3.2287,3.216,3.1364,3.1364,3.1306,3.0687,3.0522,3.0462,3.0507,3.0462,3.0765,3.1618,3.1982,3.2442,3.3355,3.3708,3.3896,3.3827,3.3827,3.3937,3.437,3.3922,3.4113,3.4934,3.4031,3.3785,3.437,3.3785,3.3591,3.3785,3.4356,3.4543,3.4476,3.461,3.4356,3.1455,3.2066,3.2666,3.3417,3.4006,3.4419,3.456,3.4182,3.3842,3.3942,3.2619,3.1431,3.1431,0.0,0.0,0.0,0.0,0.0,0.0,2.8525,2.864,2.9358,3.0024,3.0088,2.9292,2.9676,2.9333,2.7743,2.9445,3.053,3.0451,3.2805,3.3465,3.1935,3.2882,3.2655,3.1072,3.1055,3.1032,3.0952,3.0952,3.0871,3.079,3.0733,3.0651,3.0568,3.0526,3.0526,3.0526,3.0526,3.0526,3.0526,3.0526,3.0485,3.0582,3.1961,3.2741,3.3268,3.4088,3.43,3.425,3.425,3.4201,3.4199,3.4509,3.454,3.4538,3.4813,3.4683,3.4489,3.4489,3.4295,3.3984,3.3594,3.3527,3.3371,3.2803,3.2857,3.2765,3.1992,3.1977,3.1905,3.1364,3.1263,3.1087,3.0687,3.0568,3.08,3.1438,3.1965,3.2551,3.3266,3.3768,3.402,3.3951,3.3965,3.421,3.489,3.452,3.4743,3.5743,3.4898,3.4543,3.4876,3.437,3.4113,3.4303,3.4876,3.5175,3.5355,3.5691,3.5563]},{"header":{"parameterUnit":"m.s-1","parameterCategory":1,"la1":30.6,"la2":29.2853,"lo1":-89.7004,"lo2":-87.6739,"dy":0.0162,"dx":0.0183,"nx":112,"ny":82,"refTime":"2023-05-26T12:00:00:Z","depth":0,"parameterNumber":3,"parameterNumberName":"V-component_of_WINDS"},"data":[0.0,0.0,0.0,0.0,0.0,0.0,0.0,0.0,0.0,0.0,0.0,0.0,0.0,0.0,0.0,0.0,0.0,0.0,0.0,0.0,0.0,0.0,0.0,0.0,0.0,0.0,0.0,0.0,0.0,0.0,0.0,0.0,0.0,0.0,0.0,0.0,0.0,0.0,0.0,0.0,0.0,0.0,0.0,0.0,0.0,0.0,0.0,0.0,0.0,0.0,0.0,0.0,0.0,0.0,0.0,0.0,0.0,0.0,0.0,0.0,0.0,0.0,0.0,0.0,0.0,0.0,0.0,0.0,0.0,0.0,0.0,0.0,0.0,0.0,0.0,0.0,0.0,0.0,0.0,0.0,0.0,0.0,0.0,0.0,0.0,0.0,0.0,0.0,0.0,0.0,-1.2489,-1.3312,-1.4364,-1.5088,-1.5215,-1.4914,-1.4521,-1.4107,0.0,0.0,0.0,0.0,0.0,0.0,0.0,0.0,0.0,0.0,0.0,0.0,0.0,0.0,0.0,0.0,0.0,0.0,0.0,0.0,0.0,0.0,0.0,0.0,0.0,0.0,0.0,0.0,0.0,0.0,0.0,0.0,0.0,0.0,0.0,0.0,0.0,0.0,0.0,0.0,0.0,0.0,0.0,0.0,0.0,0.0,0.0,0.0,0.0,0.0,0.0,0.0,0.0,0.0,0.0,0.0,0.0,0.0,0.0,0.0,0.0,0.0,0.0,0.0,0.0,0.0,0.0,0.0,0.0,0.0,0.0,0.0,0.0,0.0,0.0,0.0,0.0,0.0,0.0,0.0,0.0,0.0,0.0,0.0,0.0,0.0,0.0,0.0,0.0,0.0,0.0,0.0,0.0,0.0,0.0,0.0,0.0,0.0,0.0,0.0,0.0,0.0,0.0,0.0,-1.2903,-1.3626,-1.4592,-1.5205,-1.5362,-1.4632,-1.4209,-1.4087,0.0,0.0,0.0,0.0,0.0,0.0,0.0,0.0,0.0,0.0,0.0,0.0,0.0,0.0,0.0,0.0,0.0,0.0,0.0,0.0,0.0,0.0,0.0,0.0,0.0,0.0,0.0,0.0,0.0,0.0,0.0,0.0,0.0,0.0,0.0,0.0,0.0,0.0,0.0,0.0,0.0,0.0,0.0,0.0,0.0,0.0,0.0,0.0,0.0,0.0,0.0,0.0,0.0,0.0,0.0,0.0,0.0,0.0,0.0,0.0,0.0,0.0,0.0,0.0,0.0,0.0,0.0,0.0,0.0,0.0,0.0,0.0,0.0,0.0,0.0,0.0,0.0,0.0,0.0,0.0,0.0,0.0,0.0,0.0,0.0,0.0,0.0,0.0,0.0,0.0,0.0,0.0,0.0,0.0,0.0,0.0,0.0,0.0,0.0,0.0,0.0,0.0,0.0,-1.3362,-1.3659,-1.3521,-1.4582,-1.5158,-1.4754,-1.4273,-1.4033,-1.411,-1.35,0.0,0.0,0.0,0.0,0.0,0.0,0.0,0.0,0.0,0.0,0.0,0.0,0.0,0.0,0.0,0.0,0.0,0.0,0.0,0.0,0.0,0.0,0.0,0.0,0.0,0.0,0.0,0.0,0.0,0.0,0.0,0.0,0.0,0.0,0.0,0.0,0.0,0.0,0.0,0.0,0.0,0.0,0.0,0.0,0.0,0.0,0.0,0.0,0.0,0.0,0.0,0.0,0.0,0.0,0.0,0.0,0.0,0.0,0.0,0.0,0.0,0.0,0.0,0.0,0.0,0.0,0.0,0.0,0.0,0.0,0.0,0.0,0.0,0.0,0.0,0.0,0.0,0.0,0.0,0.0,0.0,0.0,0.0,0.0,0.0,0.0,0.0,0.0,0.0,0.0,0.0,0.0,0.0,0.0,0.0,0.0,0.0,0.0,0.0,0.0,0.0,0.0,-1.4093,-1.4343,-1.3613,-1.4603,-1.4971,-1.4269,-1.4121,-1.4046,-1.3973,-1.349,0.0,0.0,0.0,0.0,0.0,0.0,0.0,0.0,0.0,0.0,0.0,0.0,0.0,0.0,0.0,0.0,0.0,0.0,0.0,0.0,0.0,0.0,0.0,0.0,0.0,0.0,0.0,0.0,0.0,0.0,0.0,0.0,0.0,0.0,0.0,0.0,0.0,0.0,0.0,0.0,0.0,0.0,0.0,0.0,0.0,0.0,0.0,0.0,0.0,0.0,0.0,0.0,0.0,0.0,0.0,0.0,0.0,0.0,0.0,0.0,0.0,0.0,0.0,0.0,0.0,0.0,0.0,0.0,0.0,0.0,0.0,0.0,0.0,0.0,0.0,0.0,0.0,0.0,0.0,0.0,0.0,0.0,0.0,0.0,0.0,0.0,0.0,0.0,0.0,0.0,0.0,0.0,0.0,0.0,0.0,0.0,0.0,0.0,0.0,0.0,0.0,0.0,-1.4526,-1.4513,-1.4335,-1.4769,-1.4891,-1.451,-1.4512,-1.4234,-1.3557,-1.3955,0.0,0.0,0.0,0.0,0.0,0.0,0.0,0.0,0.0,0.0,0.0,0.0,0.0,0.0,0.0,0.0,0.0,0.0,0.0,0.0,0.0,0.0,0.0,0.0,0.0,0.0,0.0,0.0,0.0,0.0,0.0,0.0,0.0,0.0,0.0,0.0,0.0,0.0,0.0,0.0,0.0,0.0,0.0,0.0,0.0,0.0,0.0,0.0,0.0,0.0,0.0,0.0,0.0,0.0,0.0,0.0,0.0,0.0,0.0,0.0,0.0,0.0,0.0,0.0,0.0,0.0,0.0,0.0,0.0,0.0,0.0,0.0,0.0,0.0,0.0,0.0,0.0,0.0,0.0,0.0,0.0,0.0,0.0,0.0,0.0,0.0,0.0,0.0,0.0,0.0,0.0,0.0,0.0,0.0,0.0,0.0,0.0,0.0,0.0,0.0,0.0,0.0,-1.5004,-1.4925,-1.4333,-1.4891,-1.5059,-1.4369,-1.4587,-1.4601,-1.4398,0.0,0.0,0.0,0.0,0.0,0.0,0.0,0.0,0.0,0.0,0.0,0.0,0.0,0.0,0.0,0.0,0.0,0.0,0.0,0.0,0.0,0.0,0.0,0.0,0.0,0.0,0.0,0.0,0.0,0.0,0.0,0.0,0.0,0.0,0.0,0.0,0.0,0.0,0.0,0.0,0.0,0.0,0.0,0.0,0.0,0.0,0.0,0.0,0.0,0.0,0.0,0.0,0.0,0.0,0.0,0.0,0.0,0.0,0.0,0.0,0.0,0.0,0.0,0.0,0.0,0.0,0.0,0.0,0.0,0.0,0.0,0.0,0.0,0.0,0.0,0.0,0.0,0.0,0.0,0.0,0.0,0.0,0.0,0.0,0.0,0.0,0.0,0.0,0.0,0.0,0.0,0.0,0.0,0.0,0.0,0.0,0.0,0.0,0.0,0.0,0.0,0.0,-1.513,-1.5406,-1.533,-1.4553,-1.5078,-1.5192,-1.4429,-1.4784,-1.4937,-1.4743,0.0,0.0,0.0,0.0,0.0,0.0,0.0,0.0,0.0,0.0,0.0,0.0,0.0,0.0,0.0,0.0,0.0,0.0,0.0,0.0,0.0,0.0,0.0,0.0,0.0,0.0,0.0,0.0,0.0,0.0,0.0,0.0,0.0,0.0,0.0,0.0,0.0,0.0,0.0,0.0,0.0,0.0,0.0,0.0,0.0,0.0,0.0,0.0,0.0,0.0,0.0,0.0,0.0,0.0,0.0,0.0,0.0,0.0,0.0,0.0,0.0,0.0,0.0,0.0,0.0,0.0,0.0,0.0,0.0,0.0,0.0,0.0,0.0,0.0,0.0,0.0,0.0,0.0,0.0,0.0,0.0,0.0,0.0,0.0,0.0,0.0,0.0,0.0,0.0,0.0,0.0,0.0,0.0,0.0,0.0,0.0,0.0,0.0,0.0,0.0,0.0,0.0,-1.5513,-1.5647,-1.5614,-1.5153,-1.5334,-1.5277,-1.4755,-1.5175,-1.5175,0.0,0.0,0.0,0.0,0.0,0.0,0.0,0.0,0.0,0.0,0.0,0.0,0.0,0.0,0.0,0.0,0.0,0.0,0.0,0.0,0.0,0.0,0.0,0.0,0.0,0.0,0.0,0.0,0.0,0.0,0.0,0.0,0.0,0.0,0.0,0.0,0.0,0.0,0.0,0.0,0.0,0.0,0.0,0.0,0.0,0.0,0.0,0.0,0.0,0.0,0.0,0.0,0.0,0.0,0.0,0.0,0.0,0.0,0.0,0.0,0.0,0.0,0.0,0.0,0.0,0.0,0.0,0.0,0.0,0.0,0.0,0.0,0.0,0.0,0.0,0.0,0.0,0.0,0.0,0.0,0.0,0.0,0.0,0.0,0.0,0.0,0.0,0.0,0.0,0.0,0.0,0.0,0.0,0.0,0.0,0.0,0.0,0.0,0.0,0.0,0.0,0.0,0.0,-1.5513,-1.5558,-1.5468,-1.5153,-1.5334,-1.5424,-1.5277,-1.5558,-1.5603,-1.5367,0.0,0.0,0.0,0.0,0.0,0.0,0.0,0.0,0.0,0.0,0.0,0.0,0.0,0.0,0.0,0.0,0.0,0.0,0.0,0.0,0.0,0.0,0.0,0.0,0.0,0.0,0.0,0.0,0.0,0.0,0.0,0.0,0.0,0.0,0.0,0.0,0.0,0.0,0.0,0.0,0.0,0.0,0.0,0.0,0.0,0.0,0.0,0.0,0.0,0.0,0.0,0.0,0.0,0.0,0.0,0.0,0.0,0.0,0.0,0.0,0.0,0.0,0.0,0.0,0.0,0.0,0.0,0.0,0.0,0.0,0.0,0.0,0.0,0.0,0.0,0.0,0.0,0.0,0.0,0.0,0.0,0.0,0.0,0.0,0.0,0.0,0.0,0.0,0.0,0.0,0.0,0.0,0.0,0.0,0.0,0.0,0.0,0.0,0.0,0.0,0.0,0.0,-1.5379,-1.5424,-1.5424,-1.5289,-1.5468,-1.5603,-1.5603,-1.5748,-1.5792,-1.5792,0.0,0.0,0.0,0.0,0.0,0.0,0.0,0.0,0.0,0.0,0.0,0.0,0.0,0.0,0.0,0.0,0.0,0.0,0.0,0.0,0.0,0.0,0.0,0.0,0.0,0.0,0.0,0.0,0.0,0.0,0.0,0.0,0.0,0.0,0.0,0.0,0.0,0.0,0.0,0.0,0.0,0.0,0.0,0.0,0.0,0.0,0.0,0.0,0.0,0.0,0.0,0.0,0.0,0.0,0.0,0.0,0.0,0.0,0.0,0.0,0.0,0.0,0.0,0.0,0.0,0.0,0.0,0.0,0.0,0.0,0.0,0.0,0.0,0.0,0.0,0.0,0.0,0.0,0.0,0.0,0.0,0.0,0.0,0.0,0.0,0.0,0.0,0.0,0.0,0.0,0.0,0.0,0.0,0.0,0.0,0.0,0.0,0.0,0.0,0.0,0.0,0.0,-1.5256,-1.5449,-1.5608,-1.5655,-1.5846,-1.5936,-1.5936,-1.5936,-1.5936,-1.5936,0.0,0.0,0.0,0.0,0.0,0.0,0.0,0.0,0.0,0.0,0.0,0.0,0.0,0.0,0.0,0.0,0.0,0.0,0.0,0.0,0.0,0.0,0.0,0.0,0.0,0.0,0.0,0.0,0.0,0.0,0.0,0.0,0.0,0.0,0.0,0.0,0.0,0.0,0.0,0.0,0.0,0.0,0.0,0.0,0.0,0.0,0.0,0.0,0.0,0.0,0.0,0.0,0.0,0.0,0.0,0.0,0.0,0.0,0.0,0.0,-1.1902,-1.2076,0.0,0.0,0.0,0.0,0.0,0.0,0.0,0.0,0.0,0.0,0.0,0.0,0.0,0.0,0.0,0.0,0.0,0.0,0.0,0.0,0.0,0.0,0.0,0.0,0.0,0.0,0.0,0.0,0.0,0.0,0.0,0.0,0.0,0.0,0.0,0.0,0.0,0.0,0.0,0.0,-1.6021,-1.6219,-1.6478,-1.6716,-1.6943,-1.7075,-1.7075,-1.7075,-1.7075,-1.7075,-1.6644,0.0,0.0,0.0,0.0,0.0,0.0,0.0,0.0,0.0,0.0,0.0,0.0,0.0,0.0,0.0,0.0,0.0,0.0,0.0,0.0,0.0,0.0,0.0,0.0,0.0,0.0,0.0,0.0,0.0,0.0,0.0,0.0,0.0,0.0,0.0,0.0,0.0,0.0,0.0,0.0,0.0,0.0,0.0,0.0,0.0,0.0,0.0,0.0,0.0,0.0,0.0,0.0,0.0,0.0,0.0,0.0,0.0,0.0,0.0,-1.2576,-1.2076,0.0,0.0,0.0,0.0,0.0,0.0,0.0,0.0,0.0,0.0,0.0,0.0,0.0,0.0,0.0,0.0,0.0,0.0,0.0,0.0,0.0,0.0,0.0,0.0,0.0,0.0,0.0,0.0,0.0,0.0,0.0,0.0,0.0,0.0,0.0,0.0,0.0,0.0,0.0,0.0,-1.6645,-1.6776,-1.6931,-1.7205,-1.7326,-1.7412,-1.7412,-1.7412,-1.7412,-1.7412,-1.7159,0.0,0.0,0.0,0.0,0.0,0.0,0.0,0.0,0.0,0.0,0.0,0.0,0.0,0.0,0.0,0.0,0.0,0.0,0.0,0.0,0.0,0.0,0.0,0.0,0.0,0.0,0.0,0.0,0.0,0.0,0.0,0.0,0.0,0.0,0.0,0.0,0.0,0.0,0.0,0.0,0.0,0.0,0.0,0.0,0.0,0.0,0.0,0.0,0.0,0.0,0.0,0.0,0.0,-1.5314,-1.5746,-1.6114,-1.6114,-1.6114,-1.5975,-1.3758,-1.272,-1.2538,-1.2538,0.0,0.0,0.0,0.0,0.0,0.0,0.0,0.0,0.0,0.0,0.0,0.0,0.0,0.0,0.0,0.0,0.0,0.0,0.0,0.0,0.0,0.0,-1.7015,-1.7448,-1.7953,-1.8338,-1.8338,0.0,0.0,0.0,0.0,0.0,0.0,0.0,0.0,0.0,0.0,0.0,-1.7507,-1.7519,-1.7604,-1.7873,-1.7836,-1.7787,-1.7787,-1.7738,-1.7688,-1.7688,-1.7604,-1.7592,0.0,0.0,0.0,0.0,0.0,0.0,0.0,0.0,0.0,0.0,0.0,0.0,0.0,0.0,0.0,0.0,0.0,0.0,0.0,0.0,0.0,0.0,0.0,0.0,0.0,0.0,0.0,0.0,0.0,0.0,0.0,0.0,-1.3716,-1.3678,0.0,0.0,0.0,0.0,0.0,0.0,0.0,0.0,0.0,0.0,0.0,0.0,0.0,-1.4639,-1.5057,-1.5568,-1.5879,-1.593,-1.5991,-1.6053,-1.6114,-1.6114,-1.6114,-1.6093,-1.5746,0.0,-1.4353,-1.4353,0.0,0.0,0.0,0.0,0.0,0.0,0.0,0.0,0.0,0.0,0.0,0.0,0.0,0.0,0.0,0.0,0.0,0.0,0.0,0.0,0.0,0.0,-1.8013,-1.8085,-1.8506,-1.8891,-1.8891,-1.8891,-1.8903,-1.8975,-1.9303,-1.9488,0.0,0.0,0.0,0.0,0.0,0.0,-1.8989,-1.9113,-1.9268,-1.975,-1.9495,-1.929,-1.929,-1.8992,-1.8782,-1.8782,-1.835,-1.8301,-1.8758,-1.8338,0.0,0.0,0.0,0.0,0.0,0.0,0.0,0.0,0.0,0.0,0.0,0.0,0.0,0.0,0.0,0.0,0.0,0.0,0.0,0.0,0.0,0.0,0.0,0.0,0.0,0.0,0.0,0.0,0.0,-1.4222,-1.4355,-1.3852,-1.4031,-1.3928,0.0,0.0,0.0,0.0,0.0,0.0,0.0,0.0,0.0,-1.4722,-1.545,-1.5891,-1.6144,-1.6853,-1.727,-1.7584,-1.785,-1.8116,-1.8382,-1.8382,-1.8382,-1.8299,-1.8094,-1.7594,-1.6857,-1.5636,-1.4783,-1.4398,0.0,0.0,0.0,0.0,-1.6458,-1.6854,-1.7294,-1.7659,-1.7934,-1.7639,0.0,0.0,0.0,0.0,0.0,0.0,0.0,-1.7544,-1.8145,-1.8253,-1.8277,-1.8578,-1.9259,-1.9765,-1.9417,-1.98,-2.003,-1.947,-1.946,-1.9668,-1.9926,-1.9724,0.0,0.0,0.0,-1.9382,-1.981,-1.9848,-1.9951,-2.0156,-2.0029,-1.9926,-1.9926,-1.9565,-1.946,-1.9668,-1.9031,-1.8903,-1.9436,-1.9031,-1.8979,0.0,0.0,0.0,0.0,0.0,0.0,0.0,0.0,0.0,0.0,0.0,0.0,0.0,0.0,0.0,0.0,0.0,0.0,0.0,0.0,0.0,0.0,0.0,0.0,0.0,0.0,0.0,0.0,-1.4799,-1.4822,-1.4063,-1.4355,-1.4395,0.0,0.0,0.0,0.0,0.0,0.0,-1.5009,-1.5488,-1.5859,-1.6057,-1.6789,-1.7259,-1.7387,-1.8116,-1.872,-1.9069,-1.943,-1.9726,-2.0085,-2.0205,-2.0325,-2.0314,-1.9943,-1.9517,-1.8899,-1.7043,-1.5974,-1.5589,-1.5954,-1.6267,-1.6579,-1.7375,-1.7901,-1.8324,-1.8939,-1.9245,-1.9348,-1.8951,-1.8987,-1.9023,-1.8097,0.0,0.0,0.0,0.0,-1.828,-1.9303,-1.9308,-1.9101,-1.9662,-2.0337,-2.0781,-2.0326,-2.0663,-2.0847,-1.9924,-1.9862,-2.0016,-2.0321,-2.0372,0.0,-2.0472,-2.0552,-2.0604,-2.0744,-2.0874,-2.0978,-2.0978,-2.0733,-2.0604,-2.0604,-2.0054,-1.9823,-2.0029,-1.946,-1.9303,-1.9604,-1.9503,-1.9523,-1.9828,0.0,0.0,0.0,0.0,0.0,0.0,0.0,0.0,0.0,0.0,0.0,0.0,0.0,0.0,0.0,0.0,0.0,0.0,0.0,0.0,0.0,0.0,0.0,0.0,0.0,0.0,0.0,0.0,0.0,-1.4439,-1.4762,0.0,0.0,0.0,0.0,-1.5676,-1.6112,-1.6426,-1.6395,-1.6929,-1.742,-1.7854,-1.8322,-1.884,-1.9247,-1.9737,-1.9987,-2.0009,-2.0031,-2.0053,-2.0096,-2.062,-2.0895,-2.0895,-2.0795,-2.0511,-1.9933,-1.8931,-1.8256,-1.7886,-1.8311,-1.8545,-1.8605,-1.9258,-1.9505,-1.9622,-2.0272,-2.0538,-2.0538,-2.0502,-2.0153,-1.9636,-1.9083,-1.8915,0.0,0.0,-1.9684,-1.9891,-2.0897,-2.1188,-2.1274,-2.1754,-2.1889,-2.1902,-2.1876,-2.1465,-2.0899,-2.0284,-2.0472,-2.0759,-2.0746,0.0,-2.0908,-2.1264,-2.1512,-2.1756,-2.2163,-2.2677,-2.3041,-2.3041,-2.2205,-2.1615,-2.1615,-2.0746,-2.0029,-1.9668,-1.9617,-1.9473,-1.9223,-1.9685,-2.0116,-2.0478,-2.0503,0.0,0.0,0.0,0.0,0.0,0.0,0.0,0.0,0.0,0.0,0.0,0.0,0.0,0.0,0.0,0.0,0.0,0.0,0.0,0.0,0.0,0.0,0.0,0.0,0.0,0.0,0.0,0.0,-1.5771,-1.6481,0.0,-1.6535,-1.6503,-1.6579,-1.6754,-1.6918,-1.7147,-1.7464,-1.7923,-1.8414,-1.8905,-1.967,-2.0019,-1.9824,-2.0369,-2.0456,-2.0085,-2.0085,-2.0085,-2.0085,-2.0325,-2.0402,-2.0413,-2.0729,-2.0762,-2.0598,-2.0566,-1.9725,-1.8469,-1.8622,-1.8808,-1.8977,-1.9216,-1.9572,-1.9983,-2.0181,-2.0413,-2.0586,-2.061,-2.0478,-2.0342,-2.0447,-2.0496,-2.0588,-2.1049,-2.1222,-2.1314,-2.1682,-2.1733,-2.1788,-2.1953,-2.2499,-2.2847,-2.2481,-2.275,-2.2871,-2.2233,-2.1438,-2.0908,-2.1166,-2.1524,-2.183,-2.1943,-2.2355,-2.2708,-2.285,-2.3053,-2.3189,-2.3189,-2.2881,-2.2655,-2.2655,-2.2075,-2.1786,-2.1904,-2.1416,-2.1362,-2.1799,-2.1757,-2.1753,-2.1712,-2.2441,-2.2395,0.0,0.0,0.0,0.0,0.0,0.0,0.0,0.0,0.0,0.0,0.0,0.0,0.0,0.0,0.0,0.0,0.0,0.0,0.0,0.0,0.0,0.0,0.0,0.0,0.0,0.0,-1.6721,-1.6667,-1.7581,-1.8054,-1.7494,-1.7802,-1.7999,-1.7999,-1.8305,-1.8622,-1.8949,-1.9408,-1.9812,-2.014,-2.0773,-2.0959,-2.0631,-2.0784,-2.0697,-2.038,-2.0162,-2.0205,-2.0464,-2.0797,-2.1073,-2.1348,-2.1924,-2.2139,-2.2151,-2.2309,-2.1583,-2.037,-1.9725,-1.9544,-1.9709,-1.9778,-2.0087,-2.0521,-2.0926,-2.1267,-2.158,-2.142,-2.1313,-2.1391,-2.1518,-2.1567,-2.166,-2.2129,-2.2433,-2.2588,-2.2756,-2.2942,-2.3102,-2.3018,-2.3503,-2.3912,-2.3512,-2.3756,-2.4001,-2.3554,-2.2506,-2.1706,-2.1984,-2.2359,-2.2617,-2.2617,-2.3146,-2.3473,-2.3473,-2.3662,-2.3784,-2.3784,-2.3608,-2.3473,-2.3473,-2.3071,-2.2844,-2.2964,-2.251,-2.2456,-2.3056,-2.3031,-2.2949,-2.299,-2.374,-2.3421,-2.2082,0.0,0.0,0.0,0.0,0.0,0.0,0.0,0.0,0.0,0.0,0.0,0.0,0.0,0.0,0.0,0.0,0.0,0.0,0.0,0.0,0.0,0.0,0.0,-1.6493,-1.7005,-1.7288,-1.714,-1.8089,-1.8529,-1.7884,-1.8805,-1.9484,-1.9484,-2.0336,-2.0939,-2.095,-2.1319,-2.157,-2.1592,-2.1673,-2.1662,-2.1629,-2.118,-2.0995,-2.0962,-2.0446,-2.054,-2.1181,-2.2246,-2.3089,-2.3713,-2.4333,-2.4575,-2.4538,-2.4074,-2.3857,-2.3676,-2.1722,-2.1017,-2.1018,-2.1194,-2.1267,-2.1458,-2.2567,-2.3271,-2.3572,-2.3007,-2.2814,-2.2724,-2.2227,-2.206,-2.2176,-2.2716,-2.3296,-2.3852,-2.4261,-2.4786,-2.5196,-2.5054,-2.5032,-2.5032,-2.5005,-2.4557,-2.415,-2.415,-2.3635,-2.3229,-2.3189,-2.3202,-2.3216,-2.3216,-2.3717,0.0,-2.415,-2.4652,-2.5005,-2.5005,-2.4489,-2.415,-2.415,-2.3568,-2.3071,-2.2683,-2.267,-2.2724,-2.2777,-2.3322,-2.3781,-2.415,-2.4173,-2.383,-2.331,0.0,0.0,0.0,0.0,0.0,0.0,0.0,0.0,0.0,0.0,0.0,0.0,0.0,0.0,0.0,0.0,0.0,0.0,0.0,0.0,0.0,0.0,-1.7475,-1.7125,-1.7969,-1.8703,-1.8975,-1.9932,-2.0539,-2.0342,-2.0704,-2.0992,-2.0992,-2.0915,-2.1081,-2.1374,-2.1177,-2.1221,-2.1581,-2.2461,-2.2559,-2.1744,-2.2495,-2.2503,-2.1764,-2.2086,-2.2332,-2.2472,-2.3191,-2.361,-2.3779,-2.4333,-2.4575,-2.4599,-2.4828,-2.4867,-2.4759,-2.3499,-2.2999,-2.2987,-2.3043,-2.332,-2.3722,-2.399,-2.4157,-2.4176,-2.3598,-2.3405,-2.3438,-2.3629,-2.3647,-2.3787,-2.4243,-2.453,-2.4758,-2.5289,-2.5576,-2.5729,-2.5683,-2.5643,-2.552,-2.51,-2.4883,-2.4761,-2.4761,-2.4639,-2.4245,-2.3337,-2.3541,-2.3879,-2.3879,-2.4381,-2.4761,-2.4761,-2.491,-2.5005,-2.5005,-2.4856,-2.4761,-2.4761,-2.4611,-2.4461,-2.435,-2.4336,-2.4558,-2.4996,-2.5149,-2.5518,-2.6069,-2.5218,-2.4883,0.0,0.0,0.0,0.0,0.0,0.0,0.0,0.0,0.0,0.0,0.0,0.0,0.0,0.0,0.0,0.0,0.0,0.0,0.0,0.0,0.0,0.0,-1.7943,-1.874,-1.8613,-1.9242,-1.9866,-2.0115,-2.1048,-2.1446,-2.1193,-2.181,-2.2237,-2.2369,-2.2011,-2.2158,-2.3072,-2.259,-2.2498,-2.3142,-2.356,-2.3512,-2.2893,-2.3442,-2.3376,-2.2763,-2.3152,-2.3502,-2.3772,-2.4312,-2.4756,-2.5043,-2.5553,-2.5802,-2.5827,-2.6083,-2.6208,-2.6052,0.0,0.0,0.0,0.0,-2.4603,-2.5192,-2.4874,-2.4936,-2.5024,-2.436,-2.4176,-2.4274,-2.4816,-2.4954,-2.5065,-2.5625,-2.5955,-2.6158,-2.6253,-2.647,-2.6592,-2.6348,-2.628,-2.6185,-2.5846,-2.5561,-2.5385,-2.5385,-2.5168,0.0,-2.4096,-2.4259,-2.4489,-2.4489,-2.4788,-2.5005,-2.5005,-2.5005,-2.5005,-2.5005,-2.5005,-2.5005,-2.5005,-2.5005,0.0,0.0,0.0,-2.5467,-2.6042,-2.6218,0.0,0.0,0.0,-2.5536,-2.5893,-2.5893,0.0,0.0,-2.6232,-2.6466,0.0,0.0,0.0,0.0,0.0,0.0,0.0,0.0,0.0,0.0,0.0,0.0,0.0,0.0,0.0,0.0,-1.9039,-2.0135,-2.0614,-2.0689,-2.0749,-2.0807,-2.1675,-2.1959,-2.1364,-2.2499,-2.3329,-2.3593,-2.334,-2.3806,-2.5229,-2.4577,0.0,0.0,0.0,-2.4611,-2.455,-2.4214,-2.4013,-2.3952,-2.4067,-2.4418,-2.5038,-2.562,-2.6217,-2.6804,-2.7301,-2.7523,-2.7523,-2.7523,-2.7523,-2.7338,-2.5605,-2.4944,-2.4951,-2.4978,-2.5525,-2.6228,-2.562,0.0,0.0,-2.5341,-2.5208,-2.5303,-2.5833,-2.5995,-2.6117,-2.666,-2.7203,-2.7501,-2.704,-2.7311,-2.7583,-2.7054,-2.6918,-2.6904,-2.6837,-2.6389,-2.5995,-2.5995,-2.5575,-2.5181,-2.5113,-2.5059,-2.5005,-2.5005,-2.5005,-2.5005,-2.5005,-2.5005,-2.5005,-2.5005,-2.5005,0.0,-2.51,-2.5046,-2.5032,-2.51,-2.541,-2.5743,-2.6297,-2.6592,-2.6553,-2.6002,-2.6002,-2.6002,-2.6002,-2.6002,-2.634,-2.7003,-2.713,-2.7233,0.0,0.0,0.0,0.0,0.0,0.0,0.0,0.0,0.0,0.0,0.0,0.0,0.0,0.0,0.0,-1.8685,-1.9895,-2.1252,-2.26,-2.2209,-2.1671,-2.1303,-2.2722,-2.3571,-2.3083,-2.416,-2.4909,-2.4944,-2.4564,-2.4564,-2.5288,-2.4821,-2.4785,-2.5288,-2.575,-2.5754,-2.5294,-2.5868,-2.5872,-2.5434,-2.5884,0.0,-2.6375,-2.6894,-2.722,-2.7366,-2.7471,-2.7523,-2.7523,-2.7523,-2.7523,-2.7443,-2.7059,-2.6953,-2.694,-2.7144,-2.7302,-2.7432,-2.699,-2.6966,-2.7031,-2.6391,-2.6337,-2.6484,-2.6606,-2.6647,0.0,-2.6796,-2.6904,-2.7081,-2.7447,-2.7623,-2.7678,-2.7556,-2.7542,-2.7406,-2.6932,-2.6728,-2.6647,-2.6647,-2.6552,-2.6307,-2.5805,-2.5317,-2.5005,-2.5005,-2.5005,-2.5005,-2.5005,-2.5005,-2.5005,-2.5005,-2.5005,-2.5208,-2.567,-2.5276,-2.5208,-2.5697,-2.5785,-2.5948,-2.6297,-2.6592,-2.6727,-2.6621,-2.6621,-2.6621,-2.6621,-2.6621,-2.6674,-2.6832,-2.7078,-2.7284,0.0,0.0,0.0,0.0,0.0,0.0,0.0,0.0,0.0,0.0,0.0,-1.7434,0.0,0.0,-1.9702,-2.0709,-2.1658,-2.2765,-2.4389,-2.4147,-2.3655,-2.3246,-2.356,-2.3828,-2.407,-2.4719,-2.537,-2.5791,-2.5269,-2.5371,-2.6333,-2.5809,-2.5785,-2.6414,-2.6489,-2.6409,-2.6114,-2.6531,-2.653,-2.6255,-2.6831,-2.7105,-2.7105,-2.7406,-2.7523,-2.7523,-2.7523,-2.7523,-2.7523,-2.7523,-2.7523,-2.7523,-2.7523,-2.759,-2.7656,-2.7789,-2.7855,-2.7855,-2.7349,-2.7264,-2.722,-2.6618,-2.6631,-2.6948,-2.7023,-2.7287,-2.7584,-2.7944,-2.8089,-2.822,-2.8519,-2.8587,-2.8519,-2.822,-2.8153,-2.8071,-2.7773,-2.7474,-2.7271,-2.7271,-2.7026,-2.6714,-2.6416,-2.6117,-2.571,-2.51,-2.5263,-2.5453,-2.5453,-2.5724,-2.5914,-2.5914,-2.5629,-2.5697,-2.6307,-2.5805,-2.5813,-2.6765,-2.6232,-2.6394,-2.7461,-2.706,-2.7084,-2.7723,-2.7418,-2.7258,-2.7258,-2.7578,-2.7671,-2.7524,-2.7939,-2.8015,0.0,0.0,0.0,0.0,0.0,0.0,0.0,0.0,-1.6634,-1.7733,-1.8622,-1.9383,-1.9902,-2.0736,-2.1776,-2.3029,-2.361,-2.4356,-2.5838,-2.5708,-2.5489,-2.5468,-2.4545,-2.4112,-2.4791,-2.5217,-2.5779,-2.6496,-2.607,-2.6289,-2.7456,-2.6905,-2.6905,-2.7469,-2.7079,-2.6844,-2.6844,-2.6844,-2.6844,-2.6844,-2.7301,-2.7523,-2.7523,-2.7523,-2.7523,-2.7523,-2.7523,-2.7523,-2.7523,-2.7523,-2.7523,-2.7523,-2.7523,-2.759,-2.7723,-2.7723,-2.7855,-2.7881,-2.7417,-2.7389,-2.7402,-2.6974,-2.7133,-2.752,-2.7611,-2.7994,-2.8462,-2.912,-2.9416,-2.9482,-2.9482,-2.9482,-2.9333,-2.8736,-2.8587,-2.8587,-2.8587,-2.822,-2.7931,-2.8056,-2.7536,-2.7183,-2.7289,-2.7168,-2.6633,-2.552,-2.5765,-2.6063,-2.6063,-2.6511,-2.6823,-2.6823,-2.6375,-2.6267,-2.6782,-2.653,-2.6744,-2.7647,-2.6863,-2.7044,-2.8637,-2.7694,-2.7636,-2.8652,-2.8173,-2.7911,-2.7926,-2.8434,-2.8572,-2.8292,-2.8994,-2.9005,-1.4493,-1.4373,-1.458,-1.5454,-1.5665,-1.6036,0.0,0.0,-1.8692,-1.9878,-1.9916,-2.0444,-2.2744,-2.28,-2.3063,-2.485,-2.5379,-2.5814,-2.6677,-2.5784,-2.5565,-2.6912,-2.6383,-2.5781,-2.5535,-2.6414,-2.7066,-2.7201,-2.7255,-2.7323,-2.7456,-2.739,-2.739,-2.7523,-2.7471,-2.7432,-2.7432,-2.7432,-2.7432,-2.7432,-2.7497,-2.7523,-2.7523,-2.7523,-2.7523,-2.7523,-2.7523,-2.7523,-2.7523,-2.7523,-2.7523,-2.7523,-2.7523,-2.7523,-2.7523,-2.7523,-2.7536,-2.759,-2.7458,-2.7919,-2.8556,-2.8678,-2.8826,-2.9013,-2.9212,-2.8967,-2.8709,-2.9306,-2.9482,-2.9482,-2.9482,-2.9482,-2.9333,-2.8736,-2.8587,-2.8587,-2.8587,-2.8546,-2.8671,-2.9171,-2.8779,-2.8573,-2.9172,-2.834,-2.7379,-2.6714,-2.6674,-2.6714,-2.6714,-2.6782,-2.6823,-2.6823,-2.6755,-2.6755,-2.6809,-2.7489,-2.7834,-2.7703,-2.7825,-2.8168,-2.8666,-2.8536,-2.8536,-2.8681,-2.8608,-2.8579,-2.8579,-2.8637,-2.8693,-2.865,-2.956,-2.9796,-1.5188,-1.5586,-1.6121,0.0,-1.7393,-1.8374,-1.9245,-2.0197,-2.1225,-2.2468,-2.3183,-2.3869,-2.4861,-2.5227,-2.5666,0.0,-2.6883,-2.7256,-2.7951,-2.7066,-2.6296,-2.6308,-2.5741,-2.5623,-2.6171,-2.6782,-2.7146,-2.7268,-2.7403,-2.7523,-2.7523,-2.7523,-2.7523,-2.7523,-2.7523,-2.7523,-2.7523,-2.7523,-2.7523,-2.7523,-2.7523,-2.7523,-2.7523,-2.7523,-2.7523,-2.7523,-2.7523,-2.7523,-2.7523,-2.7523,-2.7523,-2.7523,-2.7523,-2.7523,-2.7523,-2.7523,-2.7523,-2.7523,-2.7523,-2.7693,-2.8037,-2.8091,-2.8463,-2.8892,-2.8599,-2.898,-2.9559,-2.9835,-3.0546,-3.1203,-3.1203,-3.109,-3.0865,-3.0383,-2.9889,-2.9536,-2.9693,-2.9685,-2.9794,-3.0011,-2.9856,-2.9771,-3.0087,-2.97,-2.9266,-2.9011,-2.8022,-2.7448,-2.7861,-2.8213,-2.8221,-2.795,-2.7886,-2.7718,-2.7366,-2.7693,-2.8181,-2.8755,-2.826,-2.8467,-2.974,-2.9073,-2.9029,-2.9769,-2.9421,-2.9232,-2.9232,-2.961,-2.9711,-2.9518,-3.022,-3.057,-1.6284,-1.7,0.0,-1.8317,-1.9551,-2.078,-2.1245,-2.2258,-2.3417,-2.4731,-2.5387,-2.5873,-2.6608,-2.6829,-2.7162,-2.7944,-2.813,-2.8184,-2.8449,-2.7657,-2.664,-2.5511,-2.4921,-2.5086,-2.6316,-2.6566,-2.6845,-2.7201,-2.7335,-2.7403,-2.7523,-2.7469,-2.7469,-2.7523,-2.7523,-2.7523,-2.7523,-2.7523,-2.7523,-2.7523,-2.7523,-2.7523,-2.7523,-2.7523,-2.7523,-2.7523,-2.7523,-2.7523,-2.7523,-2.7523,-2.7523,-2.7523,-2.7523,-2.7523,-2.7523,-2.7723,-2.7656,-2.7523,-2.7523,-2.7628,-2.7758,-2.7839,-2.833,-2.8932,-2.8545,-2.9227,-3.0157,-3.0367,-3.1183,-3.2017,-3.2254,-3.2202,-3.2051,-3.1772,-3.1211,-3.0772,-3.078,-3.0785,-3.0788,-3.0792,-3.0644,-3.0629,-3.0984,-3.0748,-3.0584,-3.0763,-2.9472,-2.8669,-2.9128,-2.9558,-2.9596,-2.9231,-2.917,-2.8892,-2.8277,-2.8298,-2.8678,-2.9526,-2.8806,-2.9007,-3.0539,-2.9697,-2.9639,-3.0553,-3.0118,-2.9885,-2.9885,-3.035,-3.0454,-3.0235,-3.0807,-3.1263,-1.7885,-1.8347,-1.8882,-2.1006,-2.2237,-2.3003,-2.3412,-2.4172,-2.5123,-2.6345,-2.5481,-2.5241,-2.7836,-2.7151,-2.6761,-2.86,-2.885,-2.8474,-2.7482,-2.6841,-2.6076,-2.4971,-2.4356,-2.4443,0.0,-2.5836,-2.6209,-2.6973,-2.7024,-2.7146,-2.7469,-2.7403,-2.7403,-2.7523,-2.7523,-2.7523,-2.7523,-2.7523,-2.7523,-2.7523,-2.7523,-2.7523,-2.7523,-2.7523,-2.7523,-2.7523,-2.7523,-2.7523,-2.7523,-2.7523,-2.7523,-2.7523,-2.7523,-2.7523,-2.759,-2.8222,-2.8039,-2.7523,-2.7523,-2.7889,-2.8428,-2.8591,-2.9134,-2.9668,-2.9904,-3.0003,-3.0225,-3.0805,-3.0991,-3.1211,-3.1782,-3.2084,-3.2213,-3.2248,-3.2347,-3.2271,-3.1584,-3.1438,-3.1448,-3.1483,-3.094,-3.0866,-3.216,-3.1334,-3.0703,-3.1364,-3.0866,-3.0435,-3.0435,-3.045,-3.045,-3.0435,-3.045,-3.0194,-2.9476,-2.9737,-2.9842,-2.9602,-2.9884,-3.019,-3.0568,-3.0539,-3.0539,-3.0568,-3.0553,-3.0553,-3.0553,-3.0568,-3.0568,-3.0598,-3.1435,-3.189,-1.953,-2.0391,-2.1294,-2.2747,-2.3952,-2.5008,-2.5664,-2.6412,-2.7017,-2.7243,-2.6536,-2.607,-2.6452,-2.6152,-2.6126,-2.7168,-2.7595,-2.7708,-2.7331,-2.6804,-2.5912,-2.4456,-2.4431,0.0,0.0,0.0,0.0,-2.6947,-2.6678,-2.6747,-2.7323,-2.7214,-2.7214,-2.7335,-2.7403,-2.7403,-2.7523,-2.7523,-2.7523,-2.7523,-2.7523,-2.7523,-2.7523,-2.7523,-2.7732,-2.8072,-2.7693,-2.7745,-2.8098,-2.8098,-2.7863,-2.7562,-2.7941,-2.7863,-2.759,-2.8222,-2.8352,-2.8222,-2.8648,-2.8963,-2.9127,-2.9206,-2.9475,-2.9827,-3.0375,-3.0902,-3.1506,-3.2149,-3.296,-3.3719,-3.4038,-3.4031,-3.4059,-3.4343,-3.3958,-3.3576,-3.3502,-3.3486,-3.3485,-3.3508,-3.3287,-3.3287,-3.371,-3.3023,-3.2379,-3.2109,-3.158,-3.1175,-3.1175,-3.1175,-3.1175,-3.1175,-3.0763,-3.0389,-3.0208,-2.9889,-2.995,-3.0644,-3.0083,-3.0158,-3.1043,-3.0747,-3.0568,-3.0568,-3.0568,-3.0568,-3.0568,-3.0568,-3.0807,-3.1204,-3.1422,-3.1864,-2.1459,-2.2553,-2.3488,-2.4811,-2.5841,-2.6667,-2.6981,-2.7398,-2.7554,-2.7156,-2.6426,-2.5711,-2.5214,-2.4922,-2.4985,-2.5485,-2.5887,-2.6176,-2.6377,-2.5925,-2.5335,-2.4644,-2.472,-2.4695,0.0,0.0,0.0,-2.6518,-2.662,-2.6777,-2.7201,-2.7203,-2.7229,-2.7214,-2.7268,-2.7335,-2.7403,-2.7469,-2.7523,-2.7523,-2.7523,-2.7628,-2.7837,-2.7837,-2.815,-2.8686,-2.832,-2.836,-2.8699,-2.8699,-2.8684,-2.8544,-2.8716,-2.8798,-2.8958,-2.943,-2.9742,-2.9867,-2.9596,-2.9504,-2.9504,-2.9504,-2.9922,-3.0516,-3.0917,-3.178,-3.2613,-3.3166,-3.3922,-3.4683,-3.5034,-3.5072,-3.5138,-3.5615,-3.5353,-3.4921,-3.4848,-3.4845,-3.4768,-3.4522,-3.4475,-3.4475,-3.4475,-3.3875,-3.3244,-3.2813,-3.2201,-3.1823,-3.1823,-3.1823,-3.1823,-3.1823,-3.1465,-3.1102,-3.0881,-3.0495,-3.054,-3.116,-3.0478,-3.0493,-3.1495,-3.1102,-3.0866,-3.0866,-3.0866,-3.0866,-3.0866,-3.0866,-3.1146,-3.1652,-3.1823,-3.2296,-2.3589,-2.4622,-2.5458,-2.7118,-2.7806,-2.7928,-2.7385,-2.7121,-2.6806,-2.6112,-2.5103,-2.4249,0.0,0.0,-2.3444,-2.3866,-2.4004,-2.4255,-2.4858,-2.4494,-2.4544,0.0,0.0,0.0,0.0,0.0,0.0,-2.5978,-2.6804,-2.717,-2.702,-2.7367,-2.7405,-2.7037,-2.7214,-2.7268,-2.7335,-2.7469,-2.7523,-2.7523,-2.7562,-2.7837,-2.8347,-2.8399,-2.8739,-2.9274,-2.9274,-2.9301,-2.9327,-2.9327,-2.9767,-3.0256,-2.9726,-3.0303,-3.1448,-3.1541,-3.1965,-3.2237,-3.0324,-2.9727,-2.9727,-2.9727,-3.0573,-3.1587,-3.1616,-3.2579,-3.3621,-3.3849,-3.3925,-3.4076,-3.4865,-3.514,-3.5416,-3.6058,-3.6352,-3.6307,-3.5676,-3.5537,-3.5337,-3.4706,-3.4568,-3.4568,-3.4537,-3.3937,-3.3444,-3.3413,-3.2829,-3.2398,-3.2398,-3.2428,-3.2444,-3.2444,-3.2444,-3.2221,-3.1655,-3.1652,-3.1564,-3.1276,-3.0999,-3.1175,-3.1936,-3.1552,-3.1336,-3.1336,-3.1336,-3.1336,-3.1336,-3.1336,-3.1552,-3.1936,-3.268,-3.3145,-2.487,-2.5811,-2.6452,-2.7314,-2.7574,-2.7572,-2.7281,-2.6865,-2.6232,-2.5089,-2.3914,-2.2879,0.0,0.0,0.0,-2.3201,-2.4117,0.0,-2.6465,-2.6527,0.0,-2.6816,0.0,-2.7739,-2.6584,-2.7216,0.0,0.0,-2.681,-2.693,-2.743,-2.7513,-2.7405,-2.7037,-2.7214,-2.7335,-2.7469,-2.7469,-2.7523,-2.7536,-2.7968,-2.802,-2.7771,-2.8647,-2.9131,-2.9274,-2.9274,-2.9523,-2.9915,-2.9915,-2.9797,-2.9627,-3.0441,-3.0705,-3.0825,-3.184,-3.2344,-3.2494,-3.25,-3.2458,-3.2458,-3.2458,-3.2714,-3.3075,-3.355,-3.4068,-3.4495,-3.5055,-3.5332,-3.5518,-3.567,-3.5778,-3.5872,-3.6165,-3.6274,-3.629,-3.6276,-3.6245,-3.6184,-3.6014,-3.5984,-3.5814,-3.5306,-3.4645,-3.4014,-3.3475,-3.2829,-3.2398,-3.2398,-3.2844,-3.3152,-3.3152,-3.3152,-3.308,-3.2909,-3.2152,-3.1936,-3.2428,-3.1694,-3.1607,-3.2367,-3.1992,-3.1766,-3.1766,-3.1766,-3.1766,-3.1766,-3.1766,-3.1992,-3.2422,-3.2586,-3.3018,-2.5675,-2.6673,-2.7315,-2.7445,-2.7459,-2.7262,-2.6752,-2.5947,-2.5052,-2.3767,-2.2812,0.0,-2.0899,-2.1194,0.0,0.0,0.0,0.0,-2.603,-2.646,-2.6883,0.0,-2.8615,0.0,-2.8139,-2.8477,-2.869,0.0,-2.748,-2.7024,-2.7422,-2.7818,-2.7756,-2.7214,-2.7842,-2.8222,-2.8403,-2.8403,-2.8403,-2.8403,-2.8998,-2.9307,-2.9214,-3.0228,-3.0586,-3.057,-3.0841,-3.103,-3.0977,-3.1339,-3.148,-3.1516,-3.1999,-3.2326,-3.2711,-3.322,-3.3564,-3.3893,-3.4241,-3.4382,-3.4277,-3.3679,-3.3694,-3.3993,-3.4367,-3.4745,-3.5172,-3.5597,-3.5752,-3.5894,-3.5973,-3.6022,-3.6085,-3.6211,-3.6274,-3.6352,-3.6492,-3.6492,-3.6492,-3.6492,-3.6492,-3.6368,-3.5984,-3.5368,-3.4783,-3.4368,-3.3737,-3.3306,-3.3306,-3.3367,-3.3521,-3.3844,-3.3875,-3.3752,-3.3429,-3.2946,-3.2736,-3.2874,-3.2272,-3.2241,-3.2888,-3.2437,-3.2216,-3.2216,-3.2522,-3.2675,-3.2675,-3.2675,-3.29,-3.3365,-3.3013,-3.3208,-2.6258,-2.7144,-2.7776,-2.7523,-2.7287,-2.6831,-2.5837,-2.4693,-2.3519,-2.2479,0.0,-2.1199,-2.0602,-2.0823,-2.1281,-2.1817,0.0,-2.3923,-2.5076,-2.5871,-2.6752,-2.8075,-2.9074,-2.9821,-3.0105,-2.9697,-2.9649,-3.0178,-2.8466,-2.7372,-2.7511,-2.8153,-2.8343,-2.7868,-2.8899,-2.9533,-2.9631,-2.9631,-2.9588,-2.9518,-3.02,-3.0791,-3.1288,-3.2058,-3.2319,-3.2181,-3.2904,-3.2861,-3.229,-3.2932,-3.3561,-3.4119,-3.3665,-3.4288,-3.5285,-3.4831,-3.4996,-3.5504,-3.5504,-3.5504,-3.531,-3.4143,-3.4143,-3.4607,-3.4607,-3.5026,-3.5554,-3.5638,-3.5688,-3.5752,-3.5973,-3.6085,-3.6211,-3.6211,-3.6352,-3.6492,-3.6492,-3.6492,-3.6492,-3.6492,-3.6492,-3.6492,-3.6492,-3.5938,-3.5476,-3.5476,-3.4906,-3.4506,-3.4599,-3.406,-3.3921,-3.4537,-3.4614,-3.4352,-3.3721,-3.3836,-3.3708,-3.3193,-3.2967,-3.306,-3.3577,-3.317,-3.2975,-3.2975,-3.3597,-3.3877,-3.3783,-3.3783,-3.3888,-3.4146,-3.3577,-3.3398,-2.6716,-2.7002,-2.7146,-2.7079,-2.6348,-2.5484,-2.4854,-2.3606,0.0,0.0,-2.1056,-2.0628,-2.0537,-2.0811,-2.1511,-2.2916,0.0,0.0,0.0,0.0,-2.8732,0.0,-3.0591,-3.1363,-3.0217,-3.0215,0.0,0.0,-2.8763,-2.7841,-2.8718,-2.8677,-2.8973,-2.979,-3.0149,-3.0263,-3.0326,-3.0326,-3.0073,-2.9518,-3.0087,-3.0502,-3.0693,-3.178,-3.2302,-3.2359,-3.2919,-3.3143,-3.3003,-3.3143,-3.3297,-3.3408,-3.3926,-3.4292,-3.4581,-3.5145,-3.54,-3.5504,-3.5504,-3.5504,-3.5474,-3.5235,-3.5235,-3.5325,-3.5325,-3.5514,-3.5703,-3.5688,-3.5831,-3.5973,-3.5973,-3.6037,-3.6037,-3.6148,-3.6211,-3.6274,-3.6492,-3.6492,-3.6492,-3.6492,-3.6492,-3.6492,-3.6492,-3.5938,-3.5476,-3.5476,-3.4906,-3.4675,-3.523,-3.5199,-3.5168,-3.5291,-3.5306,-3.5245,-3.5137,-3.4395,-3.4114,-3.4535,-3.4211,-3.4329,-3.4999,-3.496,-3.4904,-3.4904,-3.503,-3.4794,-3.4195,-3.4195,-3.3966,-3.3467,-3.3356,-3.3293,-2.6642,-2.7053,-2.7188,-2.7011,-2.6117,-2.5,-2.4214,0.0,0.0,0.0,-2.054,-2.0347,-2.0347,0.0,0.0,0.0,0.0,0.0,0.0,0.0,0.0,0.0,0.0,-3.133,0.0,-3.0793,-3.0974,-3.211,-2.9632,-2.8505,-2.9691,-3.0038,-3.0675,-3.1786,-3.1594,-3.1482,-3.1529,-3.1195,-3.0889,-3.0539,-3.1511,-3.2038,-3.2067,-3.3376,-3.3743,-3.3407,-3.4076,-3.4138,-3.3837,-3.4206,-3.4438,-3.4423,-3.4773,-3.4905,-3.4971,-3.5359,-3.5504,-3.5504,-3.5504,-3.5504,-3.5504,-3.5504,-3.5504,-3.5504,-3.5504,-3.5554,-3.5604,-3.5604,-3.5668,-3.5733,-3.5831,-3.5894,-3.6037,-3.6148,-3.6274,-3.6352,-3.6492,-3.6492,-3.6492,-3.6492,-3.6492,-3.6492,-3.6492,-3.6215,-3.6014,-3.6014,-3.5737,-3.5645,-3.5968,-3.6014,-3.6014,-3.6014,-3.6014,-3.5861,-3.5507,-3.5069,-3.4841,-3.4909,-3.4808,-3.4944,-3.5379,-3.5394,-3.5394,-3.5394,-3.5742,-3.5758,-3.5394,-3.5031,-3.4699,-3.4383,-3.364,-3.3482,-2.6274,-2.6883,-2.7229,-2.6943,-2.5807,-2.4562,-2.3718,-2.215,0.0,0.0,-2.0182,-2.0182,-2.0182,0.0,-2.1036,0.0,-2.2786,0.0,0.0,0.0,0.0,0.0,0.0,0.0,-3.2019,-3.1138,0.0,-3.2913,-3.0633,-2.9494,-3.0336,-3.1382,-3.2449,-3.3369,-3.3032,-3.2825,-3.2931,-3.2422,-3.2018,-3.1764,-3.2931,-3.3499,-3.3529,-3.4741,-3.4999,-3.461,-3.5213,-3.5133,-3.461,-3.5213,-3.5504,-3.5504,-3.5504,-3.5504,-3.5504,-3.5504,-3.5504,-3.5504,-3.5504,-3.5504,-3.5504,-3.5504,-3.5504,-3.5504,-3.5504,-3.5504,-3.5504,-3.5504,-3.5504,-3.5554,-3.5703,-3.5894,-3.61,-3.6211,-3.6352,-3.6492,-3.6492,-3.6492,-3.6492,-3.6492,-3.6492,-3.6492,-3.6492,-3.6492,-3.6492,-3.6492,-3.6492,-3.6492,-3.6492,-3.6492,-3.6492,-3.6492,-3.6492,-3.6276,-3.5753,-3.5734,-3.559,-3.5377,-3.5321,-3.5477,-3.5837,-3.5837,-3.5837,-3.5837,-3.6374,-3.6579,-3.6421,-3.5884,-3.5537,-3.5363,-3.4273,-3.4036,-2.5661,-2.6118,-2.6589,-2.6521,-2.4885,-2.3261,-2.315,0.0,0.0,-2.0054,-2.0042,-2.0042,-2.0182,-2.0067,-2.029,0.0,0.0,-2.3445,0.0,0.0,0.0,0.0,0.0,0.0,-3.1589,-3.0974,-3.1159,-3.2442,-3.17,-3.1094,-3.075,-3.2086,-3.3254,-3.4085,-3.4259,-3.4292,-3.4292,-3.4233,-3.3604,-3.2437,-3.3155,-3.3499,-3.3514,-3.4247,-3.4906,-3.5359,-3.5439,-3.5439,-3.5424,-3.5439,-3.5504,-3.5504,-3.5504,-3.5504,-3.5504,-3.5504,-3.5504,-3.5504,-3.5504,-3.5504,-3.5504,-3.5504,-3.5504,-3.5504,-3.5504,-3.5504,-3.5504,-3.5504,-3.5604,-3.5703,-3.5894,-3.6085,-3.6211,-3.6429,-3.6492,-3.6492,-3.6492,-3.6492,-3.6492,-3.6492,-3.6492,-3.6492,-3.6492,-3.6492,-3.6492,-3.6492,-3.6492,-3.6492,-3.6492,-3.6492,-3.6492,-3.6492,-3.6492,-3.6476,-3.6399,-3.5952,-3.6009,-3.6781,-3.6338,-3.6452,-3.7259,-3.7291,-3.7291,-3.7291,-3.7354,-3.7069,-3.6421,-3.6358,-3.6011,-3.5394,-3.5268,-3.5236,-2.5322,-2.6013,-2.6445,-2.6025,-2.4531,-2.305,-2.2711,0.0,-1.9862,-1.9862,-1.9862,-1.9965,-2.0372,-2.0359,-2.0552,-2.1351,0.0,0.0,-2.537,0.0,0.0,0.0,-3.004,0.0,0.0,0.0,-3.0785,-3.1308,-3.2179,-3.2498,-3.214,-3.3084,-3.3952,-3.4587,-3.4554,-3.4472,-3.4472,-3.4083,-3.3619,-3.311,-3.3769,-3.4083,-3.4098,-3.4786,-3.525,-3.5504,-3.5504,-3.5504,-3.5504,-3.5504,-3.5504,-3.5504,-3.5504,-3.5504,-3.5504,-3.5504,-3.5504,-3.5504,-3.5504,-3.5504,-3.5504,-3.5504,-3.5504,-3.5504,-3.5504,-3.5504,-3.5504,-3.5589,-3.5638,-3.5752,-3.6022,-3.6289,-3.6414,-3.6492,-3.6492,-3.6492,-3.6492,-3.6492,-3.6492,-3.6492,-3.6492,-3.6492,-3.6492,-3.6492,-3.6492,-3.6492,-3.6492,-3.6492,-3.6492,-3.6492,-3.6492,-3.6492,-3.6492,-3.6492,-3.6492,-3.6292,-3.6399,-3.6999,-3.681,-3.6958,-3.7464,-3.748,-3.748,-3.748,-3.748,-3.7338,-3.7054,-3.6643,-3.6279,-3.5995,-3.5584,-3.5616,-2.4506,-2.541,-2.5875,-2.5473,-2.4117,-2.2749,0.0,0.0,-1.9798,-1.9798,-1.9798,-1.9901,-2.0308,-2.051,-2.0709,-2.1091,0.0,-2.2396,-2.4685,-2.5145,0.0,0.0,0.0,-3.0306,0.0,-3.1743,-3.1351,-3.1163,-3.2411,-3.3194,-3.3143,-3.3711,-3.4336,-3.5052,-3.4897,-3.4786,-3.4786,-3.4322,-3.3978,-3.3784,-3.4457,-3.4666,-3.4502,-3.519,-3.5504,-3.5504,-3.5504,-3.5504,-3.5504,-3.5504,-3.5504,-3.5504,-3.5504,-3.5504,-3.5504,-3.5504,-3.5504,-3.5504,-3.5504,-3.5504,-3.5504,-3.5504,-3.5504,-3.5504,-3.5554,-3.5554,-3.5554,-3.5638,-3.5752,-3.5943,-3.6211,-3.6414,-3.6492,-3.6492,-3.6492,-3.6492,-3.6492,-3.6492,-3.6492,-3.6492,-3.6492,-3.6492,-3.6492,-3.6492,-3.6492,-3.6492,-3.6492,-3.6492,-3.6492,-3.6492,-3.6492,-3.6492,-3.6492,-3.6492,-3.6492,-3.6492,-3.6616,-3.6877,-3.6938,-3.7121,-3.7405,-3.748,-3.748,-3.748,-3.748,-3.748,-3.748,-3.6975,-3.6738,-3.6722,-3.6232,-3.6263,-2.3012,-2.3979,-2.4845,-2.4833,-2.3565,-2.2171,0.0,0.0,-1.9798,-1.9798,-1.9798,-1.9798,-1.9798,-2.0258,-2.061,-2.061,-2.1522,0.0,-2.4755,-2.5525,0.0,0.0,0.0,-3.0118,-3.1409,-3.2687,-3.3166,-3.2542,-3.2513,-3.2803,-3.3493,-3.3847,-3.448,-3.5489,-3.5504,-3.5489,-3.5489,-3.5489,-3.5145,-3.4472,-3.516,-3.513,-3.4502,-3.519,-3.5504,-3.5504,-3.5504,-3.5504,-3.5504,-3.5504,-3.5504,-3.5504,-3.5504,-3.5504,-3.5504,-3.5504,-3.5504,-3.5504,-3.5504,-3.5504,-3.5504,-3.5504,-3.5504,-3.5489,-3.5638,-3.5604,-3.5554,-3.5638,-3.5943,-3.6274,-3.6414,-3.6492,-3.6492,-3.6492,-3.6492,-3.6492,-3.6492,-3.6492,-3.6492,-3.6492,-3.6492,-3.6492,-3.6492,-3.6492,-3.6492,-3.6492,-3.6492,-3.6492,-3.6492,-3.6492,-3.6492,-3.6492,-3.6492,-3.6492,-3.6492,-3.6492,-3.6554,-3.6723,-3.6877,-3.7044,-3.7194,-3.7405,-3.748,-3.748,-3.748,-3.748,-3.748,-3.7464,-3.7464,-3.7464,-3.7464,-3.7464,-2.1192,-2.2259,-2.3012,-2.2636,-2.2146,-2.1606,-2.1054,0.0,-1.9798,-1.9798,-1.9798,-1.9901,-2.0258,-2.051,-2.074,-2.1081,-2.1739,0.0,0.0,0.0,0.0,-2.8464,-3.0801,-3.2063,0.0,0.0,-3.3209,-3.2571,-3.2919,-3.3318,-3.3623,-3.4259,-3.4794,-3.5067,-3.5359,-3.5504,-3.5504,-3.5504,-3.5385,-3.519,-3.54,-3.5385,-3.519,-3.54,-3.5504,-3.5504,-3.5504,-3.5504,-3.5504,-3.5504,-3.5504,-3.5504,-3.5504,-3.5504,-3.5504,-3.5504,-3.5504,-3.5504,-3.5504,-3.5504,-3.5504,-3.5504,-3.5554,-3.5638,-3.5688,-3.5703,-3.5703,-3.5958,-3.6211,-3.6414,-3.6492,-3.6492,-3.6492,-3.6492,-3.6492,-3.6492,-3.6492,-3.6492,-3.6492,-3.6492,-3.6492,-3.6492,-3.6492,-3.6492,-3.6492,-3.6492,-3.6492,-3.6492,-3.6492,-3.6492,-3.6492,-3.6492,-3.6492,-3.6492,-3.6492,-3.6492,-3.6554,-3.6723,-3.6785,-3.6862,-3.7044,-3.721,-3.727,-3.727,-3.7405,-3.748,-3.748,-3.748,-3.748,-3.748,-3.748,-3.748,0.0,-2.1004,-2.1656,-2.1518,-2.133,0.0,0.0,0.0,-1.9798,-1.9798,-1.9798,-1.9901,-2.0258,-2.0459,-2.0806,-2.1316,-2.1851,0.0,0.0,0.0,0.0,-2.8774,0.0,0.0,0.0,-3.3209,-3.3659,-3.3267,-3.3601,-3.3885,-3.3937,-3.4582,-3.4935,-3.4935,-3.5294,-3.5504,-3.5504,-3.5504,-3.5504,-3.5504,-3.5504,-3.5504,-3.5504,-3.5504,-3.5504,-3.5504,-3.5504,-3.5504,0.0,-3.5504,-3.5504,-3.5504,-3.5504,-3.5504,-3.5504,-3.5504,-3.5504,-3.5504,-3.5504,-3.5504,-3.5504,-3.5554,-3.5718,-3.5879,-3.5879,-3.5879,-3.5943,-3.6133,-3.6352,-3.6492,-3.6492,-3.6492,-3.6492,-3.6492,-3.6492,-3.6492,-3.6492,-3.6492,-3.6492,-3.6492,-3.6492,-3.6492,-3.6492,-3.6492,-3.6492,-3.6492,-3.6492,-3.6492,-3.6492,-3.6492,-3.6492,-3.6492,-3.6492,-3.6492,-3.6492,-3.6492,-3.6554,-3.66,-3.6662,-3.6785,-3.6862,-3.7089,-3.7194,-3.7194,-3.7405,-3.748,-3.748,-3.748,-3.748,-3.748,-3.748,-3.748,0.0,0.0,0.0,0.0,0.0,0.0,0.0,0.0,0.0,0.0,0.0,-1.9811,-1.9861,-2.0271,-2.0783,-2.1394,-2.1953,0.0,0.0,-2.4673,0.0,0.0,-3.1338,0.0,-3.3282,-3.3949,-3.4356,-3.4414,-3.4414,-3.4414,-3.4414,-3.4735,-3.4868,-3.4935,-3.5294,-3.5504,-3.5504,-3.5504,-3.5504,-3.5504,-3.5504,-3.5504,-3.5504,-3.5504,-3.5504,-3.5504,-3.5504,-3.5504,-3.5504,-3.5504,-3.5504,-3.5504,-3.5504,-3.5504,-3.5504,-3.5504,-3.5504,-3.5504,-3.5504,-3.5504,-3.5554,-3.5703,-3.5943,-3.6196,-3.6211,-3.6211,-3.6211,-3.6211,-3.6352,-3.6492,-3.6492,-3.6492,-3.6492,-3.6492,-3.6492,-3.6492,-3.6492,-3.6492,-3.6492,-3.6492,-3.6492,-3.6492,-3.6492,-3.6492,-3.6492,-3.6492,-3.6492,-3.6492,-3.6492,-3.6492,-3.6492,-3.6492,-3.6492,-3.6492,-3.6492,-3.6492,-3.6492,-3.6492,-3.66,-3.6723,-3.6723,-3.7013,-3.7194,-3.7194,-3.7405,-3.748,-3.748,-3.748,-3.748,-3.748,-3.748,-3.748,-1.8051,0.0,-1.892,-1.9459,-1.9811,0.0,0.0,0.0,0.0,0.0,0.0,0.0,0.0,0.0,0.0,0.0,0.0,0.0,-2.3204,0.0,0.0,-2.8736,-3.1467,-3.2904,-3.2063,-3.3021,-3.3891,-3.4385,-3.4414,-3.4414,-3.4414,-3.4616,-3.4817,-3.4935,-3.5148,-3.5359,-3.5504,-3.5504,-3.5504,-3.5504,-3.5504,-3.5504,-3.5504,-3.5504,-3.5504,-3.5504,-3.5504,-3.5504,-3.5504,-3.5504,-3.5504,-3.5504,-3.5504,-3.5504,-3.5504,-3.5504,-3.5504,-3.5504,-3.5504,-3.5554,-3.5703,-3.6006,-3.6148,-3.6211,-3.6352,-3.6414,-3.6414,-3.6414,-3.6492,-3.6492,-3.6492,-3.6492,-3.6492,-3.6492,-3.6492,-3.6492,-3.6492,-3.6492,-3.6492,-3.6492,-3.6492,-3.6492,-3.6492,-3.6492,-3.6492,-3.6492,-3.6492,-3.6492,-3.6492,-3.6492,-3.6492,-3.6492,-3.6492,-3.6492,-3.6492,-3.6492,-3.6492,-3.6492,-3.6554,-3.66,-3.6723,-3.6923,-3.7105,-3.7194,-3.7405,-3.748,-3.748,-3.748,-3.748,-3.748,-3.748,-3.748,-1.7135,-1.7784,-1.8339,-1.9146,-1.9597,-1.9798,0.0,0.0,0.0,0.0,0.0,0.0,0.0,0.0,0.0,0.0,-2.2309,0.0,0.0,0.0,-2.7895,-2.8919,-3.1183,-3.2688,0.0,-3.3485,-3.4051,-3.4385,-3.4414,-3.4414,-3.4414,-3.4563,-3.475,-3.4868,-3.5082,-3.5294,-3.5504,-3.5504,-3.5504,-3.5504,-3.5504,-3.5504,-3.5504,-3.5504,-3.5504,-3.5504,-3.5504,-3.5504,-3.5504,-3.5504,-3.5504,-3.5504,-3.5504,-3.5504,-3.5504,-3.5504,-3.5504,-3.5504,-3.5504,-3.5668,-3.5894,-3.6133,-3.6274,-3.6352,-3.6492,-3.6492,-3.6492,-3.6492,-3.6492,-3.6492,-3.6492,-3.6492,-3.6492,-3.6492,-3.6492,-3.6492,-3.6492,-3.6492,-3.6492,-3.6492,-3.6492,-3.6492,-3.6492,-3.6492,-3.6492,-3.6492,-3.6492,-3.6492,-3.6492,-3.6492,-3.6492,-3.6492,-3.6492,-3.6492,-3.6492,-3.6492,-3.6492,-3.6492,-3.6554,-3.66,-3.6723,-3.6968,-3.715,-3.7329,-3.7464,-3.748,-3.748,-3.748,-3.748,-3.748,-3.748,-3.748,-1.6496,-1.7322,-1.8231,-1.9261,-1.954,-1.9579,0.0,0.0,0.0,0.0,0.0,0.0,0.0,0.0,0.0,0.0,0.0,0.0,-2.4217,-2.5587,-2.7256,-2.9185,-3.063,0.0,-3.3739,-3.3912,-3.4013,-3.4182,-3.4196,-3.4196,-3.4196,-3.4481,-3.475,-3.4868,-3.4978,-3.513,-3.5275,-3.5444,-3.5504,-3.5504,-3.5504,-3.5504,-3.5504,-3.5504,-3.5504,-3.5504,-3.5504,-3.5504,-3.5504,-3.5504,-3.5504,-3.5504,-3.5504,-3.5504,-3.5504,-3.5504,-3.5504,-3.5504,-3.5569,-3.5797,-3.6022,-3.6211,-3.6352,-3.6492,-3.6492,-3.6492,-3.6492,-3.6492,-3.6492,-3.6492,-3.6492,-3.6492,-3.6492,-3.6492,-3.6492,-3.6492,-3.6492,-3.6492,-3.6492,-3.6492,-3.6492,-3.6492,-3.6492,-3.6492,-3.6492,-3.6492,-3.6492,-3.6492,-3.6492,-3.6492,-3.6492,-3.6492,-3.6492,-3.6492,-3.6492,-3.6492,-3.6492,-3.6492,-3.66,-3.6723,-3.6769,-3.7074,-3.7329,-3.748,-3.748,-3.748,-3.748,-3.748,-3.748,-3.748,-3.748,-3.748,-1.6754,-1.7192,-1.7489,-1.8178,-1.8363,-1.8471,0.0,0.0,0.0,0.0,0.0,0.0,0.0,0.0,0.0,0.0,0.0,-2.482,0.0,0.0,-2.8677,-2.8441,0.0,-3.1351,-3.171,-3.1668,-3.211,-3.3255,-3.3367,-3.3367,-3.3367,-3.4045,-3.4549,-3.4698,-3.4353,-3.4238,-3.4416,-3.5141,-3.5504,-3.5504,-3.5504,-3.5504,-3.5504,-3.5504,-3.5504,-3.5504,-3.5504,-3.5504,-3.5504,-3.5504,-3.5504,-3.5504,-3.5504,-3.5504,-3.5504,-3.5504,-3.5504,-3.5569,-3.5797,-3.6037,-3.6211,-3.6414,-3.6492,-3.6492,-3.6492,-3.6492,-3.6492,-3.6492,-3.6492,-3.6492,-3.6492,-3.6492,-3.6492,-3.6492,-3.6492,-3.6492,-3.6492,-3.6492,-3.6492,-3.6492,-3.6492,-3.6492,-3.6492,-3.6492,-3.6492,-3.6492,-3.6492,-3.6492,-3.6492,-3.6492,-3.6492,-3.6492,-3.6492,-3.6492,-3.6492,-3.6492,-3.6492,-3.6492,-3.66,-3.6831,-3.7134,-3.7329,-3.748,-3.748,-3.748,-3.748,-3.748,-3.748,-3.748,-3.748,-3.748,-3.748,-1.5807,-1.6403,-1.6842,-1.7134,-1.7667,0.0,0.0,0.0,0.0,0.0,0.0,0.0,0.0,0.0,-2.197,-2.3439,0.0,-2.5523,-2.6352,-2.724,-2.8022,0.0,0.0,-3.0516,-3.1653,-3.1659,-3.1796,-3.2165,-3.2469,-3.2652,-3.2736,-3.3093,-3.3528,-3.4156,-3.3721,-3.3509,-3.3698,-3.42,-3.4592,-3.4951,-3.4951,-3.5145,-3.5489,-3.5115,-3.516,-3.5504,-3.5504,-3.5504,-3.5504,-3.5504,-3.5504,-3.5504,-3.5504,-3.5504,-3.5504,-3.5504,-3.5504,-3.5569,-3.5846,-3.6037,-3.6163,-3.6429,-3.6492,-3.6492,-3.6492,-3.6492,-3.6492,-3.6492,-3.6492,-3.6492,-3.6492,-3.6492,-3.6492,-3.6492,-3.6492,-3.6492,-3.6492,-3.6492,-3.6492,-3.6492,-3.6492,-3.6492,-3.6492,-3.6492,-3.6492,-3.6492,-3.6492,-3.6492,-3.6492,-3.6492,-3.6492,-3.6492,-3.6492,-3.6492,-3.6492,-3.6492,-3.6554,-3.66,-3.6662,-3.6831,-3.7194,-3.727,-3.7405,-3.748,-3.748,-3.748,-3.748,-3.748,-3.748,-3.748,-3.748,-3.748,-1.4997,-1.5597,-1.6218,-1.6218,0.0,0.0,0.0,0.0,0.0,0.0,0.0,0.0,0.0,-2.0816,0.0,-2.4481,-2.5372,-2.6088,-2.6917,-2.703,-2.7678,-2.9235,-2.9437,-2.9987,-3.1514,-3.1569,-3.1355,-3.0831,-3.133,-3.1612,-3.164,-3.1818,-3.2157,-3.2918,-3.2492,-3.23,-3.2518,-3.2815,-3.3389,-3.4247,-3.4247,-3.4517,-3.5026,-3.4637,-3.4756,-3.5265,-3.5429,-3.5504,-3.5504,-3.5504,-3.5415,-3.528,-3.5444,-3.5504,-3.5504,-3.5504,-3.5504,-3.5619,-3.591,-3.6037,-3.61,-3.6429,-3.6492,-3.6492,-3.6492,-3.6492,-3.6492,-3.6492,-3.6492,-3.6492,-3.6492,-3.6492,-3.6492,-3.6492,-3.6492,-3.6492,-3.6492,-3.6492,-3.6492,-3.6492,-3.6492,-3.6492,-3.6492,-3.6492,-3.6492,-3.6492,-3.6492,-3.6492,-3.6492,-3.6492,-3.6492,-3.6492,-3.6492,-3.6492,-3.6492,-3.6492,-3.6554,-3.6723,-3.6723,-3.6907,-3.7194,-3.7254,-3.7329,-3.748,-3.748,-3.748,-3.748,-3.748,-3.748,-3.748,-3.748,-3.748,-1.4997,-1.5359,-1.5742,-1.5742,0.0,0.0,0.0,0.0,0.0,0.0,0.0,0.0,0.0,-2.108,-2.2811,-2.4544,-2.5711,-2.6954,-2.8524,0.0,-2.8976,-2.9668,-2.9743,-2.9859,-3.0189,-3.0061,-2.9845,-2.9437,-2.9968,-3.0033,-2.9526,-3.0171,-3.0583,-3.0651,-3.0168,-3.0048,-3.0206,-3.0997,-3.2094,-3.3559,-3.3559,-3.3589,-3.3664,-3.4218,-3.4502,-3.4592,-3.5235,-3.5504,-3.5504,-3.5504,-3.513,-3.4607,-3.525,-3.5504,-3.5504,-3.5504,-3.5604,-3.5703,-3.591,-3.6085,-3.6211,-3.6414,-3.6492,-3.6492,-3.6492,-3.6492,-3.6492,-3.6492,-3.6492,-3.6492,-3.6492,-3.6492,-3.6492,-3.6492,-3.6492,-3.6492,-3.6492,-3.6492,-3.6492,-3.6492,-3.6492,-3.6492,-3.6492,-3.6492,-3.6492,-3.6492,-3.6492,-3.6492,-3.6492,-3.6492,-3.6492,-3.6492,-3.6492,-3.6492,-3.6492,-3.6492,-3.6554,-3.6723,-3.6862,-3.7044,-3.7178,-3.7405,-3.748,-3.748,-3.748,-3.748,-3.748,-3.748,-3.748,-3.748,-3.748,-3.748,-1.4892,-1.5546,-1.6115,-1.6115,0.0,0.0,0.0,0.0,0.0,0.0,0.0,0.0,0.0,0.0,-2.2616,-2.4054,-2.5523,-2.6917,-2.8235,-2.8411,-2.8499,-2.8725,-2.875,-2.8798,-2.8864,-2.876,-2.8571,-2.8061,-2.852,-2.88,-2.8769,-2.8937,-2.916,-2.9263,-2.8858,-2.8669,-2.8858,-2.9279,-2.996,-3.105,-3.23,-3.3095,-3.3484,-3.332,-3.3484,-3.3888,-3.4143,-3.4262,-3.4262,-3.4262,-3.4098,-3.3888,-3.4158,-3.4262,-3.4307,-3.4711,-3.4925,-3.5018,-3.5773,-3.6037,-3.6085,-3.6429,-3.6492,-3.6492,-3.6492,-3.6492,-3.6492,-3.6492,-3.6492,-3.6492,-3.6492,-3.6492,-3.6492,-3.6492,-3.6492,-3.6492,-3.6492,-3.6492,-3.6492,-3.6492,-3.6492,-3.6492,-3.6492,-3.6492,-3.6492,-3.6492,-3.6492,-3.6492,-3.6492,-3.6492,-3.6492,-3.6492,-3.6492,-3.6492,-3.6492,-3.6492,-3.6554,-3.6723,-3.6785,-3.6907,-3.7194,-3.7254,-3.7389,-3.748,-3.748,-3.748,-3.748,-3.748,-3.748,-3.748,-3.748,-3.748,-1.4777,-1.5502,-1.61,0.0,0.0,0.0,0.0,0.0,0.0,0.0,0.0,0.0,0.0,0.0,0.0,0.0,-2.5173,-2.6549,-2.7873,-2.7959,-2.7908,-2.8084,-2.8109,-2.8034,-2.7858,-2.8009,-2.7808,-2.708,-2.7369,-2.7544,-2.7485,-2.7304,-2.7287,-2.7389,-2.7117,-2.7028,-2.7201,-2.7571,-2.8022,-2.8622,-3.0424,-3.1723,-3.2539,-3.2105,-3.2359,-3.32,-3.3196,-3.3285,-3.3499,-3.3499,-3.3499,-3.3469,-3.326,-3.3366,-3.3606,-3.4055,-3.4267,-3.4405,-3.5169,-3.5398,-3.546,-3.5784,-3.5861,-3.5891,-3.6107,-3.6168,-3.6215,-3.643,-3.6492,-3.6492,-3.6492,-3.6492,-3.6492,-3.6492,-3.6492,-3.6492,-3.6492,-3.6492,-3.6492,-3.6492,-3.6492,-3.6492,-3.6492,-3.6492,-3.6492,-3.6492,-3.6492,-3.6492,-3.6492,-3.6492,-3.6492,-3.6492,-3.6492,-3.6492,-3.6492,-3.6492,-3.6554,-3.6723,-3.6723,-3.6831,-3.7194,-3.7254,-3.7329,-3.748,-3.748,-3.748,-3.748,-3.748,-3.748,-3.748,-3.748,-3.748,-1.4619,-1.5103,0.0,0.0,0.0,0.0,0.0,0.0,0.0,0.0,0.0,0.0,-1.9271,0.0,0.0,-2.3478,-2.4614,-2.5958,-2.7788,-2.762,-2.7482,-2.8021,-2.8084,-2.7871,-2.7318,-2.7758,-2.762,-2.6596,-2.6508,-2.6189,-2.5624,-2.5096,-2.482,-2.4808,-2.4808,-2.4872,-2.5116,-2.5883,-2.6363,-2.6607,-2.8039,-2.929,-3.0464,-3.0515,-3.1252,-3.2467,-3.2511,-3.2867,-3.3469,-3.3469,-3.3469,-3.341,-3.2766,-3.2961,-3.3698,-3.3698,-3.3744,-3.3924,-3.4134,-3.4193,-3.4208,-3.4401,-3.4475,-3.4599,-3.5276,-3.5476,-3.563,-3.6292,-3.6492,-3.6492,-3.6492,-3.6492,-3.6492,-3.6492,-3.6492,-3.6492,-3.6492,-3.6492,-3.6492,-3.6492,-3.6492,-3.6492,-3.6492,-3.6492,-3.6492,-3.6492,-3.6492,-3.6492,-3.6492,-3.6492,-3.6492,-3.6492,-3.6492,-3.6492,-3.6492,-3.6492,-3.6554,-3.6723,-3.6723,-3.6831,-3.7178,-3.7405,-3.748,-3.748,-3.748,-3.748,-3.748,-3.748,-3.748,-3.748,-3.748,-3.748,-1.3653,0.0,0.0,0.0,0.0,0.0,0.0,0.0,0.0,0.0,0.0,-1.9681,-1.9681,0.0,0.0,-2.2919,-2.4017,-2.5277,-2.6771,-2.6804,-2.6766,-2.6929,-2.6942,-2.6728,-2.6151,-2.6239,-2.605,-2.536,-2.531,-2.5234,-2.5059,-2.4908,-2.4644,-2.4255,-2.4243,-2.4293,-2.4443,-2.4816,-2.5331,-2.5923,-2.6404,-2.7593,-2.926,-3.0133,-3.0732,-3.1135,-3.156,-3.1916,-3.2108,-3.2108,-3.2108,-3.2093,-3.1898,-3.1943,-3.2212,-3.2795,-3.3005,-3.3199,-3.3907,-3.4193,-3.4208,-3.4401,-3.4475,-3.4506,-3.4722,-3.5106,-3.5522,-3.5722,-3.6122,-3.6492,-3.6492,-3.6492,-3.6492,-3.6492,-3.6492,-3.6492,-3.6492,-3.6492,-3.6492,-3.6492,-3.6492,-3.6492,-3.6492,-3.6492,-3.6492,-3.6492,-3.6492,-3.6492,-3.6492,-3.6492,-3.6492,-3.6492,-3.6492,-3.6492,-3.6492,-3.6492,-3.6554,-3.6723,-3.6723,-3.6785,-3.7044,-3.721,-3.727,-3.727,-3.7405,-3.748,-3.748,-3.748,-3.748,-3.748,-3.748,-3.748,-1.329,0.0,0.0,0.0,0.0,0.0,0.0,0.0,0.0,0.0,0.0,-1.982,-1.9986,-2.0449,0.0,-2.2184,-2.3154,-2.4226,-2.5549,-2.5977,-2.6113,-2.6113,-2.6113,-2.59,-2.5335,-2.5285,-2.5159,-2.4845,-2.4619,-2.4494,-2.4494,-2.428,-2.4004,-2.3665,-2.3653,-2.3714,-2.3872,-2.4067,-2.4429,-2.4913,-2.5314,-2.6122,-2.7286,-2.8196,-2.9073,-2.9841,-3.0426,-3.0837,-3.1087,-3.0837,-3.0703,-3.0703,-3.0703,-3.0896,-3.1293,-3.2035,-3.2586,-3.3013,-3.36,-3.4038,-3.4296,-3.4137,-3.4245,-3.4522,-3.4799,-3.5153,-3.5476,-3.5476,-3.5968,-3.643,-3.6153,-3.6292,-3.6492,-3.6492,-3.6492,-3.6492,-3.6492,-3.6492,-3.6492,-3.6492,-3.6492,-3.6492,-3.6492,-3.6492,-3.6492,-3.6492,-3.6492,-3.6492,-3.6492,-3.6492,-3.6492,-3.6492,-3.6492,-3.6492,-3.6492,-3.6492,-3.6554,-3.6616,-3.6662,-3.6723,-3.6862,-3.7089,-3.7254,-3.7329,-3.7464,-3.748,-3.748,-3.748,-3.748,-3.748,-3.748,-3.748,-1.3161,0.0,0.0,0.0,0.0,0.0,0.0,0.0,0.0,-2.0213,0.0,-1.9944,-2.0348,-2.0089,-2.0222,-2.1403,-2.2138,-2.297,-2.4362,-2.5043,-2.5457,-2.5523,-2.5523,-2.5322,-2.4795,-2.4745,-2.472,-2.4669,-2.4205,-2.3916,-2.3916,-2.3427,-2.3078,-2.3078,-2.3078,-2.3198,-2.3403,-2.3509,-2.3688,-2.3891,-2.4549,-2.4919,-2.5013,-2.5614,-2.6891,-2.8651,-2.9167,-2.9742,-3.0317,-2.9737,-2.9504,-2.9504,-2.9504,-2.9983,-3.0703,-3.136,-3.2214,-3.3066,-3.313,-3.3689,-3.4294,-3.3721,-3.3937,-3.4524,-3.5139,-3.5369,-3.5415,-3.5415,-3.5861,-3.6183,-3.5645,-3.5891,-3.6307,-3.6307,-3.6399,-3.6492,-3.6492,-3.6492,-3.6492,-3.6492,-3.6492,-3.6492,-3.6492,-3.6492,-3.6492,-3.6492,-3.6492,-3.6492,-3.6492,-3.6492,-3.6492,-3.6492,-3.6492,-3.6492,-3.6492,-3.6492,-3.6492,-3.6492,-3.66,-3.6723,-3.6723,-3.7013,-3.727,-3.748,-3.748,-3.748,-3.748,-3.748,-3.748,-3.7421,-3.748,-3.748,0.0,-1.2895,0.0,0.0,0.0,0.0,0.0,0.0,0.0,-1.9344,-1.9851,-2.0307,-2.04,-2.0348,-2.0589,-2.1457,-2.1746,-2.232,-2.3802,-2.4093,-2.4369,-2.4918,-2.4983,-2.477,-2.423,-2.418,-2.3991,-2.3466,-2.3389,-2.3265,-2.3265,-2.314,-2.3078,-2.3078,-2.3078,-2.3138,-2.3138,-2.3437,-2.3628,-2.3688,-2.4099,-2.4511,-2.5018,-2.6116,-2.7125,-2.8034,-2.8623,-2.8951,-2.9114,-2.9383,-2.9504,-2.9504,-2.9504,-2.936,-2.9274,-3.0401,-3.1119,-3.1692,-3.2735,-3.3381,-3.3744,-3.4099,-3.3952,-3.3653,-3.3803,-3.4209,-3.4615,-3.4615,-3.4721,-3.4936,-3.5385,-3.5199,-3.4906,-3.4906,-3.5722,-3.6492,-3.6492,-3.6492,-3.6492,-3.6492,-3.6492,-3.6492,-3.6492,-3.6492,-3.6492,-3.6492,-3.6492,-3.6492,-3.6492,-3.6492,-3.6492,-3.6492,-3.6492,-3.6492,-3.6492,-3.6492,-3.6492,-3.6492,-3.6554,-3.6677,-3.6938,-3.7089,-3.7194,-3.7254,-3.7405,-3.748,-3.748,-3.748,-3.7285,-3.6907,-3.7285,-3.7285,0.0,0.0,0.0,0.0,0.0,0.0,0.0,0.0,-1.8684,-1.8808,-1.9486,-2.01,-2.01,-2.01,-2.024,-2.0658,-2.0798,-2.1263,-2.2292,-2.3001,-2.3547,-2.3882,-2.4227,-2.4205,-2.364,-2.359,-2.3464,-2.3103,-2.3078,-2.3078,-2.3078,-2.3078,-2.3078,-2.3078,-2.3078,-2.3138,-2.3258,-2.339,-2.3569,-2.376,-2.3936,-2.4223,-2.4642,-2.58,-2.653,-2.6951,-2.7515,-2.8126,-2.8661,-2.8588,-2.8588,-2.8678,-2.8906,-2.854,-2.8005,-2.9946,-3.0879,-3.1241,-3.228,-3.3201,-3.3864,-3.3883,-3.3862,-3.3908,-3.4241,-3.4607,-3.4895,-3.4908,-3.4956,-3.4942,-3.5016,-3.4737,-3.4552,-3.4876,-3.5245,-3.5614,-3.5938,-3.6014,-3.6107,-3.643,-3.6492,-3.6492,-3.6492,-3.6492,-3.6492,-3.6492,-3.6492,-3.6492,-3.6492,-3.6492,-3.6492,-3.6492,-3.6492,-3.6492,-3.6492,-3.6492,-3.6492,-3.6492,-3.6616,-3.6816,-3.7015,-3.7225,-3.7329,-3.7329,-3.7464,-3.7345,-3.7105,-3.7105,-3.6831,-3.6321,-3.6631,-3.6569,0.0,0.0,0.0,0.0,0.0,0.0,0.0,0.0,-1.8269,-1.8482,-1.9114,-1.9644,-1.9644,-1.9644,-1.9713,-1.9713,-1.9839,-2.0107,-2.0698,-2.1743,-2.2595,-2.2787,-2.3317,-2.3529,-2.3115,-2.3078,-2.3078,-2.3078,-2.3078,-2.3078,-2.3078,-2.3078,-2.3078,-2.3078,-2.3078,-2.3198,-2.3343,-2.3403,-2.3573,-2.3974,-2.4123,-2.4131,-2.4151,-2.5197,-2.5659,-2.572,-2.6182,-2.7026,-2.8038,-2.7631,-2.7422,-2.7444,-2.8102,-2.7588,-2.6782,-2.9317,-3.0417,-3.072,-3.1818,-3.2984,-3.4066,-3.3922,-3.4142,-3.4581,-3.5059,-3.5335,-3.5359,-3.5275,-3.5217,-3.5048,-3.4614,-3.4291,-3.426,-3.4814,-3.4522,-3.4368,-3.5276,-3.5568,-3.5784,-3.623,-3.6415,-3.6492,-3.6492,-3.6492,-3.6492,-3.6492,-3.6492,-3.6492,-3.6492,-3.6492,-3.6492,-3.6492,-3.6492,-3.6492,-3.6492,-3.6492,-3.6492,-3.6492,-3.6693,-3.6816,-3.6877,-3.7044,-3.721,-3.721,-3.7285,-3.7105,-3.6585,-3.6585,-3.6321,-3.5785,-3.5849,-3.5849,0.0,0.0,0.0,0.0,0.0,0.0,0.0,0.0,-1.7501,0.0,-1.8724,-1.89,-1.89,-1.9101,-1.9158,-1.9158,-1.9239,-1.9483,-2.0129,-2.039,-2.0896,-2.2097,-2.2283,-2.258,-2.3078,-2.3078,-2.3078,-2.3078,-2.3078,-2.3078,-2.3078,-2.3078,-2.3078,-2.3078,-2.3078,-2.3138,-2.3138,-2.333,-2.3644,-2.4187,-2.4908,-2.487,-2.4138,-2.4792,-2.4826,-2.4373,-2.4951,-2.5361,-2.5567,-2.6446,-2.6501,-2.6169,-2.7306,-2.6685,-2.5453,-2.7371,-2.8208,-2.8864,-3.1204,-3.2601,-3.3623,-3.545,-3.5725,-3.5124,-3.4581,-3.4912,-3.524,-3.4611,-3.411,-3.3804,-3.4373,-3.3567,-3.269,-3.2782,-3.2736,-3.3198,-3.5076,-3.5953,-3.6215,-3.5707,-3.6091,-3.6492,-3.6492,-3.6492,-3.6492,-3.6492,-3.6492,-3.6492,-3.6492,-3.6492,-3.6492,-3.6492,-3.6492,-3.6492,-3.6492,-3.6492,-3.6492,-3.6492,-3.6304,-3.6163,-3.6274,-3.607,-3.6006,-3.6102,-3.6569,-3.6523,-3.5991,-3.5991,-3.5737,-3.5299,-3.5721,-3.5657,0.0,0.0,0.0,0.0,0.0,0.0,0.0,0.0,-1.7437,-1.8094,-1.8405,-1.8539,-1.8617,-1.8674,-1.8808,-1.8942,-1.8942,-1.9065,-1.9452,-1.9846,-2.0484,-2.1428,-2.1865,-2.2359,-2.3005,-2.3078,-2.3078,-2.3078,-2.3078,-2.3078,-2.3078,-2.3078,-2.3078,-2.3078,-2.3078,-2.3078,-2.3078,-2.3198,-2.3397,-2.3771,-2.4317,-2.4356,-2.4021,-2.4713,-2.4661,-2.4125,-2.4713,-2.5181,-2.5587,-2.6022,-2.6089,-2.5975,-2.6857,-2.627,-2.5187,-2.6729,-2.7583,-2.8187,-2.9745,-3.095,-3.2055,-3.3431,-3.3713,-3.3451,-3.363,-3.3905,-3.4245,-3.478,-3.4188,-3.3562,-3.4283,-3.3444,-3.249,-3.2875,-3.2952,-3.3213,-3.4121,-3.486,-3.5491,-3.5953,-3.6292,-3.6492,-3.6492,-3.6492,-3.6492,-3.6492,-3.6492,-3.6492,-3.6492,-3.6492,-3.6492,-3.6492,-3.6492,-3.6492,-3.6492,-3.6492,-3.6492,-3.6492,-3.607,-3.5785,-3.5849,-3.5449,-3.519,-3.519,-3.5849,-3.5991,-3.5479,-3.5479,-3.5234,-3.4787,-3.4971,-3.4986,0.0,0.0,0.0,0.0,0.0,0.0,0.0,0.0,-1.693,0.0,-1.7986,-1.814,-1.8327,-1.8414,-1.8549,-1.8684,-1.8741,-1.8875,-1.8998,-1.9518,-2.0096,-2.0741,-2.1302,-2.1916,-2.275,-2.2884,-2.2944,-2.3078,-2.3078,-2.3078,-2.3078,-2.3078,-2.3078,-2.3078,-2.3078,-2.3078,-2.3078,-2.3215,-2.3424,-2.3619,-2.3919,-2.3974,-2.3903,-2.4497,-2.4517,-2.4125,-2.4722,-2.5168,-2.5509,-2.5733,-2.5773,-2.5851,-2.6687,-2.6256,-2.5358,-2.6546,-2.7247,-2.767,-2.8812,-2.986,-3.0912,-3.2041,-3.2503,-3.2632,-3.3087,-3.3353,-3.3699,-3.4581,-3.3982,-3.324,-3.3819,-3.2953,-3.2042,-3.2543,-3.2664,-3.2828,-3.3541,-3.4091,-3.4829,-3.5999,-3.6368,-3.6492,-3.6492,-3.6492,-3.6492,-3.6492,-3.6492,-3.6492,-3.6492,-3.6492,-3.6492,-3.6492,-3.6492,-3.6492,-3.6492,-3.6492,-3.6492,-3.6492,-3.5785,-3.5434,-3.5434,-3.4846,-3.4514,-3.4409,-3.5139,-3.535,-3.4986,-3.4986,-3.4787,-3.4414,-3.4414,-3.4414,0.0,0.0,0.0,0.0,0.0,0.0,0.0,0.0,-1.5296,-1.7052,-1.7412,-1.7539,-1.7939,-1.8279,-1.8482,-1.8482,-1.8674,-1.8808,-1.8808,-1.9008,-1.9396,-2.0096,-2.0161,-2.073,-2.2051,-2.2163,-2.2433,-2.3065,-2.3078,-2.3078,-2.3078,-2.3078,-2.3078,-2.3078,-2.3078,-2.3078,-2.3078,-2.3678,-2.4016,-2.4189,-2.43,-2.4214,-2.3903,-2.4093,-2.4151,-2.4151,-2.4747,-2.4695,-2.4302,-2.5389,-2.5507,-2.5187,-2.6916,-2.6823,-2.5847,-2.6465,-2.6756,-2.7064,-2.9034,-3.0276,-3.1249,-3.3203,-3.4027,-3.4041,-3.3422,-3.3699,-3.4095,-3.3492,-3.2935,-3.2474,-3.2474,-3.1529,-3.0584,-3.0613,-3.0628,-3.1323,-3.3887,-3.4445,-3.4691,-3.5399,-3.6061,-3.6492,-3.6492,-3.6492,-3.6492,-3.6492,-3.6492,-3.6492,-3.6492,-3.6492,-3.6492,-3.6492,-3.6492,-3.6492,-3.6492,-3.6492,-3.6492,-3.6492,-3.5544,-3.4942,-3.4942,-3.4235,-3.3839,-3.3839,-3.4264,-3.4481,-3.4414,-3.4414,-3.4414,-3.4414,-3.4414,-3.4414,0.0,0.0,0.0,0.0,0.0,-1.3244,-1.4423,-1.536,-1.6196,-1.7229,-1.7598,-1.7832,-1.7978,-1.8076,-1.8212,-1.8347,-1.8405,-1.8539,-1.8617,-1.8808,-1.9131,-1.9835,-2.042,-2.1112,-2.1978,-2.2494,-2.2811,-2.3065,-2.3078,-2.3078,-2.3078,-2.3078,-2.3078,-2.3078,-2.3078,-2.3078,-2.3078,-2.3339,-2.3439,-2.35,-2.3682,-2.3773,-2.3713,-2.424,-2.4333,-2.4151,-2.4726,-2.4648,-2.4151,-2.4557,-2.4609,-2.4491,-2.5567,-2.5853,-2.5824,-2.606,-2.6604,-2.7341,-2.808,-2.9107,-3.0252,-3.1471,-3.2288,-3.269,-3.2561,-3.2704,-3.289,-3.268,-3.2154,-3.1746,-3.1792,-3.1163,-3.0524,-3.0524,-3.0524,-3.076,-3.1723,-3.3306,-3.4607,-3.4834,-3.5768,-3.6492,-3.6492,-3.6492,-3.6492,-3.6492,-3.6492,-3.6492,-3.6492,-3.6492,-3.6492,-3.6492,-3.6492,-3.6492,-3.6492,-3.6085,-3.58,-3.58,-3.4528,-3.3782,-3.3782,-3.3129,-3.286,-3.3058,-3.3269,-3.3701,-3.4414,-3.4414,-3.4414,-3.4414,-3.4414,-3.4414,0.0,0.0,0.0,0.0,0.0,-1.2952,-1.3625,0.0,-1.5946,-1.6977,-1.7383,-1.7666,-1.7959,-1.8008,-1.8008,-1.8212,-1.8269,-1.8337,-1.8414,-1.8617,-1.8875,-1.932,-1.9901,-2.0602,-2.129,-2.1803,-2.2249,-2.275,-2.275,-2.2884,-2.3078,-2.3078,-2.3078,-2.3078,-2.3326,-2.3514,-2.3703,-2.3703,-2.3703,-2.3703,-2.3649,-2.3641,-2.3522,-2.406,-2.4214,-2.408,-2.4458,-2.4406,-2.4138,-2.4321,-2.44,-2.4478,-2.5236,-2.5772,-2.6125,-2.6321,-2.7,-2.7837,-2.8046,-2.8891,-2.9998,-3.0652,-3.1336,-3.1817,-3.1963,-3.2036,-3.2046,-3.1902,-3.1418,-3.101,-3.0885,-3.0324,-2.9856,-2.9856,-2.9856,-2.9856,-2.9856,-3.1907,-3.3895,-3.4098,-3.5007,-3.5943,-3.6414,-3.6289,-3.6211,-3.6492,-3.6289,-3.6148,-3.6148,-3.5943,-3.5737,-3.5737,-3.5737,-3.5737,-3.5737,-3.5335,-3.5059,-3.5059,-3.3905,-3.3213,-3.3213,-3.2632,-3.2431,-3.2704,-3.2846,-3.3339,-3.4196,-3.4196,-3.4196,-3.4196,-3.4346,-3.4414,0.0,0.0,0.0,0.0,0.0,0.0,-1.2887,0.0,-1.4101,-1.622,-1.6665,-1.6938,-1.7842,-1.8008,-1.8008,-1.8008,-1.8134,-1.8269,-1.8269,-1.8414,-1.8482,-1.8482,-1.8674,-1.9065,-1.9715,-1.9966,-2.0666,-2.1978,-2.2101,-2.2372,-2.3078,-2.3078,-2.3078,-2.3078,-2.3678,-2.423,-2.4757,-2.477,-2.477,-2.477,-2.4343,-2.3923,-2.3403,-2.3509,-2.3688,-2.3891,-2.3891,-2.3949,-2.4164,-2.4713,-2.4996,-2.5114,-2.6177,-2.6621,-2.67,-2.7288,-2.7863,-2.8438,-2.9026,-2.9744,-3.0481,-3.1035,-3.1394,-3.1582,-3.1596,-3.173,-3.1742,-3.1151,-3.0699,-3.0242,-2.9618,-2.9021,-2.8587,-2.8587,-2.8587,-2.8587,-2.8587,-3.058,-3.2523,-3.3302,-3.3883,-3.4751,-3.6211,-3.5816,-3.5608,-3.6352,-3.5816,-3.54,-3.54,-3.4714,-3.4312,-3.4312,-3.4312,-3.4312,-3.4312,-3.4312,-3.4245,-3.4245,-3.3561,-3.3157,-3.3157,-3.2832,-3.2704,-3.2704,-3.3058,-3.3409,-3.377,-3.377,-3.3839,-3.3839,-3.4196,-3.4414,-0.9901,0.0,0.0,0.0,0.0,0.0,0.0,0.0,-1.4152,-1.5309,-1.6019,-1.6713,-1.7434,-1.7803,-1.8008,-1.8008,-1.8076,-1.8076,-1.8076,-1.8212,-1.8337,-1.8337,-1.8988,-1.9441,-1.9628,-2.0257,-2.0962,-2.1877,-2.2051,-2.2372,-2.3078,-2.3078,-2.3078,-2.3078,-2.3288,-2.3452,-2.3602,-2.3602,-2.3602,-2.3602,-2.3452,-2.3409,-2.3403,-2.3463,-2.3509,-2.3688,-2.3832,-2.3891,-2.3962,-2.4236,-2.4347,-2.4426,-2.5158,-2.5445,-2.5563,-2.6543,-2.7275,-2.7785,-2.7954,-2.8812,-2.9879,-3.0051,-3.0453,-3.1023,-3.1476,-3.1362,-3.0895,-3.0308,-2.9858,-2.9403,-2.8994,-2.8722,-2.8587,-2.8587,-2.8587,-2.8587,-2.8587,-2.9498,-3.0685,-3.1854,-3.2897,-3.3908,-3.4773,-3.4714,-3.4647,-3.4861,-3.4714,-3.4581,-3.4581,-3.4447,-3.4312,-3.4312,-3.4312,-3.4312,-3.4312,-3.3837,-3.3492,-3.3492,-3.2832,-3.2516,-3.2516,-3.2372,-3.23,-3.23,-3.2444,-3.266,-3.2988,-3.3563,-3.3977,-3.4264,-3.4346,-3.4414,0.0,0.0,0.0,0.0,0.0,0.0,-1.202,-1.2601,-1.3355,0.0,-1.4978,-1.5613,-1.6458,-1.6892,-1.7254,-1.7648,-1.7744,-1.7812,-1.7988,-1.8076,-1.8134,-1.8134,-1.8721,-1.9177,-1.9431,-1.9944,-2.059,-2.1302,-2.1678,-2.2187,-2.2909,-2.3017,-2.3078,-2.3017,-2.3315,-2.3502,-2.3502,-2.3728,-2.3728,-2.3502,-2.3502,-2.3437,-2.3271,-2.3271,-2.339,-2.3509,-2.3641,-2.37,-2.376,-2.3949,-2.4067,-2.4178,-2.4739,-2.5022,-2.5192,-2.6517,-2.7392,-2.7954,-2.8451,-2.928,-3.0158,-2.9921,-3.0066,-3.05,-3.0619,-3.0466,-3.014,-2.9485,-2.9093,-2.8824,-2.8617,-2.8587,-2.8587,-2.8587,-2.8587,-2.8587,-2.8587,-2.8872,-2.9542,-3.0844,-3.166,-3.2449,-3.339,-3.3465,-3.3571,-3.3854,-3.3869,-3.3837,-3.3837,-3.3575,-3.3437,-3.3437,-3.3437,-3.3437,-3.3437,-3.303,-3.2761,-3.2761,-3.2444,-3.2182,-3.2182,-3.2182,-3.2182,-3.2182,-3.2182,-3.2372,-3.2704,-3.3129,-3.3563,-3.3977,-3.4264,-3.4346,0.0,0.0,0.0,0.0,-1.0618,0.0,-1.1531,-1.1772,-1.2158,-1.3288,-1.371,-1.4225,-1.5323,-1.5698,-1.6186,-1.7181,-1.7353,-1.7529,-1.7949,-1.8008,-1.8008,-1.8008,-1.8134,-1.8549,-1.9173,-1.9404,-1.9822,-2.0564,-2.1273,-2.1895,-2.2505,-2.2861,-2.2946,-2.2787,-2.3517,-2.3904,-2.3904,-2.4393,-2.4393,-2.3904,-2.3829,-2.3566,-2.3078,-2.3005,-2.3138,-2.3403,-2.3403,-2.345,-2.3628,-2.3832,-2.3949,-2.4106,-2.4674,-2.4909,-2.5158,-2.6752,-2.7745,-2.8438,-2.9562,-3.032,-3.0712,-3.0202,-3.0045,-2.9941,-2.9431,-2.9363,-2.9333,-2.8752,-2.8465,-2.83,-2.8522,-2.8522,-2.8587,-2.8587,-2.8587,-2.8587,-2.8587,-2.8587,-2.893,-3.0149,-3.0331,-3.0704,-3.2026,-3.217,-3.2337,-3.3005,-3.2996,-3.2989,-3.2989,-3.2533,-3.2182,-3.2182,-3.2182,-3.2182,-3.2182,-3.2182,-3.2182,-3.2182,-3.2182,-3.2182,-3.2182,-3.2182,-3.2182,-3.2182,-3.2255,-3.2372,-3.2632,-3.2704,-3.2988,-3.3339,-3.3991,-3.4059,0.0,0.0,0.0,0.0,-1.0168,0.0,-1.0926,-1.1045,-1.1435,-1.2854,-1.3472,-1.4147,-1.5486,-1.61,-1.6494,-1.6782,-1.7148,-1.7529,-1.7949,-1.8008,-1.8008,-1.8008,-1.8008,-1.8203,-1.8676,-1.8924,-1.9471,-2.0519,-2.1358,-2.1733,-2.1524,-2.211,-2.2254,-2.1889,-2.269,-2.3131,-2.3131,-2.3353,-2.3414,-2.324,-2.2727,-2.2665,-2.3065,-2.2555,-2.2616,-2.3198,-2.333,-2.345,-2.3628,-2.3832,-2.3891,-2.3962,-2.4184,-2.4557,-2.5066,-2.5863,-2.6804,-2.7798,-2.849,-2.9118,-2.9588,-2.9483,-2.9444,-2.9431,-2.9314,-2.9018,-2.8576,-2.8119,-2.7934,-2.7908,-2.8145,-2.8249,-2.8365,-2.8365,-2.8509,-2.8587,-2.8587,-2.8587,-2.8692,-2.893,-2.937,-2.9942,-3.0704,-3.0829,-3.0829,-3.0966,-3.1405,-3.1662,-3.1662,-3.2014,-3.2182,-3.2182,-3.2182,-3.2182,-3.2182,-3.2182,-3.2182,-3.2182,-3.2182,-3.2182,-3.2182,-3.2182,-3.2182,-3.2182,-3.2431,-3.2503,-3.2314,-3.2917,-3.3199,-3.3269,-3.3479,-3.3479,0.0,0.0,0.0,-0.942,-1.004,0.0,0.0,-1.0681,-1.0926,-1.1663,-1.2039,-1.2594,-1.3636,-1.4303,-1.4952,-1.5663,-1.6268,-1.6834,-1.7607,-1.7881,-1.8008,-1.8008,-1.8193,-1.8537,-1.9093,-1.9445,-2.001,-2.0945,-2.1931,-2.2094,-2.136,-2.2402,-2.2531,-2.1415,-2.2071,-2.2199,-2.1865,-2.1916,-2.2113,-2.2506,-2.2237,-2.2433,-2.3078,-2.2433,-2.2298,-2.2555,-2.2384,-2.2567,-2.2992,-2.3173,-2.3305,-2.3437,-2.3543,-2.3769,-2.4214,-2.5358,-2.6063,-2.6704,-2.8274,-2.8802,-2.8697,-2.8851,-2.883,-2.8778,-2.849,-2.819,-2.7957,-2.7802,-2.7776,-2.7855,-2.8079,-2.8131,-2.8183,-2.8183,-2.8262,-2.8341,-2.8341,-2.8341,-2.8392,-2.8444,-2.8673,-2.905,-2.9442,-2.974,-2.9944,-2.9944,-3.0459,-3.0853,-3.0853,-3.1368,-3.1734,-3.1734,-3.2006,-3.2182,-3.2182,-3.2182,-3.2182,-3.2182,-3.2182,-3.2182,-3.2182,-3.2182,-3.2182,-3.2182,-3.2372,-3.2372,-3.2182,-3.2588,-3.2731,-3.2731,-3.3143,-3.3199,-0.7175,-0.7945,-0.8663,-0.9003,-0.9759,-1.0437,0.0,0.0,0.0,-1.0744,-1.087,-1.117,-1.1834,-1.2634,-1.3475,-1.4576,-1.5327,-1.6071,-1.6967,-1.7434,-1.7755,-1.7988,-1.8311,-1.8755,-1.9451,-1.993,-2.0494,-2.115,-2.2081,-2.2107,-2.1176,-2.2442,-2.2526,-2.1119,-2.1661,-2.1722,-2.1152,-2.1078,-2.1342,-2.1939,-2.1803,-2.2051,-2.2689,-2.2051,-2.1854,-2.2039,-2.1376,-2.1565,-2.2372,-2.2359,-2.2421,-2.2555,-2.2967,-2.3153,-2.338,-2.4791,-2.5348,-2.5802,-2.7915,-2.827,-2.7736,-2.7876,-2.8006,-2.7919,-2.7465,-2.739,-2.7523,-2.751,-2.7643,-2.7789,-2.7934,-2.8013,-2.8013,-2.8013,-2.8079,-2.8079,-2.8079,-2.8079,-2.8131,-2.8235,-2.8235,-2.83,-2.8587,-2.898,-2.9306,-2.9292,-2.9835,-3.0269,-3.0323,-3.092,-3.1327,-3.145,-3.1897,-3.2182,-3.2182,-3.2182,-3.2182,-3.2182,-3.2182,-3.2182,-3.2182,-3.2182,-3.2182,-3.2182,-3.2182,-3.2182,-3.2182,-3.2182,-3.2182,-3.2241,-3.2789,-3.2931,-0.649,-0.7149,-0.7788,-0.7771,-0.8849,-0.982,-0.9637,0.0,-1.0744,-1.1303,0.0,-1.1663,-1.252,0.0,0.0,-1.4216,-1.5018,-1.5737,-1.5965,-1.6403,-1.7028,-1.792,-1.8047,-1.8223,-1.8664,-1.9438,-2.0141,-2.0611,-2.0785,-2.0615,-2.0078,-2.0875,-2.1115,-2.0749,-2.1747,-2.2353,-2.2482,-2.2125,-2.1978,-2.2039,-2.0921,-2.0677,-2.1313,-2.0613,-2.0974,-2.2039,-2.1376,-2.1565,-2.2372,-2.1765,-2.1388,-2.1262,-2.2592,-2.3306,-2.3663,-2.3833,-2.4522,-2.5441,-2.6214,-2.6432,-2.6348,-2.636,-2.6457,-2.664,-2.6577,-2.6973,-2.739,-2.6769,-2.704,-2.7523,-2.7536,-2.7723,-2.7855,-2.7855,-2.8,-2.8079,-2.8079,-2.8079,-2.8079,-2.8145,-2.8145,-2.821,-2.8522,-2.8655,-2.8617,-2.846,-2.9118,-2.97,-3.0104,-3.0837,-3.149,-3.2019,-3.2141,-3.2182,-3.2182,-3.2182,-3.2182,-3.2182,-3.2182,-3.2182,-3.2182,-3.2182,-3.2182,-3.2182,-3.2182,-3.2182,-3.2182,-3.2182,-3.2182,-3.2182,-3.2327,-3.2314,-0.6578,-0.7185,-0.7859,-0.7839,-0.8564,-0.9434,-0.9805,-1.0,-1.0347,-1.106,0.0,0.0,0.0,0.0,0.0,0.0,-1.3439,-1.4241,-1.5029,-1.5265,-1.5944,-1.7321,-1.7784,-1.8174,-1.8523,-1.9613,-2.0015,-1.9453,-2.0777,-2.1056,-1.9997,-2.1146,-2.1278,-2.0091,-2.0608,-2.0698,-2.0302,-2.0085,-2.0268,-2.0782,-2.0291,-2.042,-2.1071,-2.042,-2.042,-2.0921,-2.0226,-2.0409,-2.1164,-2.0846,-2.0741,-2.0805,-2.1404,-2.1863,-2.228,-2.2878,-2.3382,-2.3955,-2.5194,-2.5313,-2.5013,-2.5469,-2.5693,-2.5791,-2.5791,-2.6,-2.6139,-2.5861,-2.6,-2.6208,-2.6208,-2.6277,-2.6483,-2.6892,-2.704,-2.7255,-2.7669,-2.7736,-2.7802,-2.7934,-2.7934,-2.8,-2.8276,-2.8341,-2.8276,-2.8197,-2.8477,-2.8852,-2.9306,-3.0115,-3.0848,-3.1456,-3.1906,-3.2182,-3.2182,-3.2182,-3.2182,-3.2182,-3.2182,-3.2182,-3.2182,-3.2182,-3.2182,-3.2182,-3.2182,-3.2182,-3.2182,-3.2182,-3.2182,-3.2182,-3.2182,-3.2182,-0.6676,-0.7233,-0.7721,-0.7721,-0.826,-0.8922,-0.9491,-0.9616,-0.9761,-1.0361,-1.0418,0.0,0.0,0.0,-1.1545,0.0,0.0,-1.3038,-1.3968,-1.4135,-1.48,-1.6682,-1.7435,-1.8008,-1.8428,-1.9294,-1.9424,-1.8486,-2.0194,-2.0772,-1.9634,-2.0928,-2.1093,-1.9645,-1.9957,-1.976,-1.8998,-1.8865,-1.9121,-1.977,-1.9781,-2.0042,-2.0549,-2.0042,-1.9911,-2.0042,-1.9396,-1.9518,-2.0204,-2.0085,-2.0085,-2.0215,-2.0215,-2.042,-2.0801,-2.1936,-2.2399,-2.2706,-2.4141,-2.4288,-2.3913,-2.4719,-2.4933,-2.4933,-2.4933,-2.5158,-2.5229,-2.5016,-2.5158,-2.5312,-2.5312,-2.5312,-2.5441,-2.6,-2.607,-2.6277,-2.704,-2.704,-2.704,-2.7577,-2.7577,-2.7523,-2.7868,-2.8013,-2.8079,-2.8013,-2.8079,-2.8359,-2.9037,-2.9627,-3.0314,-3.1106,-3.1707,-3.2036,-3.2109,-3.2109,-3.2109,-3.2182,-3.2182,-3.2182,-3.2182,-3.2182,-3.2182,-3.2182,-3.2182,-3.2096,-3.1936,-3.1936,-3.1936,-3.1936,-3.2096,-3.2182,-0.6631,-0.688,-0.7023,-0.7023,-0.7658,-0.8257,-0.8118,-0.8554,-0.9039,-0.9039,-0.9474,-0.985,-0.985,-1.0728,0.0,0.0,0.0,0.0,0.0,-1.285,-1.3793,-1.6262,-1.7074,-1.7568,-1.7988,-1.8047,-1.8047,-1.8037,-1.8428,-1.8672,-1.8601,-1.9463,-1.9889,-1.971,-2.0292,-2.0488,-2.0204,-1.9814,-1.9628,-1.9781,-1.9131,-1.8942,-1.9131,-1.9131,-1.9462,-2.0042,-1.9396,-1.9452,-2.0042,-1.9396,-1.9208,-1.9341,-1.9341,-1.9473,-1.9788,-2.0956,-2.1745,-2.2357,-2.2911,-2.3075,-2.3139,-2.3913,-2.4108,-2.4108,-2.4108,-2.4707,-2.5158,-2.4337,-2.4707,-2.5312,-2.5312,-2.5312,-2.5312,-2.5312,-2.5312,-2.5523,-2.6277,-2.5861,-2.5791,-2.7255,-2.6905,-2.6688,-2.739,-2.7868,-2.8,-2.7855,-2.8,-2.8439,-2.9442,-2.9741,-3.0264,-3.1449,-3.1596,-3.1683,-3.189,-3.189,-3.1963,-3.2182,-3.2182,-3.2182,-3.2182,-3.2182,-3.2182,-3.2182,-3.2182,-3.1863,-3.122,-3.122,-3.122,-3.1233,-3.1936,-3.2182,-0.5737,-0.6109,-0.6406,-0.6956,-0.7488,-0.7903,-0.8356,-0.8529,-0.8717,-0.9211,-0.9258,-0.9125,-0.9125,0.0,0.0,0.0,0.0,0.0,0.0,-1.2466,-1.319,-1.4305,-1.5265,-1.5954,-1.6224,-1.6531,-1.6609,-1.6523,-1.7523,-1.8085,-1.8223,-1.9297,-1.9595,-1.9004,-1.9473,-1.9485,-1.8988,-1.8787,-1.8798,-1.8942,-1.8674,-1.8674,-1.8875,-1.8875,-1.9075,-1.9462,-1.9198,-1.9198,-1.9396,-1.9198,-1.9142,-1.9142,-1.9142,-1.9274,-1.9523,-2.0679,-2.1268,-2.1596,-2.2507,-2.2927,-2.3075,-2.3276,-2.335,-2.335,-2.335,-2.357,-2.3717,-2.3423,-2.357,-2.3801,-2.3801,-2.3801,-2.3936,-2.442,-2.4492,-2.4707,-2.5511,-2.5453,-2.5581,-2.6552,-2.6552,-2.662,-2.739,-2.7603,-2.7669,-2.759,-2.7669,-2.7945,-2.872,-2.9306,-2.9989,-3.0699,-3.1296,-3.1609,-3.1683,-3.1683,-3.1508,-3.0947,-3.1495,-3.1259,-3.0101,-3.132,-3.1643,-3.0947,-3.1643,-3.1877,-3.1643,-3.0934,-3.0696,-3.0771,-3.062,-3.0934,-0.4912,-0.5294,-0.5613,-0.6496,-0.6841,-0.7159,-0.7979,-0.8049,-0.8047,-0.8699,-0.8664,-0.8495,-0.8495,0.0,0.0,0.0,0.0,0.0,0.0,-1.167,-1.2157,-1.2613,-1.3762,-1.4675,-1.5087,-1.5366,-1.5515,-1.5537,-1.6574,-1.7273,-1.7492,-1.8844,-1.9224,-1.8437,-1.8984,-1.8948,-1.8212,-1.8202,-1.8279,-1.8414,-1.8414,-1.8549,-1.8684,-1.8741,-1.8875,-1.9008,-1.9075,-1.9075,-1.9075,-1.9075,-1.9075,-1.9075,-1.9075,-1.9142,-1.9389,-2.046,-2.1161,-2.1605,-2.2349,-2.2703,-2.2777,-2.2777,-2.2852,-2.2959,-2.3058,-2.3188,-2.3296,-2.3482,-2.3394,-2.3263,-2.3263,-2.3132,-2.3139,-2.3632,-2.3694,-2.3913,-2.4719,-2.4647,-2.4802,-2.5791,-2.5779,-2.5836,-2.6552,-2.6701,-2.6905,-2.739,-2.7523,-2.7732,-2.8307,-2.9035,-2.9697,-3.0217,-3.0942,-3.1447,-3.1522,-3.1535,-3.1211,-3.033,-3.081,-3.0469,-2.9073,-3.0203,-3.0696,-3.0317,-3.0947,-3.1259,-3.1022,-3.0317,-2.9909,-2.9666,-2.9291,-2.9447]}]]